[[{"header":{"parameterUnit":"m.s-1","parameterCategory":1,"la1":30.6,"la2":28.766,"lo1":-90.7593,"lo2":-88.6598,"dy":0.0162,"dx":0.0183,"nx":116,"ny":114,"refTime":"2024-06-14T00:00:00:Z","depth":0,"parameterNumber":2,"parameterNumberName":"U-component_of_WINDS"},"data":[0.0,0.0,0.0,0.0,0.0,0.0,0.0,0.0,0.0,0.0,0.0,0.0,0.0,0.0,0.0,0.0,0.0,0.0,0.0,0.0,0.0,0.0,0.0,0.0,0.0,0.0,0.0,0.0,0.0,0.0,0.0,0.0,0.0,0.0,0.0,0.0,0.0,0.0,0.0,0.0,0.0,0.0,0.0,0.0,0.0,0.0,0.0,0.0,0.0,0.0,0.0,0.0,0.0,0.0,0.0,0.0,0.0,0.0,0.0,0.0,0.0,0.0,0.0,0.0,0.0,0.0,0.0,0.0,0.0,0.0,0.0,0.0,0.0,0.0,0.0,0.0,0.0,0.0,0.0,0.0,0.0,0.0,0.0,0.0,0.0,0.0,0.0,0.0,0.0,0.0,0.0,0.0,0.0,0.0,0.0,0.0,0.0,0.0,0.0,0.0,0.0,0.0,0.0,0.0,0.0,0.0,0.0,0.0,0.0,0.0,0.0,0.0,0.0,0.0,0.0,0.0,0.0,0.0,0.0,0.0,0.0,0.0,0.0,0.0,0.0,0.0,0.0,0.0,0.0,0.0,0.0,0.0,0.0,0.0,0.0,0.0,0.0,0.0,0.0,0.0,0.0,0.0,0.0,0.0,0.0,0.0,0.0,0.0,0.0,0.0,0.0,0.0,0.0,0.0,0.0,0.0,0.0,0.0,0.0,0.0,0.0,0.0,0.0,0.0,0.0,0.0,0.0,0.0,0.0,0.0,0.0,0.0,0.0,0.0,0.0,0.0,0.0,0.0,0.0,0.0,0.0,0.0,0.0,0.0,0.0,0.0,0.0,0.0,0.0,0.0,0.0,0.0,0.0,0.0,0.0,0.0,0.0,0.0,0.0,0.0,0.0,0.0,0.0,0.0,0.0,0.0,0.0,0.0,0.0,0.0,0.0,0.0,0.0,0.0,0.0,0.0,0.0,0.0,0.0,0.0,0.0,0.0,0.0,0.0,0.0,0.0,0.0,0.0,0.0,0.0,0.0,0.0,0.0,0.0,0.0,0.0,0.0,0.0,0.0,0.0,0.0,0.0,0.0,0.0,0.0,0.0,0.0,0.0,0.0,0.0,0.0,0.0,0.0,0.0,0.0,0.0,0.0,0.0,0.0,0.0,0.0,0.0,0.0,0.0,0.0,0.0,0.0,0.0,0.0,0.0,0.0,0.0,0.0,0.0,0.0,0.0,0.0,0.0,0.0,0.0,0.0,0.0,0.0,0.0,0.0,0.0,0.0,0.0,0.0,0.0,0.0,0.0,0.0,0.0,0.0,0.0,0.0,0.0,0.0,0.0,0.0,0.0,0.0,0.0,0.0,0.0,0.0,0.0,0.0,0.0,0.0,0.0,0.0,0.0,0.0,0.0,0.0,0.0,0.0,0.0,0.0,0.0,0.0,0.0,0.0,0.0,0.0,0.0,0.0,0.0,0.0,0.0,0.0,0.0,0.0,0.0,0.0,0.0,0.0,0.0,0.0,0.0,0.0,0.0,0.0,0.0,0.0,0.0,0.0,0.0,0.0,0.0,0.0,0.0,0.0,0.0,0.0,0.0,0.0,0.0,0.0,0.0,0.0,0.0,0.0,0.0,0.0,0.0,0.0,0.0,0.0,0.0,0.0,0.0,0.0,0.0,0.0,0.0,0.0,0.0,0.0,0.0,0.0,0.0,0.0,0.0,0.0,0.0,0.0,0.0,0.0,0.0,0.0,0.0,0.0,0.0,0.0,0.0,0.0,0.0,0.0,0.0,0.0,0.0,0.0,0.0,0.0,0.0,0.0,0.0,0.0,0.0,0.0,0.0,0.0,0.0,0.0,0.0,0.0,0.0,0.0,0.0,0.0,0.0,0.0,0.0,0.0,0.0,0.0,0.0,0.0,0.0,0.0,0.0,0.0,0.0,0.0,0.0,0.0,0.0,0.0,0.0,0.0,0.0,0.0,0.0,0.0,0.0,0.0,0.0,0.0,0.0,0.0,0.0,0.0,0.0,0.0,0.0,0.0,0.0,0.0,0.0,0.0,0.0,0.0,0.0,0.0,0.0,0.0,0.0,0.0,0.0,0.0,0.0,0.0,0.0,0.0,0.0,0.0,0.0,0.0,0.0,0.0,0.0,0.0,0.0,0.0,0.0,0.0,0.0,0.0,0.0,0.0,0.0,0.0,0.0,0.0,0.0,0.0,0.0,0.0,0.0,0.0,0.0,0.0,0.0,0.0,0.0,0.0,0.0,0.0,0.0,0.0,0.0,0.0,0.0,0.0,0.0,0.0,0.0,0.0,0.0,0.0,0.0,0.0,0.0,0.0,0.0,0.0,0.0,0.0,0.0,0.0,0.0,0.0,0.0,0.0,0.0,0.0,0.0,0.0,0.0,0.0,0.0,0.0,0.0,0.0,0.0,0.0,0.0,0.0,0.0,0.0,0.0,0.0,0.0,0.0,0.0,0.0,0.0,0.0,0.0,0.0,0.0,0.0,0.0,0.0,0.0,0.0,0.0,0.0,0.0,0.0,0.0,0.0,0.0,0.0,0.0,0.0,0.0,0.0,0.0,0.0,0.0,0.0,0.0,0.0,0.0,0.0,0.0,0.0,0.0,0.0,0.0,0.0,0.0,0.0,0.0,0.0,0.0,0.0,0.0,0.0,0.0,0.0,0.0,0.0,0.0,0.0,0.0,0.0,0.0,0.0,0.0,0.0,0.0,0.0,0.0,0.0,0.0,0.0,0.0,0.0,0.0,0.0,0.0,0.0,0.0,0.0,0.0,0.0,0.0,0.0,0.0,0.0,0.0,0.0,0.0,0.0,0.0,0.0,0.0,0.0,0.0,0.0,0.0,0.0,0.0,0.0,0.0,0.0,0.0,0.0,0.0,0.0,0.0,0.0,0.0,0.0,0.0,0.0,0.0,0.0,0.0,0.0,0.0,0.0,0.0,0.0,0.0,0.0,0.0,0.0,0.0,0.0,0.0,0.0,0.0,0.0,0.0,0.0,0.0,0.0,0.0,0.0,0.0,0.0,0.0,0.0,0.0,0.0,0.0,0.0,0.0,0.0,0.0,0.0,0.0,0.0,0.0,0.0,0.0,0.0,0.0,0.0,0.0,0.0,0.0,0.0,0.0,0.0,0.0,0.0,0.0,0.0,0.0,0.0,0.0,0.0,0.0,0.0,0.0,0.0,0.0,0.0,0.0,0.0,0.0,0.0,0.0,0.0,0.0,0.0,0.0,0.0,0.0,0.0,0.0,0.0,0.0,0.0,0.0,0.0,0.0,0.0,0.0,0.0,0.0,0.0,0.0,0.0,0.0,0.0,0.0,0.0,0.0,0.0,0.0,0.0,0.0,0.0,0.0,0.0,0.0,0.0,0.0,0.0,0.0,0.0,0.0,0.0,0.0,0.0,0.0,0.0,0.0,0.0,0.0,0.0,0.0,0.0,0.0,0.0,0.0,0.0,0.0,0.0,0.0,0.0,0.0,0.0,0.0,0.0,0.0,0.0,0.0,0.0,0.0,0.0,0.0,0.0,0.0,0.0,0.0,0.0,0.0,0.0,0.0,0.0,0.0,0.0,0.0,0.0,0.0,0.0,0.0,0.0,0.0,0.0,0.0,0.0,0.0,0.0,0.0,0.0,0.0,0.0,0.0,0.0,0.0,0.0,0.0,0.0,0.0,0.0,0.0,0.0,0.0,0.0,0.0,0.0,0.0,0.0,0.0,0.0,0.0,0.0,0.0,0.0,0.0,0.0,0.0,0.0,0.0,0.0,0.0,0.0,0.0,0.0,0.0,0.0,0.0,0.0,0.0,0.0,0.0,0.0,0.0,0.0,0.0,0.0,0.0,0.0,0.0,0.0,0.0,0.0,0.0,0.0,0.0,0.0,0.0,0.0,0.0,0.0,0.0,0.0,0.0,0.0,0.0,0.0,0.0,0.0,0.0,0.0,0.0,0.0,0.0,0.0,0.0,0.0,0.0,0.0,0.0,0.0,0.0,0.0,0.0,0.0,0.0,0.0,0.0,0.0,0.0,0.0,0.0,0.0,0.0,0.0,0.0,0.0,0.0,0.0,0.0,0.0,0.0,0.0,0.0,0.0,0.0,0.0,0.0,0.0,0.0,0.0,0.0,0.0,0.0,0.0,0.0,0.0,0.0,0.0,0.0,0.0,0.0,0.0,0.0,0.0,0.0,0.0,0.0,0.0,0.0,0.0,0.0,0.0,0.0,0.0,0.0,0.0,0.0,0.0,0.0,0.0,0.0,0.0,0.0,0.0,0.0,0.0,0.0,0.0,0.0,0.0,0.0,0.0,0.0,0.0,0.0,0.0,0.0,0.0,0.0,0.0,0.0,0.0,0.0,0.0,0.0,0.0,0.0,0.0,0.0,0.0,0.0,0.0,0.0,0.0,0.0,0.0,0.0,0.0,0.0,0.0,0.0,0.0,0.0,0.0,0.0,0.0,0.0,0.0,0.0,0.0,0.0,0.0,0.0,0.0,0.0,0.0,0.0,0.0,0.0,0.0,0.0,0.0,0.0,0.0,0.0,0.0,0.0,0.0,0.0,0.0,0.0,0.0,0.0,0.0,0.0,0.0,0.0,0.0,0.0,0.0,0.0,0.0,0.0,0.0,0.0,0.0,0.0,0.0,0.0,0.0,0.0,0.0,0.0,0.0,0.0,0.0,0.0,0.0,0.0,0.0,0.0,0.0,0.0,0.0,0.0,0.0,0.0,0.0,0.0,0.0,0.0,0.0,0.0,0.0,0.0,0.0,0.0,0.0,0.0,0.0,0.0,0.0,0.0,0.0,0.0,0.0,0.0,0.0,0.0,0.0,0.0,0.0,0.0,0.0,0.0,0.0,0.0,0.0,0.0,0.0,0.0,0.0,0.0,0.0,0.0,0.0,0.0,0.0,0.0,0.0,0.0,0.0,0.0,0.0,0.0,0.0,0.0,0.0,0.0,0.0,0.0,0.0,0.0,0.0,0.0,0.0,0.0,0.0,0.0,0.0,0.0,0.0,0.0,0.0,0.0,0.0,0.0,0.0,0.0,0.0,0.0,0.0,0.0,0.0,0.0,0.0,0.0,0.0,0.0,0.0,0.0,0.0,0.0,0.0,0.0,0.0,0.0,0.0,0.0,0.0,0.0,0.0,0.0,0.0,0.0,0.0,0.0,0.0,0.0,0.0,0.0,0.0,0.0,0.0,0.0,0.0,0.0,0.0,0.0,0.0,0.0,0.0,0.0,0.0,0.0,0.0,0.0,0.0,0.0,0.0,0.0,0.0,0.0,0.0,0.0,0.0,0.0,0.0,0.0,0.0,0.0,0.0,0.0,0.0,0.0,0.0,0.0,0.0,0.0,0.0,0.0,0.0,0.0,0.0,0.0,0.0,0.0,0.0,0.0,0.0,0.0,0.0,0.0,0.0,0.0,0.0,0.0,0.0,0.0,0.0,0.0,0.0,0.0,0.0,0.0,0.0,0.0,0.0,0.0,0.0,0.0,0.0,0.0,0.0,0.0,0.0,0.0,0.0,0.0,0.0,0.0,0.0,0.0,0.0,0.0,0.0,0.0,0.0,0.0,0.0,0.0,0.0,0.0,0.0,0.0,0.0,0.0,0.0,0.0,0.0,0.0,0.0,0.0,0.0,0.0,0.0,0.0,0.0,0.0,0.0,0.0,0.0,0.0,0.0,0.0,0.0,0.0,0.0,0.0,0.0,0.0,0.0,0.0,0.0,0.0,0.0,0.0,0.0,0.0,0.0,0.0,0.0,0.0,0.0,0.0,0.0,0.0,0.0,0.0,0.0,0.0,0.0,0.0,0.0,0.0,0.0,0.0,0.0,0.0,0.0,0.0,0.0,0.0,0.0,0.0,0.0,0.0,0.0,0.0,0.0,0.0,0.0,0.0,0.0,0.0,0.0,0.0,0.0,0.0,0.0,0.0,0.0,0.0,0.0,0.0,0.0,0.0,0.0,0.0,0.0,0.0,0.0,0.0,0.0,0.0,0.0,0.0,0.0,0.0,0.0,0.0,0.0,0.0,0.0,0.0,0.0,0.0,0.0,0.0,0.0,0.0,0.0,0.0,0.0,0.0,-1.0068,-0.9943,0.0,0.0,0.0,0.0,0.0,0.0,0.0,0.0,0.0,0.0,0.0,0.0,0.0,0.0,0.0,0.0,0.0,0.0,0.0,0.0,0.0,0.0,0.0,-0.8881,-0.8989,-0.9163,-0.9269,-0.9302,-0.9302,0.0,0.0,0.0,0.0,0.0,-0.9179,-0.9065,-0.9006,-0.9006,-0.8881,-0.8856,-0.8856,-0.8632,-0.8453,-0.8285,0.0,0.0,0.0,0.0,0.0,0.0,0.0,0.0,0.0,0.0,0.0,0.0,0.0,0.0,0.0,0.0,0.0,0.0,0.0,0.0,0.0,0.0,0.0,0.0,0.0,0.0,0.0,0.0,0.0,0.0,0.0,0.0,0.0,0.0,0.0,0.0,0.0,0.0,0.0,0.0,0.0,0.0,0.0,0.0,0.0,0.0,0.0,0.0,0.0,0.0,0.0,0.0,0.0,0.0,0.0,0.0,0.0,0.0,0.0,0.0,0.0,0.0,0.0,0.0,0.0,0.0,0.0,0.0,0.0,0.0,-1.0438,-1.0307,0.0,0.0,0.0,0.0,0.0,0.0,0.0,0.0,0.0,0.0,0.0,0.0,0.0,0.0,0.0,0.0,0.0,0.0,0.0,0.0,0.0,-0.8432,-0.887,-0.8935,-0.9033,-0.9285,-0.9302,-0.9302,-0.9302,-0.9302,0.0,0.0,-0.9302,-0.9302,-0.9302,-0.9174,-0.913,-0.913,-0.9006,-0.8935,-0.8919,-0.8919,-0.8762,-0.8475,-0.8486,0.0,0.0,0.0,0.0,0.0,0.0,0.0,0.0,0.0,0.0,0.0,0.0,0.0,0.0,0.0,0.0,0.0,0.0,0.0,0.0,0.0,0.0,0.0,0.0,0.0,0.0,0.0,0.0,0.0,0.0,0.0,0.0,0.0,0.0,0.0,0.0,0.0,0.0,0.0,0.0,0.0,0.0,0.0,0.0,0.0,0.0,0.0,0.0,0.0,0.0,0.0,0.0,0.0,0.0,0.0,0.0,0.0,0.0,0.0,0.0,0.0,0.0,0.0,-1.0912,-1.0911,-1.0793,-1.0933,-1.1058,-1.1177,-1.0873,-1.0786,-1.0862,-1.0798,0.0,0.0,0.0,0.0,0.0,0.0,0.0,0.0,0.0,0.0,0.0,0.0,0.0,0.0,0.0,0.0,0.0,0.0,0.0,-0.8644,-0.8887,-0.9011,-0.9125,-0.9291,-0.9302,-0.9302,-0.9302,-0.9302,-0.9302,-0.9302,-0.9302,-0.9302,-0.9302,-0.9291,-0.928,-0.928,-0.913,-0.9022,-0.8919,-0.8919,-0.8892,-0.8843,-0.8769,-0.8655,-0.853,0.0,0.0,0.0,0.0,0.0,0.0,0.0,0.0,0.0,0.0,0.0,0.0,0.0,0.0,0.0,0.0,0.0,0.0,0.0,0.0,0.0,0.0,0.0,0.0,0.0,0.0,0.0,0.0,0.0,0.0,0.0,0.0,0.0,0.0,0.0,0.0,0.0,0.0,0.0,0.0,0.0,-1.0577,-1.063,0.0,0.0,0.0,0.0,0.0,0.0,0.0,0.0,0.0,0.0,0.0,0.0,0.0,-1.1101,-1.1101,-1.1101,-1.1096,-1.1079,-1.1079,-1.1123,-1.1199,-1.1221,-1.1351,-1.1518,-1.147,0.0,-1.1395,-1.1286,0.0,0.0,0.0,0.0,0.0,0.0,0.0,0.0,0.0,0.0,0.0,0.0,0.0,0.0,0.0,0.0,0.0,0.0,0.0,0.0,0.0,-0.9027,-0.9147,-0.9296,-0.9302,-0.9302,-0.9302,-0.9302,-0.9302,-0.9302,-0.9302,-0.9302,-0.9302,-0.9302,-0.934,-0.9405,-0.9356,-0.934,-0.9356,-0.9356,-0.9356,-0.9351,-0.9338,-0.9095,-0.8746,-0.8595,0.0,0.0,0.0,0.0,0.0,0.0,0.0,0.0,0.0,0.0,0.0,0.0,0.0,0.0,0.0,0.0,0.0,0.0,0.0,0.0,0.0,0.0,0.0,0.0,0.0,0.0,0.0,0.0,0.0,0.0,0.0,0.0,0.0,0.0,0.0,0.0,0.0,0.0,0.0,-1.0693,-1.0802,-1.0927,-1.0992,-1.1069,0.0,0.0,0.0,0.0,0.0,0.0,0.0,0.0,0.0,-1.1302,-1.1368,-1.1361,-1.1361,-1.1471,-1.1504,-1.1504,-1.1504,-1.1531,-1.158,-1.131,-1.1264,-1.1376,-1.112,-1.1063,-1.115,-1.1456,-1.1509,-1.14,0.0,0.0,0.0,0.0,-1.0707,-1.0664,0.0,0.0,0.0,0.0,0.0,0.0,0.0,0.0,0.0,0.0,0.0,0.0,-0.8941,-0.9071,-0.9174,-0.9296,-0.9302,-0.9302,-0.9302,-0.9302,-0.9302,-0.9302,-0.9302,-0.9302,-0.9302,-0.9334,-0.941,-0.9536,-0.9563,-0.9622,-0.9715,-0.9748,-0.9758,-0.9758,-0.9758,-0.9508,-0.9038,-0.8861,-0.8736,-0.8649,0.0,0.0,0.0,0.0,0.0,0.0,0.0,0.0,0.0,0.0,0.0,0.0,0.0,0.0,0.0,0.0,0.0,0.0,0.0,0.0,0.0,0.0,0.0,0.0,0.0,0.0,0.0,0.0,0.0,0.0,0.0,0.0,0.0,0.0,0.0,0.0,0.0,-1.0992,-1.1041,-1.1134,-1.1199,-1.1259,0.0,0.0,0.0,0.0,0.0,0.0,-1.1498,-1.1548,-1.1559,-1.1592,-1.1634,-1.1638,-1.1638,-1.1638,-1.1635,-1.1635,-1.1478,-1.1464,-1.1495,-1.115,-1.104,-1.1092,-1.0797,-1.0735,-1.0883,-1.1324,-1.1438,-1.1355,-1.1374,-1.1306,-1.1233,-1.0821,-1.069,-1.06,0.0,0.0,0.0,0.0,0.0,0.0,0.0,0.0,0.0,0.0,0.0,-0.8946,-0.9076,-0.9226,-0.9296,-0.9302,-0.9302,-0.9302,-0.9302,-0.9302,-0.9302,-0.9302,-0.9302,-0.9302,-0.9302,-0.9416,-0.9573,-0.9698,-0.9769,-0.9786,-0.9791,-0.991,-1.0003,-1.0003,-1.0003,-0.9802,-0.9454,-0.9323,-0.9103,-0.8876,-0.866,0.0,0.0,0.0,0.0,0.0,0.0,0.0,0.0,0.0,0.0,0.0,0.0,0.0,0.0,0.0,0.0,0.0,0.0,0.0,0.0,0.0,0.0,0.0,0.0,0.0,0.0,0.0,0.0,0.0,0.0,0.0,0.0,0.0,0.0,0.0,0.0,0.0,0.0,-1.1308,-1.1465,0.0,0.0,0.0,0.0,-1.151,-1.1499,-1.1548,-1.1578,-1.1583,-1.1632,-1.1797,-1.1808,-1.1808,-1.1808,-1.1355,-1.113,-1.113,-1.0676,-1.0545,-1.0645,-1.0697,-1.0796,-1.0891,-1.0896,-1.0901,-1.0901,-1.0792,-1.0739,-1.0725,-1.0673,-1.063,-1.0625,-1.0625,-1.0625,-1.0578,0.0,0.0,0.0,0.0,0.0,-0.8023,-0.8023,-0.8328,-0.8541,-0.8584,-0.8832,-0.9049,-0.9092,-0.9307,-0.9421,-0.9421,-0.9492,-0.9508,-0.9427,-0.9421,-0.9389,-0.9307,-0.9302,-0.934,-0.9421,-0.9612,-0.9775,-0.9894,-1.0014,-1.0112,-1.0193,-1.0237,-1.0253,-1.0253,-1.0253,-1.0182,-1.0041,-0.9688,-0.9443,-0.9275,-0.9035,-0.8832,0.0,0.0,0.0,0.0,0.0,0.0,0.0,0.0,0.0,0.0,0.0,0.0,0.0,0.0,0.0,0.0,0.0,0.0,0.0,0.0,0.0,0.0,0.0,0.0,0.0,0.0,0.0,0.0,0.0,0.0,0.0,0.0,0.0,0.0,0.0,0.0,0.0,-1.1434,-1.151,0.0,-1.1504,-1.1225,-1.1038,-1.112,-1.081,-1.0675,-1.078,-1.0739,-1.0805,-1.0845,-1.092,-1.099,-1.1013,-1.0946,-1.092,-1.0983,-1.0783,-1.0768,-1.0758,-1.0509,-1.0396,-1.0437,-1.0222,-1.013,-1.0134,-1.0179,-1.0415,-1.0809,-1.082,-1.0806,-1.0758,-1.0468,-1.0323,-1.0284,0.0,0.0,0.0,0.0,-0.7959,-0.8175,-0.8252,-0.8503,-0.8677,-0.8764,-0.8946,-0.913,-0.9206,-0.9394,-0.9503,-0.9583,-0.966,-0.9671,-0.9589,-0.9546,-0.9514,-0.9432,-0.9465,-0.9541,-0.9666,-0.9862,-0.998,-1.0144,-1.0302,-1.0427,-1.0503,-1.0547,-1.0568,-1.0563,-1.0525,-1.0481,-1.0462,-1.0146,-0.9889,-0.9644,-0.941,-0.9206,-0.9092,0.0,0.0,0.0,0.0,0.0,0.0,0.0,0.0,0.0,0.0,0.0,0.0,0.0,0.0,0.0,0.0,0.0,0.0,0.0,0.0,0.0,0.0,0.0,0.0,0.0,0.0,0.0,0.0,0.0,0.0,0.0,0.0,0.0,0.0,-1.1499,-1.1499,-1.1499,-1.1537,-1.147,-1.1291,-1.1014,-1.0801,-1.069,-1.0422,-1.0287,-1.0341,-1.0392,-1.0379,-1.045,-1.0568,-1.0607,-1.0711,-1.0638,-1.0611,-1.0671,-1.0513,-1.0446,-1.0482,-1.0222,-1.0059,-1.0093,-0.9869,-0.9771,-0.9783,-0.985,-1.0164,-1.0582,-1.0546,-1.0532,-1.0483,-1.0186,-1.0059,-1.0048,0.0,0.0,0.0,-0.7795,-0.8079,-0.8285,-0.8552,-0.8727,-0.8861,-0.9071,-0.9103,-0.9195,-0.9459,-0.9492,-0.9541,-0.9703,-0.9714,-0.972,-0.9714,-0.9714,-0.9714,-0.9714,-0.9786,-0.9867,-1.003,-1.0155,-1.028,-1.0405,-1.0592,-1.0706,-1.0712,-1.0873,-1.0927,-1.0922,-1.0755,-1.0677,-1.0609,-1.0604,-1.0397,-1.0014,-0.978,-0.9617,-0.9497,0.0,0.0,0.0,0.0,0.0,0.0,0.0,0.0,0.0,0.0,0.0,0.0,0.0,0.0,0.0,0.0,0.0,0.0,0.0,0.0,0.0,0.0,0.0,0.0,0.0,0.0,0.0,0.0,0.0,0.0,0.0,0.0,0.0,-1.1499,-1.1499,-1.1499,-1.1504,-1.1563,-1.1414,-1.0961,-1.1018,-1.0855,-1.0299,-1.0253,-1.0305,-1.0455,-1.0465,-1.0559,-1.0768,-1.0773,-1.0772,-1.0871,-1.0388,-1.0197,-1.0202,-0.9707,-0.9604,-0.9693,-0.9779,-0.9818,-0.9903,-0.9903,-0.9907,-0.9907,-0.9907,-0.9907,-0.9895,-0.9806,-0.982,-0.982,-0.982,-0.9826,-0.9907,0.0,0.0,-0.6853,-0.7552,-0.805,-0.8416,-0.8562,-0.8769,-0.8924,-0.9076,-0.9168,-0.9318,-0.947,-0.9605,-0.9666,-0.978,-0.9873,-0.9883,-0.9796,-0.9791,-0.9791,-0.9791,-0.9992,-1.0161,-1.0286,-1.0487,-1.065,-1.0775,-1.0927,-1.1003,-1.1003,-1.1036,-1.1052,-1.1047,-1.0879,-1.0851,-1.0813,-1.0726,-1.0579,-1.0429,-1.015,-0.9841,-0.9488,0.0,0.0,0.0,0.0,0.0,0.0,0.0,0.0,0.0,0.0,0.0,0.0,0.0,0.0,0.0,0.0,0.0,0.0,0.0,0.0,0.0,0.0,0.0,0.0,0.0,0.0,0.0,0.0,0.0,0.0,0.0,-1.1585,-1.1558,-1.151,-1.1499,-1.1532,-1.1574,-1.1302,-1.1083,-1.1028,-1.0417,-0.9958,-0.9892,-0.959,-0.9483,-0.9629,-0.9693,-0.9704,-0.9808,-0.9808,-0.9802,-0.99,-0.9869,-0.9836,-0.9907,-0.9846,-0.9801,-0.9826,-0.985,-0.9879,-0.9903,-1.002,-1.0045,-1.0049,-1.0118,-1.0106,-1.0036,-0.9899,-0.9862,-0.9862,-0.9862,-0.9971,-1.0045,0.0,-0.5444,-0.6322,-0.7123,-0.7679,-0.8082,-0.8236,-0.8416,-0.861,-0.8902,-0.9054,-0.9244,-0.9552,-0.9671,-0.9807,-0.9937,-1.0057,-1.009,-1.0068,-1.0112,-1.0139,-1.0139,-1.0373,-1.0536,-1.0606,-1.0791,-1.0927,-1.0998,-1.1118,-1.1172,-1.1172,-1.1172,-1.1172,-1.1166,-1.1047,-1.0998,-1.0992,-1.0922,-1.0851,-1.0817,-1.0634,-1.0175,-0.9557,-0.9327,-0.8762,-0.805,-0.7466,-0.708,-0.6799,-0.6344,0.0,0.0,0.0,0.0,0.0,0.0,0.0,0.0,0.0,0.0,0.0,0.0,0.0,0.0,0.0,0.0,0.0,0.0,0.0,0.0,0.0,0.0,0.0,0.0,-1.1665,-1.1688,-1.1618,-1.1563,-1.1484,-1.1421,-1.1164,-1.0846,-1.054,-1.0031,-0.9675,-0.9539,-0.9347,-0.9277,-0.933,-0.9379,-0.9424,-0.9461,-0.9501,-0.9567,-0.9606,-0.9746,-0.982,-0.9822,-0.9875,-0.9919,-1.0004,-1.0004,-0.9976,-1.0013,-1.0114,-1.0134,-1.0138,-1.0196,-1.0183,-1.0126,0.0,0.0,0.0,0.0,-1.0094,-1.0134,0.0,-0.4665,-0.5683,-0.6492,-0.7038,-0.7443,-0.7643,-0.7825,-0.8102,-0.8533,-0.8753,-0.9091,-0.958,-0.9731,-0.9894,-1.0161,-1.0193,-1.0259,-1.0394,-1.0555,-1.0626,-1.0637,-1.0819,-1.0954,-1.0976,-1.1085,-1.1156,-1.1183,-1.1286,-1.1379,-1.1379,-1.1319,-1.1313,-1.1352,-1.1177,-1.1123,-1.1123,-1.1107,-1.1101,-1.1101,-1.1101,-1.0551,-0.9652,-0.92,-0.8325,-0.724,-0.6398,-0.5786,-0.5248,-0.472,0.0,0.0,0.0,0.0,0.0,0.0,0.0,0.0,0.0,0.0,0.0,0.0,0.0,0.0,0.0,0.0,0.0,0.0,0.0,0.0,0.0,0.0,0.0,0.0,-1.1841,-1.1795,-1.1749,-1.1622,-1.1453,-1.113,-1.1018,-1.0657,-0.9824,-0.978,-0.9685,-0.9337,-0.9375,-0.9424,-0.9424,-0.9432,0.0,0.0,0.0,-0.9738,-0.9832,-0.9871,-0.9915,-0.9915,-0.9923,-0.9972,-1.0094,-1.0094,-1.0138,-1.0216,-1.0216,-1.0216,-1.0216,-1.0216,-1.0216,-1.0208,-1.0126,-1.0094,-1.0106,-1.0187,-1.0216,-1.0216,0.0,-0.3687,-0.469,-0.5475,-0.6193,-0.6752,-0.6975,-0.73,-0.7598,-0.777,-0.846,-0.898,-0.92,-0.9574,-0.9856,-1.0002,-1.0144,-1.0297,-1.0549,-1.0634,-1.0748,-1.0846,-1.0987,-1.1156,-1.139,-1.1417,-1.1482,-1.1677,-1.1705,-1.1716,-1.171,-1.1612,-1.1518,-1.1513,-1.1335,-1.1237,-1.1232,-1.1145,-1.1101,-1.1101,-1.1101,-1.0527,-0.9635,-0.9166,-0.787,-0.6194,-0.5316,-0.4405,-0.3536,-0.3074,-0.3241,-0.3572,-0.357,-0.4132,0.0,0.0,0.0,0.0,0.0,0.0,0.0,0.0,0.0,0.0,0.0,0.0,0.0,0.0,0.0,0.0,0.0,0.0,0.0,-1.1971,-1.1955,-1.1816,-1.1398,-1.1413,-1.1382,-1.1217,-1.0545,-1.0072,-0.9933,-0.9692,-0.946,-0.9379,-0.9465,-0.9468,-0.9468,-0.9587,-0.9669,-0.9763,-0.9779,-0.9836,-0.9875,-1.0012,-1.0057,-1.0057,-1.013,0.0,-1.0192,-1.0192,-1.02,-1.0216,-1.0216,-1.0216,-1.0216,-1.0216,-1.0216,-1.0212,-1.0196,-1.0192,-1.0192,-1.0208,-1.0216,-1.0216,-0.1333,-0.2405,-0.3341,-0.3898,-0.4523,-0.499,-0.5092,-0.5454,-0.5994,-0.6612,-0.7326,-0.8141,-0.9018,-0.9404,-0.9749,-1.0062,-1.0289,-1.0547,-1.0726,-1.096,-1.1123,-1.1183,-1.1362,-1.1514,-1.1634,-1.1639,-1.1699,-1.1819,-1.1819,-1.1819,-1.1819,-1.1708,-1.1681,-1.1721,-1.1601,-1.1547,-1.1536,-1.1422,-1.1368,-1.1362,-1.1302,-1.0706,-0.9771,-0.8974,-0.7482,-0.5641,-0.4523,-0.3435,-0.2522,-0.2052,-0.2052,-0.2178,-0.2208,-0.284,-0.377,0.0,0.0,0.0,0.0,0.0,0.0,0.0,0.0,0.0,0.0,0.0,0.0,0.0,0.0,-1.2009,-1.2069,0.0,-1.2198,-1.2091,-1.1893,-1.1647,-1.1369,-1.1031,-1.0773,-1.0621,-1.0272,-0.9968,-0.9726,-0.9571,-0.9424,-0.9424,-0.9554,-0.9631,-0.9631,-0.9767,-0.9836,-0.9834,-0.9926,-0.9971,-1.0016,-1.0102,-1.0147,-1.0151,-1.0196,-1.0216,-1.0216,-1.0216,-1.0216,-1.0216,-1.0216,-1.0216,-1.0216,-1.0216,-1.0216,-1.0216,-1.0216,-1.0216,-1.0216,-1.0216,-1.0216,-1.0216,-0.0335,-0.1115,-0.1872,-0.2417,-0.2887,-0.3181,-0.319,-0.3582,-0.4223,-0.5238,-0.5978,-0.701,-0.8455,-0.8918,-0.9358,-1.003,-1.0468,-1.0786,-1.0976,-1.1324,-1.1521,-1.157,-1.1716,-1.183,-1.1851,-1.1851,-1.1862,-1.1889,-1.1889,-1.1889,-1.1889,-1.1862,-1.1851,-1.1851,-1.183,-1.1773,-1.167,-1.1528,-1.143,-1.1313,-1.1262,-1.063,-0.9611,-0.8484,-0.6989,-0.5332,-0.3979,-0.2842,-0.1882,-0.1357,-0.1182,-0.1182,-0.1094,-0.1707,-0.2713,-0.4151,-0.5897,0.0,0.0,0.0,0.0,0.0,0.0,0.0,0.0,-1.0987,-1.1212,-1.191,-1.2025,-1.2053,-1.2198,-1.2236,-1.2205,-1.2063,-1.1782,-1.147,-1.1278,-1.0639,-1.0139,-0.9919,-0.9976,-0.9872,-0.9481,-0.9481,-0.9546,-0.9546,-0.97,-0.9844,-0.9844,-0.9862,-0.9907,-0.9923,-1.0045,-1.0089,-1.0106,-1.0179,-1.0216,-1.0216,-1.0216,-1.0216,-1.0216,-1.0216,-1.0216,-1.0216,-1.0216,-1.0216,-1.0216,-1.0216,-1.0216,-1.0216,-1.0216,-1.0269,-1.0375,-1.0216,-1.0216,-1.0216,0.0,-0.0137,-0.0561,-0.1633,-0.2104,-0.2367,-0.2396,-0.2765,-0.3203,-0.3678,-0.4793,-0.59,-0.6871,-0.7616,-0.8502,-0.9584,-1.023,-1.0806,-1.1248,-1.1417,-1.1597,-1.177,-1.1803,-1.1868,-1.1966,-1.1971,-1.202,-1.2181,-1.2181,-1.2181,-1.2129,-1.202,-1.1971,-1.1966,-1.1862,-1.1584,-1.1166,-1.1151,-1.0866,-1.0373,-1.0359,-0.9707,-0.864,-0.7684,-0.6385,-0.4914,-0.3934,-0.2683,-0.1387,-0.094,-0.0761,-0.0716,-0.0268,-0.0805,-0.1833,-0.3219,-0.5003,-0.6755,-0.7768,-0.8478,-0.909,-0.9523,-0.9372,-0.9398,0.0,-1.0648,-1.1003,-1.1962,-1.2198,-1.2203,-1.2214,-1.2307,-1.2192,-1.166,-1.1612,-1.1392,-1.0463,-1.0304,-1.0115,-0.9612,-0.9571,-0.9575,-0.9477,-0.9635,-0.9787,-0.9787,-0.983,-0.9887,-0.9887,-0.9895,-0.9936,-1.0061,-1.0073,-1.0118,-1.02,-1.0212,-1.0216,-1.0216,-1.0216,-1.0216,-1.0216,-1.0216,-1.0216,-1.0216,-1.0216,-1.0216,-1.0216,-1.0216,-1.0216,-1.0216,-1.0216,-1.0534,-1.0905,-1.0375,-1.0216,-1.0216,0.0,0.0,-0.0141,-0.0613,-0.0832,-0.0942,-0.0947,-0.1312,-0.1786,-0.2368,-0.3351,-0.4511,-0.5848,-0.7193,-0.8279,-0.8922,-0.9544,-1.0136,-1.0755,-1.0808,-1.0977,-1.1395,-1.1253,-1.1205,-1.1251,-1.1251,-1.1271,-1.1321,-1.1321,-1.1321,-1.1321,-1.1271,-1.1251,-1.1245,-1.1205,-1.0899,-1.0381,-1.0319,-0.9769,-0.899,-0.8936,-0.8316,-0.7256,-0.627,-0.5196,-0.4081,-0.3409,-0.2781,0.0,-0.1392,-0.1122,-0.1033,-0.0543,-0.0679,-0.127,-0.2736,-0.4109,-0.5528,-0.7108,-0.7968,-0.847,-0.8706,-0.9119,-0.9675,-1.0437,-1.0861,-1.1321,-1.203,-1.2274,-1.2228,-1.1847,-1.1898,-1.1826,-1.124,-1.0992,-1.0715,-1.0321,-1.011,-0.9903,-0.9702,-0.97,-0.9708,-0.9655,-0.9769,-0.9846,-0.9846,-0.9979,-1.0028,-1.0028,-1.0025,-1.0122,-1.0159,-1.0159,-1.0175,-1.0216,-1.0216,-1.0216,-1.0216,-1.0216,-1.0216,-1.0216,-1.0216,-1.0216,-1.0216,-1.0216,-1.0216,-1.0216,-1.0216,-1.0428,-1.0746,-1.0746,-1.1064,-1.1487,-1.0905,-1.0746,-1.0746,0.0,0.0,0.0,0.0,0.0,0.0,0.0,-0.0255,-0.0657,-0.1312,-0.2057,-0.3116,-0.4766,-0.6319,-0.7425,-0.7866,-0.8455,-0.9174,-1.0,-0.9958,-1.0137,-1.0705,-1.0324,-1.009,-1.009,-1.009,-1.009,-1.009,-1.0181,-1.0275,-1.0275,-1.0275,-1.0275,-1.0228,-1.0133,-0.9754,-0.9229,-0.8876,-0.8175,-0.7292,-0.7101,-0.648,-0.5602,-0.4749,-0.3938,-0.3217,-0.3137,-0.3006,-0.2826,-0.2199,-0.184,-0.153,-0.1049,-0.0824,-0.0964,-0.2185,-0.3312,-0.4568,-0.6476,-0.7363,-0.7842,-0.8184,-0.9044,-1.0,-1.0592,-1.1105,-1.1557,-1.1936,-1.2154,-1.2063,-1.1482,-1.15,-1.1437,-1.0862,-1.0573,-1.0345,-1.0169,-0.9957,-0.9801,-0.9801,-0.9883,-0.9963,-0.9893,-0.9951,-0.9936,-0.9936,-1.0069,-1.0223,-1.038,-1.0443,-1.0534,-1.064,-1.0693,-1.0693,-1.0693,-1.0693,-1.0693,-1.0693,-1.0534,-1.0428,-1.0428,-1.0269,-1.0216,-1.0216,-1.0216,-1.0216,-1.0216,-1.0216,-1.0534,-1.1117,-1.1117,-1.154,-1.2122,-1.1699,-1.1434,-1.1329,0.0,0.0,0.0,0.0,0.0,0.0,0.0,0.0,-0.0182,-0.0584,-0.0985,-0.1831,-0.3376,-0.4486,-0.5473,-0.6383,-0.7011,-0.7909,-0.914,-0.8994,-0.914,-0.9788,-0.8948,-0.847,-0.847,-0.847,-0.847,-0.847,-0.8944,-0.9134,-0.9134,-0.9134,-0.9134,-0.9134,-0.866,-0.8189,-0.7619,-0.6612,-0.5831,-0.5221,-0.4713,-0.4201,-0.363,-0.3139,-0.2675,-0.2346,-0.3264,-0.3275,-0.2961,-0.3409,-0.2916,-0.2071,-0.1562,-0.111,-0.0883,-0.1373,-0.2619,-0.4141,-0.5713,-0.6517,-0.7182,-0.8134,-0.9134,-1.0039,-1.0564,-1.1169,-1.1579,-1.1531,-1.1752,-1.1757,-1.1215,-1.1287,-1.1194,-1.0539,-1.0635,-1.0578,-0.9922,-0.9838,-0.9899,-0.9899,-1.0024,-1.0073,-1.0073,-1.0073,-1.0077,-1.0077,-1.0159,-1.0477,-1.1059,-1.1064,-1.1329,-1.1805,-1.1858,-1.1858,-1.1858,-1.1858,-1.1858,-1.1858,-1.1329,-1.1064,-1.1064,-1.0481,-1.0216,-1.0216,-1.0216,-1.0216,-1.0216,-1.0216,-1.0534,-1.1117,-1.1117,-1.1805,-1.2757,-1.2757,-1.2387,-1.1858,0.0,0.0,0.0,0.0,0.0,0.0,0.0,0.0,-0.0036,-0.0182,-0.0814,0.0,0.0,0.0,0.0,0.0,-0.5096,-0.5939,-0.6762,-0.683,-0.6913,-0.719,-0.6658,-0.6194,-0.59,-0.5903,-0.5903,-0.5903,-0.6043,-0.609,-0.609,-0.609,-0.609,-0.609,-0.5948,-0.557,-0.5049,-0.4714,-0.405,-0.3191,-0.3006,-0.2639,-0.2089,-0.1611,-0.1338,-0.1282,0.0,-0.2431,-0.2859,-0.3013,-0.2665,-0.2053,-0.156,-0.088,-0.0418,-0.128,-0.2573,-0.405,-0.5242,-0.6431,-0.7616,-0.8612,-0.966,-1.0583,-1.1179,-1.175,-1.2058,-1.1822,-1.1634,-1.1335,-1.0881,-1.0586,-1.0376,-1.0129,-1.0115,-1.0097,-0.991,-0.9983,-1.0036,-1.0036,-1.0118,-1.0171,-1.0171,-1.0171,-1.0329,-1.0751,-1.0782,-1.1064,-1.1593,-1.1646,-1.1699,-1.1911,-1.1977,-1.2016,-1.2016,-1.2136,-1.2169,-1.2169,-1.1888,-1.1749,-1.1749,-1.1161,-1.084,-1.0845,-1.0533,-1.0363,-1.0306,-1.0306,-1.0642,-1.1117,-1.1487,-1.2122,-1.2863,-1.318,-1.2968,-1.2493,0.0,0.0,0.0,0.0,0.0,0.0,0.0,0.0,0.0,0.0,0.0,0.0,0.0,0.0,0.0,0.0,0.0,-0.4047,-0.4817,-0.4783,-0.4852,-0.5115,-0.4541,-0.4073,-0.3769,-0.3783,-0.3789,-0.3789,-0.3993,-0.4048,-0.4048,-0.4048,-0.4048,-0.4048,-0.3857,-0.3566,-0.3223,-0.2892,-0.2344,-0.1703,-0.1473,-0.1225,-0.0845,-0.0582,-0.0446,0.0,-0.0972,-0.1536,-0.2134,-0.2642,-0.2397,-0.1795,-0.1516,-0.0884,-0.0469,-0.1282,-0.2573,-0.4002,-0.5004,-0.6574,-0.8094,-0.8897,-1.0065,-1.1111,-1.1521,-1.2079,-1.2342,-1.1788,-1.1378,-1.0895,-1.026,-0.9997,-0.9813,-0.9699,-0.9916,-1.0073,-1.0008,-1.0073,-1.0126,-1.0126,-1.0179,-1.0216,-1.0216,-1.0375,-1.0693,-1.1064,-1.1276,-1.1646,-1.2175,-1.2262,-1.234,-1.2552,-1.2711,-1.2771,-1.2771,-1.2836,-1.2817,-1.2595,-1.2477,-1.234,-1.2179,-1.1743,-1.1478,-1.1267,-1.0954,-1.0674,-1.0454,-1.0454,-1.0744,-1.1223,-1.1544,-1.2025,-1.2612,-1.2986,-1.2879,-1.2607,0.0,0.0,0.0,0.0,0.0,0.0,0.0,0.0,0.0,0.0,0.0,0.0,0.0,0.0,0.0,0.0,0.0,0.0,-0.3283,-0.3007,-0.3058,-0.3538,-0.2697,-0.222,-0.2175,-0.2196,-0.2159,-0.2159,-0.2699,-0.295,-0.2952,-0.2952,-0.2952,-0.2904,-0.2429,-0.2179,-0.2112,-0.1174,-0.0743,-0.0729,-0.0182,0.0,0.0,0.0,0.0,-0.0044,-0.0486,-0.0659,-0.0873,-0.2335,-0.2151,-0.1371,-0.1384,-0.1126,-0.0954,-0.143,-0.2669,-0.4097,-0.5094,-0.6856,-0.8569,-0.9043,-1.0401,-1.1589,-1.161,-1.2163,-1.2358,-1.1333,-1.0933,-1.0433,-0.9466,-0.9398,-0.9512,-0.9352,-0.9927,-1.0351,-1.0126,-1.0171,-1.0224,-1.0228,-1.0224,-1.0224,-1.0281,-1.0812,-1.1183,-1.1183,-1.1656,-1.2238,-1.282,-1.2927,-1.3203,-1.3798,-1.396,-1.402,-1.402,-1.4026,-1.3755,-1.3158,-1.3153,-1.2876,-1.2388,-1.2334,-1.2012,-1.1478,-1.1428,-1.1047,-1.0498,-1.0498,-1.082,-1.1251,-1.1306,-1.1632,-1.2175,-1.2175,-1.2175,-1.2215,0.0,0.0,0.0,0.0,0.0,0.0,0.0,0.0,0.0,0.0,0.0,0.0,0.0,0.0,0.0,0.0,0.0,0.0,-0.1393,-0.1639,-0.1673,-0.1479,-0.1227,-0.0965,-0.0602,-0.0603,-0.0604,-0.0604,-0.0746,-0.0796,-0.0802,-0.0802,-0.0802,-0.0802,-0.066,-0.0563,-0.0558,-0.0325,-0.0185,-0.0182,-0.0046,0.0,0.0,0.0,0.0,0.0,-0.0134,-0.018,-0.0364,-0.1436,-0.1367,-0.0886,-0.0936,-0.1133,-0.1526,-0.2431,-0.3764,-0.5142,-0.6188,-0.7663,-0.915,-1.0133,-1.0701,-1.1168,-1.1752,-1.1754,-1.1316,-1.0497,-1.0029,-0.9534,-0.8914,-0.8885,-0.9123,-0.9457,-1.0057,-1.0436,-1.0392,-1.0347,-1.0343,-1.0412,-1.0359,-1.0557,-1.106,-1.1609,-1.209,-1.2571,-1.2609,-1.2884,-1.3525,-1.3637,-1.3804,-1.3966,-1.4031,-1.4097,-1.4097,-1.4178,-1.4167,-1.4012,-1.3915,-1.3763,-1.3648,-1.3161,-1.2663,-1.2129,-1.1712,-1.1193,-1.0583,-1.0583,-1.0652,-1.0762,-1.1143,-1.1414,-1.1578,-1.2012,-1.1904,-1.1582,0.0,0.0,0.0,0.0,0.0,0.0,0.0,0.0,0.0,0.0,0.0,0.0,0.0,0.0,0.0,0.0,0.0,0.0,0.0,-0.0645,-0.0656,-0.0398,-0.0404,-0.0272,0.0,0.0,0.0,0.0,0.0,0.0,0.0,0.0,0.0,0.0,0.0,0.0,0.0,0.0,0.0,0.0,0.0,0.0,0.0,0.0,0.0,0.0,0.0,0.0,-0.0093,-0.0601,-0.0747,-0.0805,-0.1046,-0.1625,-0.2446,-0.3721,-0.5002,-0.6291,-0.7609,-0.8861,-1.008,-1.0999,-1.1294,-1.1461,-1.1893,-1.1488,-1.083,-1.0202,-0.9321,-0.8577,-0.8338,-0.8164,-0.8426,-0.9408,-0.9914,-1.03,-1.0766,-1.0582,-1.0487,-1.0481,-1.0716,-1.0974,-1.1356,-1.2116,-1.2763,-1.3088,-1.3302,-1.354,-1.3863,-1.3972,-1.4037,-1.4037,-1.4151,-1.4167,-1.4167,-1.4237,-1.432,-1.432,-1.4194,-1.4167,-1.4167,-1.383,-1.3393,-1.2785,-1.2228,-1.1612,-1.1006,-1.0792,-1.0649,-1.0659,-1.0938,-1.1095,-1.1095,-1.1484,-1.1374,-1.1048,0.0,0.0,0.0,0.0,0.0,0.0,0.0,0.0,0.0,0.0,0.0,0.0,0.0,0.0,0.0,0.0,0.0,0.0,0.0,0.0,0.0,0.0,0.0,0.0,0.0,0.0,0.0,0.0,0.0,0.0,0.0,0.0,0.0,0.0,0.0,0.0,0.0,0.0,0.0,0.0,0.0,0.0,0.0,0.0,0.0,0.0,0.0,0.0,0.0,0.0,-0.0335,-0.0909,-0.1448,-0.2371,-0.3573,-0.5015,-0.6196,-0.7405,-0.8816,-0.9955,-1.0859,-1.145,-1.1679,-1.1793,-1.1737,-1.1101,-1.0332,-0.9804,-0.8496,-0.7515,-0.7631,-0.7412,-0.7643,-0.9061,-0.9539,-1.003,-1.0915,-1.0732,-1.051,-1.0522,-1.106,-1.1437,-1.1559,-1.2535,-1.3189,-1.3243,-1.3732,-1.4053,-1.4037,-1.4097,-1.4112,-1.4112,-1.4265,-1.432,-1.432,-1.432,-1.432,-1.432,-1.432,-1.432,-1.432,-1.432,-1.3981,-1.3374,-1.2762,-1.214,-1.1587,-1.1034,-1.0807,-1.0807,-1.0807,-1.0819,-1.0831,-1.0831,-1.0784,-1.0624,0.0,0.0,0.0,0.0,0.0,0.0,0.0,0.0,0.0,0.0,0.0,0.0,0.0,0.0,0.0,0.0,0.0,0.0,0.0,0.0,0.0,0.0,0.0,0.0,0.0,0.0,0.0,0.0,0.0,0.0,0.0,0.0,0.0,0.0,0.0,0.0,0.0,0.0,0.0,0.0,0.0,0.0,0.0,0.0,0.0,0.0,0.0,0.0,0.0,0.0,-0.0338,-0.0966,-0.1886,-0.3144,-0.4538,-0.5638,-0.7039,-0.8292,-0.8547,-0.9471,-1.033,-1.0532,-1.0645,-1.0643,-1.0424,-0.9577,-0.8585,-0.7695,-0.691,-0.6411,-0.6479,-0.6853,-0.7449,-0.8212,-0.9212,-0.9943,-1.0083,-1.0412,-1.0624,-1.0757,-1.1193,-1.1676,-1.2251,-1.2926,-1.353,-1.4038,-1.421,-1.4211,-1.4108,-1.4222,-1.4292,-1.4292,-1.4309,-1.432,-1.432,-1.432,-1.432,-1.432,-1.432,-1.432,-1.432,-1.432,-1.3981,-1.3374,-1.2762,-1.214,-1.1587,-1.1034,-1.0807,-1.0807,-1.0807,-1.0852,-1.0869,-1.0869,-1.0578,-1.0235,0.0,0.0,0.0,0.0,0.0,0.0,0.0,0.0,0.0,0.0,0.0,0.0,0.0,0.0,0.0,0.0,0.0,0.0,0.0,0.0,0.0,0.0,0.0,0.0,0.0,0.0,0.0,0.0,0.0,0.0,0.0,0.0,0.0,0.0,0.0,0.0,0.0,0.0,0.0,0.0,0.0,0.0,0.0,0.0,0.0,0.0,0.0,0.0,0.0,0.0,-0.0532,-0.1404,-0.2384,-0.3606,-0.4965,-0.654,-0.752,-0.8334,-0.9204,-0.9836,-1.0348,-1.0749,-1.0762,-1.0492,-1.015,-0.9028,-0.7905,-0.7131,-0.6097,-0.5464,-0.6132,-0.6262,-0.6719,-0.8252,-0.8773,-0.9289,-1.0127,-1.0242,-1.0373,-1.0751,-1.1543,-1.2149,-1.2479,-1.3314,-1.3981,-1.4264,-1.432,-1.4292,-1.4238,-1.4292,-1.432,-1.432,-1.432,-1.432,-1.432,-1.432,-1.432,-1.432,-1.432,-1.432,-1.432,-1.432,-1.4153,-1.3825,-1.2878,-1.2367,-1.1982,-1.1192,-1.0824,-1.0881,-1.0877,-1.0918,-1.0963,-1.0963,-1.0589,-1.0051,0.0,0.0,0.0,0.0,0.0,0.0,0.0,0.0,0.0,0.0,0.0,0.0,0.0,0.0,0.0,0.0,0.0,0.0,0.0,0.0,0.0,0.0,0.0,0.0,0.0,0.0,0.0,0.0,0.0,0.0,0.0,0.0,0.0,0.0,0.0,0.0,0.0,0.0,0.0,0.0,0.0,0.0,0.0,0.0,0.0,0.0,0.0,0.0,0.0,0.0,-0.0724,-0.1739,-0.2682,-0.3821,-0.5198,-0.6948,-0.7701,-0.8278,-0.9621,-1.005,-1.031,-1.089,-1.0808,-1.0523,-1.0094,-0.886,-0.7618,-0.6979,-0.5579,-0.477,-0.5719,-0.5607,-0.6039,-0.7941,-0.8147,-0.8612,-1.0045,-1.0035,-1.0141,-1.0751,-1.1815,-1.2479,-1.2479,-1.3597,-1.432,-1.432,-1.432,-1.432,-1.432,-1.432,-1.432,-1.432,-1.432,-1.432,-1.432,-1.432,-1.432,-1.432,-1.432,-1.432,-1.432,-1.432,-1.4336,-1.4307,-1.3187,-1.2699,-1.2499,-1.1563,-1.1036,-1.0922,-1.0992,-1.1037,-1.1057,-1.0881,-1.0487,-0.9877,0.0,0.0,0.0,0.0,0.0,0.0,0.0,0.0,0.0,0.0,0.0,0.0,0.0,0.0,0.0,0.0,0.0,0.0,0.0,0.0,0.0,0.0,0.0,0.0,0.0,0.0,0.0,0.0,0.0,0.0,0.0,0.0,0.0,0.0,0.0,0.0,0.0,0.0,0.0,0.0,0.0,0.0,0.0,0.0,0.0,0.0,0.0,0.0,0.0,0.0,-0.0669,-0.1626,-0.227,-0.3848,-0.5531,-0.6164,-0.7449,-0.8643,-0.8799,-0.9304,-0.9794,-0.9893,-0.9988,-0.9916,-0.9641,-0.8631,-0.7524,-0.6587,-0.5383,-0.4544,-0.4656,-0.5045,-0.5663,-0.6388,-0.7398,-0.8349,-0.9072,-0.9579,-1.0141,-1.0751,-1.1815,-1.2479,-1.2479,-1.3597,-1.432,-1.432,-1.432,-1.432,-1.432,-1.432,-1.432,-1.432,-1.432,-1.432,-1.432,-1.432,-1.432,-1.432,-1.432,-1.432,-1.432,-1.432,-1.4379,-1.4432,-1.3757,-1.3248,-1.283,-1.215,-1.1526,-1.1016,-1.1024,-1.1078,-1.1093,-1.0507,-0.9913,-0.9396,0.0,0.0,0.0,0.0,0.0,0.0,0.0,0.0,0.0,0.0,0.0,0.0,0.0,0.0,0.0,0.0,0.0,0.0,0.0,0.0,0.0,0.0,0.0,0.0,0.0,0.0,0.0,0.0,0.0,0.0,0.0,0.0,0.0,0.0,0.0,0.0,0.0,0.0,0.0,0.0,0.0,0.0,0.0,0.0,0.0,0.0,0.0,0.0,-0.0048,-0.0382,-0.0954,-0.1669,-0.2539,-0.362,-0.4724,-0.5595,-0.6553,-0.7421,-0.7774,-0.8331,-0.8865,-0.9254,-0.9744,-1.0061,-0.9629,-0.8968,-0.8005,-0.66,-0.5331,-0.4488,-0.4488,-0.4989,-0.5607,-0.6225,-0.7007,-0.7905,-0.8856,-0.9195,-0.969,-1.0695,-1.1815,-1.2479,-1.2479,-1.3597,-1.432,-1.432,-1.432,-1.432,-1.432,-1.432,-1.432,-1.432,-1.432,-1.432,-1.432,-1.432,-1.432,-1.432,-1.439,-1.4434,-1.4434,-1.4504,-1.4559,-1.4602,-1.3979,-1.3384,-1.2853,-1.2288,-1.1682,-1.111,-1.1163,-1.1204,-1.1178,-1.0537,-0.9909,-0.9296,0.0,0.0,0.0,0.0,0.0,-0.0152,0.0,0.0,0.0,0.0,0.0,0.0,0.0,0.0,0.0,0.0,0.0,0.0,0.0,0.0,0.0,0.0,0.0,0.0,0.0,0.0,0.0,0.0,0.0,0.0,0.0,0.0,0.0,0.0,0.0,0.0,0.0,0.0,0.0,0.0,0.0,0.0,0.0,0.0,0.0,0.0,0.0,0.0,0.0,0.0,0.0,-0.2106,-0.3006,-0.3557,-0.409,-0.5035,-0.5784,-0.6333,-0.6905,-0.7515,-0.8147,-0.8892,-0.982,-1.0474,-1.017,-0.9722,-0.8872,-0.7161,-0.5719,-0.4656,-0.432,-0.4877,-0.5551,-0.5945,-0.6836,-0.7849,-0.8856,-0.9135,-0.9634,-1.0695,-1.1815,-1.2479,-1.2479,-1.3597,-1.432,-1.432,-1.432,-1.432,-1.432,-1.432,-1.432,-1.432,-1.432,-1.432,-1.432,-1.432,-1.4336,-1.4379,-1.4461,-1.4515,-1.4559,-1.4686,-1.4746,-1.4727,-1.4322,-1.3661,-1.2953,-1.2557,-1.1947,-1.1204,-1.1265,-1.129,-1.1227,-1.0411,-0.9828,-0.9296,0.0,0.0,0.0,0.0,0.0,0.0,-0.0076,0.0,0.0,0.0,0.0,0.0,0.0,0.0,0.0,0.0,0.0,0.0,0.0,0.0,0.0,0.0,0.0,0.0,0.0,0.0,0.0,0.0,0.0,0.0,0.0,0.0,0.0,0.0,0.0,0.0,0.0,0.0,0.0,0.0,0.0,0.0,0.0,0.0,0.0,0.0,0.0,0.0,0.0,0.0,0.0,0.0,0.0,-0.3863,-0.4022,-0.4565,-0.5138,-0.5734,-0.6338,-0.6958,-0.769,-0.884,-1.0077,-1.1161,-1.1311,-1.0997,-1.0088,-0.8445,-0.6668,-0.5045,-0.3815,-0.4597,-0.5383,-0.5383,-0.6895,-0.83,-0.8912,-0.9523,-1.0141,-1.0751,-1.1815,-1.2479,-1.2479,-1.3597,-1.432,-1.432,-1.432,-1.432,-1.432,-1.432,-1.432,-1.432,-1.432,-1.432,-1.432,-1.432,-1.4379,-1.4504,-1.4504,-1.4559,-1.4673,-1.4673,-1.4744,-1.4915,-1.4915,-1.4233,-1.3221,-1.3163,-1.2461,-1.129,-1.129,-1.129,-1.1169,-0.9879,-0.9413,-0.9237,0.0,0.0,0.0,0.0,0.0,0.0,0.0,-0.0628,-0.032,-0.004,0.0,0.0,0.0,0.0,0.0,0.0,0.0,0.0,0.0,0.0,0.0,0.0,0.0,0.0,0.0,0.0,0.0,0.0,0.0,0.0,0.0,0.0,0.0,0.0,0.0,0.0,0.0,0.0,0.0,0.0,0.0,0.0,0.0,0.0,0.0,0.0,0.0,0.0,0.0,0.0,0.0,0.0,0.0,0.0,0.0,-0.5688,-0.5488,-0.5288,-0.6299,-0.7022,-0.7864,-0.9392,-1.0852,-1.1919,-1.1939,-1.1585,-1.0654,-0.8566,-0.6668,-0.5045,-0.3814,-0.4597,-0.5383,-0.5383,-0.6895,-0.83,-0.8912,-0.9523,-1.0256,-1.1249,-1.2367,-1.3258,-1.3713,-1.4092,-1.432,-1.432,-1.432,-1.432,-1.432,-1.432,-1.432,-1.432,-1.432,-1.432,-1.432,-1.4407,-1.4461,-1.4504,-1.4673,-1.4817,-1.4855,-1.4885,-1.4939,-1.4983,-1.4983,-1.4295,-1.3221,-1.3221,-1.2461,-1.129,-1.129,-1.1051,-1.0587,-0.971,-0.9117,-0.8663,0.0,0.0,0.0,0.0,0.0,0.0,0.0,-0.1254,-0.0717,-0.0281,-0.0082,0.0,0.0,0.0,0.0,0.0,0.0,0.0,0.0,0.0,0.0,0.0,0.0,0.0,0.0,0.0,0.0,0.0,0.0,0.0,0.0,0.0,0.0,0.0,0.0,0.0,0.0,0.0,0.0,0.0,0.0,0.0,0.0,0.0,0.0,0.0,0.0,0.0,0.0,0.0,0.0,0.0,0.0,0.0,0.0,0.0,-0.7012,-0.6721,-0.7089,-0.7517,-0.8259,-1.0265,-1.1823,-1.2921,-1.2876,-1.2542,-1.1634,-0.924,-0.7175,-0.5439,-0.4432,-0.4877,-0.5551,-0.6001,-0.7398,-0.8629,-0.925,-1.0029,-1.0978,-1.214,-1.2934,-1.3652,-1.4264,-1.432,-1.432,-1.432,-1.432,-1.432,-1.432,-1.432,-1.432,-1.432,-1.432,-1.4291,-1.439,-1.4461,-1.4548,-1.4646,-1.4844,-1.4885,-1.4923,-1.4952,-1.4979,-1.4979,-1.4979,-1.4337,0.0,-1.3221,-1.2461,-1.129,-1.129,-1.0934,-1.0293,-0.9676,-0.9042,-0.8464,0.0,0.0,0.0,0.0,0.0,0.0,0.0,-0.1948,-0.1267,-0.077,-0.0325,-0.0041,-0.0043,0.0,0.0,0.0,0.0,0.0,0.0,0.0,0.0,0.0,0.0,0.0,0.0,0.0,0.0,0.0,0.0,0.0,0.0,0.0,0.0,0.0,0.0,0.0,0.0,0.0,0.0,0.0,0.0,0.0,0.0,0.0,0.0,0.0,0.0,0.0,0.0,0.0,0.0,0.0,0.0,0.0,0.0,0.0,0.0,0.0,0.0,-0.8591,-0.9132,-1.1408,-1.3041,-1.4096,-1.4107,-1.3735,0.0,-1.0392,-0.8002,-0.6162,-0.5495,-0.5495,-0.5887,-0.7007,-0.8234,-0.925,-0.9862,-1.0978,-1.214,-1.3258,-1.343,-1.3658,-1.4264,-1.432,-1.432,-1.432,-1.432,-1.432,-1.432,-1.432,-1.432,-1.4336,-1.4336,-1.439,-1.4504,-1.4515,-1.4646,-1.4915,-1.4926,-1.4923,-1.4979,-1.4979,-1.4979,-1.4979,-1.4979,-1.4278,-1.3221,-1.3163,-1.2402,-1.129,-1.129,-1.0942,-1.0312,-0.9739,-0.9117,-0.8534,0.0,0.0,0.0,0.0,0.0,0.0,0.0,0.0,0.0,0.0,-0.0931,-0.0495,-0.0513,-0.0216,0.0,0.0,0.0,0.0,0.0,0.0,0.0,0.0,0.0,0.0,0.0,0.0,0.0,0.0,0.0,0.0,0.0,0.0,0.0,0.0,0.0,-0.0239,0.0,0.0,0.0,0.0,0.0,0.0,0.0,0.0,0.0,0.0,-0.4909,-0.6564,0.0,0.0,0.0,0.0,0.0,0.0,0.0,0.0,-1.1404,-1.1698,-1.2363,0.0,-1.177,-1.3286,-1.4416,-1.5159,0.0,-1.4096,-1.2634,-1.0739,-0.8482,-0.656,-0.5601,-0.6169,-0.6892,-0.7175,-0.8573,-0.9917,-1.0528,-1.1982,-1.3091,-1.3374,-1.3825,-1.4153,-1.4264,-1.432,-1.432,-1.432,-1.432,-1.432,-1.432,-1.432,-1.4363,-1.4461,-1.4461,-1.4477,-1.4504,-1.4689,-1.4855,-1.4915,-1.4956,-1.4952,-1.4979,-1.4979,-1.4979,-1.4979,-1.4517,-1.3864,-1.3163,-1.2641,-1.1988,-1.129,-1.129,-1.0974,-1.0386,-0.9756,-0.9143,-0.8598,0.0,0.0,0.0,0.0,0.0,0.0,0.0,0.0,0.0,0.0,0.0,0.0,0.0,0.0,0.0,0.0,0.0,0.0,0.0,0.0,0.0,0.0,0.0,0.0,0.0,0.0,0.0,0.0,0.0,0.0,0.0,-0.0239,-0.0382,-0.0382,-0.0859,-0.124,0.0,0.0,0.0,0.0,0.0,0.0,0.0,0.0,0.0,0.0,-0.6146,-0.8046,0.0,-1.1201,-1.245,-1.3346,0.0,0.0,0.0,0.0,-1.3095,-1.3632,-1.4427,-1.391,-1.3476,-1.4688,-1.5447,-1.5917,-1.5864,-1.4842,-1.3375,-1.1627,-0.9649,-0.7981,-0.7125,-0.7546,-0.8178,-0.8744,-0.9862,-1.0978,-1.1871,-1.2818,-1.3486,-1.3769,-1.4092,-1.432,-1.432,-1.432,-1.432,-1.432,-1.432,-1.432,-1.432,-1.4379,-1.4434,-1.4504,-1.4602,-1.4657,-1.4657,-1.4844,-1.4943,-1.4939,-1.4952,-1.4979,-1.4979,-1.4979,-1.4979,-1.4979,-1.4337,-1.3742,-1.3163,-1.2461,-1.1813,-1.129,-1.1331,-1.1025,-1.0427,-0.9787,-0.9234,-0.8668,0.0,0.0,0.0,0.0,0.0,0.0,0.0,0.0,0.0,0.0,0.0,0.0,0.0,0.0,0.0,0.0,0.0,0.0,0.0,0.0,0.0,0.0,-0.0143,0.0,0.0,0.0,-0.0048,-0.0143,-0.0191,-0.0286,-0.0382,-0.0906,-0.1191,-0.1287,-0.2145,-0.2529,-0.2532,0.0,0.0,0.0,0.0,0.0,0.0,0.0,0.0,0.0,0.0,0.0,0.0,-1.2536,-1.3645,-1.4508,-1.4041,0.0,0.0,0.0,0.0,0.0,-1.5514,-1.5005,-1.4711,-1.5776,-1.6275,-1.6477,-1.6424,-1.5599,-1.4392,-1.2782,-1.1173,-0.9873,-0.9179,-0.9232,-0.9728,-1.0751,-1.1476,-1.2251,-1.3258,-1.3486,-1.3713,-1.4264,-1.432,-1.432,-1.432,-1.432,-1.432,-1.432,-1.432,-1.432,-1.432,-1.4434,-1.4515,-1.4532,-1.4744,-1.4926,-1.4943,-1.4943,-1.4939,-1.4979,-1.4979,-1.4979,-1.4979,-1.4979,-1.4979,-1.4979,-1.4278,-1.3684,-1.3163,-1.2402,-1.1763,-1.1318,-1.1392,-1.1085,-1.0595,-0.9945,-0.9396,-0.886,0.0,0.0,0.0,0.0,0.0,0.0,0.0,0.0,0.0,0.0,0.0,0.0,0.0,0.0,0.0,0.0,0.0,0.0,0.0,0.0,0.0,-0.1955,-0.0716,0.0,0.0,0.0,-0.0239,-0.0668,-0.1097,-0.1478,-0.1955,-0.2478,-0.2954,-0.3335,-0.3478,-0.3591,-0.3618,-0.3089,0.0,0.0,-0.1647,0.0,0.0,0.0,0.0,0.0,0.0,0.0,0.0,-1.3928,-1.5133,-1.5774,-1.5598,0.0,0.0,0.0,0.0,0.0,-1.5808,-1.5961,-1.6199,-1.6507,-1.6726,-1.6907,-1.6907,-1.6024,-1.4898,-1.3722,-1.2526,-1.1402,-1.0474,-1.0739,-1.1218,-1.1463,-1.2423,-1.3202,-1.3374,-1.3825,-1.4208,-1.4264,-1.432,-1.432,-1.432,-1.432,-1.432,-1.432,-1.432,-1.432,-1.432,-1.4434,-1.4548,-1.4646,-1.4844,-1.4912,-1.4952,-1.4952,-1.4963,-1.4979,-1.4979,-1.4979,-1.4979,-1.4979,-1.4979,-1.492,-1.3801,-1.328,-1.3104,-1.193,-1.1448,-1.1404,-1.1412,-1.1459,-1.1359,-1.0176,-0.9727,-0.9542,0.0,0.0,0.0,0.0,0.0,0.0,0.0,0.0,0.0,0.0,0.0,0.0,0.0,0.0,0.0,0.0,0.0,0.0,0.0,0.0,-0.3896,-0.3875,-0.2647,-0.1612,-0.0811,-0.1044,-0.1328,-0.1621,-0.2397,-0.293,-0.3172,-0.4034,-0.48,-0.5521,-0.5234,-0.4959,-0.4691,-0.4232,-0.3568,0.0,0.0,0.0,0.0,0.0,0.0,0.0,0.0,0.0,0.0,0.0,-1.544,-1.6042,-1.5811,0.0,0.0,0.0,0.0,0.0,-1.5983,-1.6246,-1.6506,-1.6662,-1.687,-1.6978,-1.6978,-1.6348,-1.5512,-1.4727,-1.3995,-1.3313,-1.2545,-1.3047,-1.353,-1.3531,-1.3753,-1.387,-1.387,-1.4153,-1.432,-1.432,-1.432,-1.432,-1.432,-1.432,-1.432,-1.432,-1.432,-1.4347,-1.4417,-1.4532,-1.4646,-1.4771,-1.4885,-1.4983,-1.4979,-1.4979,-1.4979,-1.4979,-1.4979,-1.4979,-1.4979,-1.4979,-1.4979,-1.492,-1.3742,-1.3221,-1.3104,-1.1877,-1.1384,-1.1437,-1.1531,-1.1625,-1.1524,-1.0283,-0.9648,-0.9248,0.0,0.0,0.0,0.0,0.0,0.0,0.0,0.0,0.0,0.0,0.0,0.0,0.0,0.0,0.0,0.0,0.0,0.0,0.0,-0.6438,-0.5837,-0.5745,-0.4791,-0.3626,-0.2232,-0.2404,-0.2693,-0.3061,-0.4093,-0.4741,-0.5045,-0.5853,-0.658,-0.7175,-0.6628,-0.6156,-0.5794,-0.535,-0.478,0.0,0.0,0.0,0.0,0.0,0.0,0.0,0.0,0.0,0.0,0.0,0.0,0.0,0.0,0.0,0.0,-1.5404,-1.5466,-1.5587,-1.5866,-1.6164,-1.6442,-1.6513,-1.6788,-1.6978,-1.6978,-1.669,-1.6235,-1.5648,-1.5361,-1.5049,-1.4536,-1.4992,-1.5369,-1.5202,-1.482,-1.4436,-1.432,-1.432,-1.432,-1.432,-1.432,-1.4336,-1.4363,-1.4336,-1.4347,-1.4407,-1.4379,-1.4417,-1.4532,-1.4657,-1.4817,-1.4915,-1.4967,-1.4979,-1.4979,-1.4979,-1.4979,-1.4979,-1.4979,-1.4979,-1.4979,-1.4979,-1.4979,-1.492,-1.3742,-1.3236,-1.3152,-1.1873,-1.1445,-1.1498,-1.1645,-1.1585,-1.1369,-1.0452,-0.9614,-0.8817,0.0,0.0,0.0,0.0,0.0,0.0,0.0,0.0,0.0,0.0,0.0,0.0,0.0,0.0,0.0,0.0,0.0,0.0,0.0,-0.8192,-0.7426,-0.7423,-0.6459,-0.5396,-0.4226,-0.3802,-0.4123,-0.5264,-0.6274,-0.7323,-0.8371,-0.8395,-0.8156,-0.7736,-0.7185,-0.6936,-0.6949,-0.6459,-0.6542,-0.6929,-0.6365,0.0,0.0,0.0,0.0,0.0,0.0,0.0,0.0,0.0,0.0,0.0,0.0,0.0,-1.5398,-1.5242,-1.5309,-1.5432,-1.5452,-1.5778,-1.6117,-1.613,-1.6558,-1.6978,-1.6978,-1.708,-1.6969,-1.6437,-1.64,-1.6318,-1.5851,-1.5882,-1.5862,-1.5313,-1.5141,-1.4931,-1.4375,-1.432,-1.432,-1.432,-1.432,-1.4363,-1.4477,-1.439,-1.4407,-1.4629,-1.4548,-1.4548,-1.4657,-1.4828,-1.4899,-1.4915,-1.4967,-1.4979,-1.4979,-1.4979,-1.4979,-1.4979,-1.4979,-1.4979,-1.4979,-1.4979,-1.4979,-1.492,-1.3742,-1.3225,-1.3192,-1.1895,-1.1531,-1.1678,-1.1698,-1.1381,-1.0831,-1.0781,-0.9982,-0.8879,0.0,0.0,0.0,0.0,0.0,0.0,0.0,0.0,0.0,0.0,0.0,0.0,0.0,0.0,0.0,0.0,0.0,0.0,0.0,-0.9848,-0.9385,-0.9385,-0.8739,-0.8345,-0.8201,-0.6933,-0.6621,-0.7436,-0.821,-0.9042,-0.9823,-0.9387,-0.9036,-0.8773,-0.8255,-0.7956,-0.7918,-0.8208,-0.8463,-0.8676,-0.8716,-0.8867,0.0,0.0,0.0,0.0,0.0,0.0,0.0,0.0,-1.5593,-1.5593,-1.5593,-1.5533,-1.5377,-1.5228,-1.5289,-1.5432,-1.5479,-1.5811,-1.6123,-1.6307,-1.6598,-1.6784,-1.6784,-1.7019,-1.7142,-1.6929,-1.7069,-1.7221,-1.7154,-1.6894,-1.6588,-1.6373,-1.5979,-1.5652,-1.5424,-1.5424,-1.5424,-1.5424,-1.5103,-1.4886,-1.4932,-1.4564,-1.439,-1.4559,-1.4532,-1.4586,-1.4828,-1.4883,-1.4943,-1.4967,-1.501,-1.4979,-1.4979,-1.4979,-1.4979,-1.4979,-1.4979,-1.4979,-1.4979,-1.4979,-1.4979,-1.4979,-1.4238,-1.3646,-1.3216,-1.251,-1.2003,-1.171,-1.1759,-1.1617,-1.1399,-1.0965,-1.047,-0.9982,0.0,0.0,0.0,0.0,0.0,0.0,0.0,0.0,0.0,0.0,0.0,0.0,0.0,0.0,0.0,0.0,0.0,0.0,-1.1309,-1.095,-1.0745,-1.0784,-1.0315,-1.0315,-1.0784,-0.9604,-0.9124,-0.9358,-1.0035,-1.0618,-1.0982,-1.0447,-1.0022,-0.9693,-0.9387,-0.9249,-0.9225,-0.9881,-1.0393,-1.0761,-1.086,-1.1012,0.0,0.0,0.0,0.0,0.0,0.0,0.0,0.0,-1.5429,-1.552,-1.5662,-1.554,-1.533,-1.5269,-1.5296,-1.5364,-1.5466,-1.5716,-1.6001,-1.6246,-1.6497,-1.6648,-1.675,-1.7053,-1.7277,-1.7324,-1.7541,-1.7738,-1.7846,-1.7535,-1.7216,-1.7044,-1.6643,-1.6317,-1.6151,-1.6089,-1.6089,-1.6089,-1.5751,-1.5497,-1.5544,-1.5114,-1.4848,-1.4874,-1.4863,-1.489,-1.4954,-1.4912,-1.4956,-1.4979,-1.4979,-1.4979,-1.4979,-1.4979,-1.4979,-1.4979,-1.4979,-1.4979,-1.4979,-1.4979,-1.5006,-1.5033,-1.453,-1.407,-1.3673,-1.321,-1.2622,-1.2048,-1.2115,-1.2021,-1.171,-1.1276,-1.0965,-1.0655,0.0,0.0,0.0,0.0,0.0,0.0,0.0,0.0,0.0,0.0,0.0,0.0,0.0,0.0,0.0,0.0,0.0,0.0,-1.1819,-1.1413,-1.1294,-1.1406,-1.0943,-1.0943,-1.1416,-1.1528,-1.1399,-1.1017,-1.1724,-1.2084,-1.2079,-1.1904,-1.1265,-1.0321,-1.0606,-1.0815,-1.0959,-1.1397,-1.2346,-1.3482,-1.2813,-1.286,-1.3285,0.0,0.0,0.0,0.0,0.0,0.0,0.0,-1.505,-1.5262,-1.5758,-1.5588,-1.5215,-1.5364,-1.5303,-1.5181,-1.5187,-1.5411,-1.5627,-1.5874,-1.6191,-1.6605,-1.6917,-1.7209,-1.7467,-1.7561,-1.7758,-1.7915,-1.7915,-1.7915,-1.7694,-1.7099,-1.6988,-1.6816,-1.6206,-1.6089,-1.6089,-1.6089,-1.6089,-1.6138,-1.6285,-1.6169,-1.5981,-1.5751,-1.5664,-1.5412,-1.5026,-1.4979,-1.4979,-1.4979,-1.4979,-1.4979,-1.4979,-1.4979,-1.4979,-1.4979,-1.4979,-1.4979,-1.4979,-1.4979,-1.5049,-1.5163,-1.4572,-1.4404,-1.4537,-1.3937,-1.3331,-1.2806,-1.2806,-1.2381,-1.1833,-1.1833,-1.1399,-1.0843,0.0,0.0,0.0,0.0,0.0,0.0,0.0,0.0,0.0,0.0,0.0,0.0,0.0,0.0,0.0,0.0,0.0,0.0,-1.1768,-1.1713,-1.1691,-1.1803,-1.1794,-1.1841,-1.1983,-1.2435,-1.2498,-1.2209,-1.2112,-1.2043,-1.1961,-1.1895,-1.1598,-1.1139,-1.1599,-1.1979,-1.2329,-1.2986,-1.3722,-1.4475,-1.4186,-1.4186,-1.4351,0.0,0.0,0.0,0.0,0.0,0.0,0.0,0.0,0.0,-1.5466,-1.5377,-1.5194,-1.5235,-1.5215,-1.5228,-1.5445,-1.5519,-1.5702,-1.6205,-1.6503,-1.6736,-1.7195,-1.7358,-1.7494,-1.7738,-1.7881,-1.7915,-1.7915,-1.7915,-1.786,-1.7652,-1.7652,-1.7597,-1.7369,-1.7369,-1.7369,-1.7369,-1.6988,-1.6773,-1.6768,-1.6391,-1.6162,-1.6245,-1.5834,-1.5636,-1.572,-1.526,-1.4979,-1.4979,-1.4979,-1.4979,-1.4979,-1.4979,-1.4979,-1.4979,-1.4979,-1.4979,-1.4979,-1.5124,-1.513,-1.5174,-1.5222,-1.4963,-1.4552,-1.401,-1.364,-1.348,-1.348,-1.3367,-1.3178,-1.3178,-1.3056,-1.2867,0.0,0.0,0.0,0.0,0.0,0.0,0.0,0.0,0.0,0.0,-1.1543,-1.1509,0.0,0.0,0.0,0.0,0.0,0.0,-1.1808,-1.1819,-1.1868,-1.1982,-1.2154,-1.2314,-1.2456,-1.3096,-1.3338,-1.3197,-1.2978,-1.2831,-1.2853,-1.2754,-1.2627,-1.2479,-1.2912,-1.3275,-1.3541,-1.414,-1.4689,-1.5107,-1.5015,-1.5035,-1.5046,0.0,0.0,0.0,0.0,0.0,0.0,0.0,0.0,0.0,-1.5432,-1.5357,-1.5208,-1.533,-1.5323,-1.5323,-1.5526,-1.5675,-1.5913,-1.6334,-1.6639,-1.6958,-1.7358,-1.7555,-1.765,-1.7881,-1.7915,-1.7915,-1.7915,-1.7915,-1.7915,-1.7915,-1.7915,-1.7915,-1.7915,-1.7915,-1.7915,-1.7915,-1.7597,-1.7369,-1.7369,-1.7095,-1.6883,-1.6878,-1.6377,-1.6032,-1.6005,-1.5382,-1.4979,-1.4979,-1.4979,-1.4979,-1.4979,-1.4979,-1.4979,-1.4979,-1.5033,-1.5108,-1.5108,-1.513,-1.5276,-1.5374,-1.5619,-1.5459,-1.5039,-1.4745,-1.446,-1.4225,-1.4225,-1.4036,-1.3791,-1.3791,-1.3791,-1.3739,0.0,0.0,0.0,0.0,0.0,0.0,0.0,0.0,0.0,0.0,-1.1563,-1.159,0.0,0.0,0.0,0.0,0.0,0.0,0.0,-1.1859,-1.1908,-1.2058,-1.2242,-1.255,-1.2975,-1.3608,-1.3961,-1.3973,-1.4012,-1.4085,-1.4244,-1.4054,-1.3985,-1.4015,-1.4358,-1.4489,-1.4536,-1.4999,-1.5269,-1.5411,-1.5398,-1.5398,-1.5411,-1.5398,0.0,0.0,0.0,0.0,0.0,0.0,0.0,0.0,-1.5506,-1.5404,-1.5235,-1.5465,-1.5506,-1.5445,-1.5615,-1.5866,-1.613,-1.632,-1.6707,-1.7154,-1.7521,-1.7772,-1.7915,-1.7915,-1.7915,-1.7915,-1.7915,-1.7915,-1.7915,-1.7915,-1.7915,-1.7915,-1.7915,-1.7915,-1.7915,-1.7915,-1.7915,-1.7915,-1.7936,-1.8002,-1.7927,-1.7464,-1.6964,-1.6519,-1.6005,-1.5382,-1.4979,-1.4979,-1.4979,-1.4979,-1.4979,-1.4979,-1.5037,-1.4995,-1.5162,-1.5233,-1.5249,-1.5249,-1.5374,-1.5603,-1.5772,-1.5816,-1.5816,-1.5816,-1.5444,-1.4898,-1.4898,-1.4521,-1.3975,-1.3989,-1.4051,-1.4127,0.0,0.0,0.0,0.0,0.0,0.0,0.0,0.0,0.0,0.0,0.0,0.0,0.0,0.0,0.0,0.0,0.0,0.0,0.0,-1.2124,-1.2461,-1.2489,-1.304,-1.3399,-1.3541,-1.4037,-1.4383,-1.4546,-1.4157,-1.3994,-1.4011,-1.4398,-1.4559,-1.4546,-1.4997,-1.5167,-1.5208,-1.5188,-1.5269,-1.5398,-1.5282,-1.5303,-1.5398,-1.5276,-1.4831,0.0,0.0,0.0,0.0,0.0,0.0,0.0,-1.5262,-1.5235,-1.5194,-1.5262,-1.5343,-1.5466,-1.5786,-1.594,-1.6205,-1.6714,-1.7175,-1.7507,-1.7772,-1.7846,-1.7915,-1.7915,-1.7915,-1.7915,-1.7915,-1.7915,-1.7915,-1.7915,-1.7915,-1.7915,-1.7915,-1.7915,-1.7915,-1.7915,-1.7915,-1.7914,-1.8036,-1.8077,-1.7924,-1.7556,-1.7033,-1.6519,-1.6005,-1.5382,-1.4979,-1.4979,-1.4979,-1.4979,-1.4979,-1.4979,-1.5022,-1.5179,-1.5206,-1.532,-1.5499,-1.5499,-1.557,-1.5772,-1.5805,-1.5816,-1.5816,-1.5816,-1.5694,-1.5566,-1.5566,-1.5505,-1.5393,-1.5427,-1.5834,-1.6333,0.0,0.0,0.0,0.0,0.0,0.0,0.0,0.0,0.0,0.0,0.0,0.0,0.0,0.0,0.0,0.0,0.0,0.0,0.0,-1.251,-1.2923,-1.3042,-1.3659,-1.4052,-1.4052,-1.4523,-1.4838,-1.4924,-1.4711,-1.4632,-1.4697,-1.4943,-1.5094,-1.5129,-1.5302,-1.5411,-1.5398,-1.5248,-1.5228,-1.5296,-1.5215,-1.5228,-1.5296,-1.5215,-1.4852,-1.4375,-1.4375,0.0,0.0,0.0,0.0,0.0,0.0,0.0,-1.5194,-1.5269,-1.5398,-1.5567,-1.584,-1.6069,-1.6435,-1.7039,-1.7419,-1.7649,-1.7914,-1.797,-1.7936,-1.8004,-1.7914,-1.7915,-1.7915,-1.7915,-1.7915,-1.7915,-1.7915,-1.7915,-1.7915,-1.7915,-1.7915,-1.7915,-1.7935,-1.8002,-1.8091,-1.7944,-1.7807,-1.7607,-1.6819,-1.6243,-1.6023,-1.5382,-1.4979,-1.4979,-1.4979,-1.5006,-1.5124,-1.5124,-1.5179,-1.5304,-1.5363,-1.5488,-1.5718,-1.5718,-1.5761,-1.5816,-1.5816,-1.5816,-1.5816,-1.5816,-1.5816,-1.5816,-1.5816,-1.5843,-1.5903,-1.6272,-1.671,-1.7089,0.0,0.0,0.0,0.0,0.0,0.0,0.0,0.0,0.0,0.0,0.0,0.0,0.0,0.0,0.0,0.0,0.0,0.0,0.0,-1.2942,-1.3406,-1.3746,-1.4258,-1.4516,-1.4516,-1.4993,-1.5181,-1.5181,-1.5181,-1.5337,-1.5587,-1.5533,-1.5554,-1.5669,-1.554,-1.5472,-1.5438,-1.5255,-1.5181,-1.5181,-1.5181,-1.5181,-1.5181,-1.5181,-1.4899,-1.4516,-1.4516,-1.4516,-1.4516,-1.4516,0.0,0.0,0.0,0.0,-1.5208,-1.5337,-1.5479,-1.5587,-1.5854,-1.6239,-1.6761,-1.729,-1.7446,-1.7587,-1.7829,-1.7739,-1.763,-1.7869,-1.7893,-1.7915,-1.7915,-1.7915,-1.7915,-1.7915,-1.7915,-1.7915,-1.7915,-1.7915,-1.7936,-1.7956,-1.8023,-1.8111,-1.8158,-1.782,-1.7576,-1.748,-1.6539,-1.5959,-1.5842,-1.5323,-1.4979,-1.4979,-1.4979,-1.5033,-1.5222,-1.5222,-1.5293,-1.5418,-1.5543,-1.5718,-1.5816,-1.5816,-1.5816,-1.5816,-1.5816,-1.5816,-1.5816,-1.5816,-1.5816,-1.5816,-1.5782,-1.5903,-1.6176,-1.6834,-1.7242,-1.7604,0.0,0.0,0.0,0.0,0.0,0.0,0.0,0.0,0.0,0.0,-1.1563,-1.1547,-1.1363,-1.1341,0.0,0.0,0.0,0.0,-1.2635,0.0,0.0,-1.4778,-1.5013,-1.5087,-1.5087,-1.5181,-1.5181,-1.5181,-1.5181,-1.5337,-1.5593,-1.5744,-1.5854,-1.5874,-1.5854,-1.5723,-1.5539,-1.5303,-1.5181,-1.5181,-1.5181,-1.5181,-1.5181,-1.5181,-1.5181,-1.5087,-1.5087,-1.5087,-1.5087,-1.5087,-1.5134,0.0,0.0,0.0,-1.5187,-1.5208,-1.5323,-1.5499,-1.5826,-1.6514,-1.7154,-1.7365,-1.7254,-1.708,-1.7118,-1.6718,-1.649,-1.7057,-1.7555,-1.7915,-1.7915,-1.7915,-1.7915,-1.7915,-1.7915,-1.7915,-1.7915,-1.7915,-1.7914,-1.8036,-1.8077,-1.8199,-1.8443,-1.7938,-1.7435,-1.7046,-1.6366,-1.5737,-1.5159,-1.5037,-1.4979,-1.4979,-1.4979,-1.5033,-1.5222,-1.5222,-1.5331,-1.5543,-1.5734,-1.5805,-1.5816,-1.5816,-1.5816,-1.5816,-1.5816,-1.5816,-1.5816,-1.5816,-1.5816,-1.5832,-1.5869,-1.6227,-1.6822,-1.7154,-1.8001,-1.9051,0.0,0.0,0.0,0.0,0.0,0.0,0.0,0.0,0.0,0.0,0.0,-1.1465,-1.1335,-1.1488,0.0,0.0,0.0,0.0,-1.3575,-1.4007,0.0,-1.4835,-1.4984,-1.5112,-1.5112,-1.5112,-1.5025,-1.4936,-1.5025,-1.5262,-1.5593,-1.5872,-1.603,-1.603,-1.603,-1.5852,-1.558,-1.5404,-1.5262,-1.5181,-1.5181,-1.5181,-1.5181,-1.5181,-1.5181,-1.5174,-1.5092,-1.5112,-1.5112,-1.5112,-1.5112,-1.5079,-1.516,0.0,0.0,0.0,-1.5289,-1.5493,-1.5879,-1.6388,-1.6897,-1.7216,-1.7087,-1.696,-1.7072,-1.6595,-1.628,-1.6974,-1.7262,-1.748,-1.786,-1.7915,-1.7915,-1.7915,-1.7915,-1.7915,-1.7915,-1.7915,-1.797,-1.8077,-1.8165,-1.8188,-1.8002,-1.7512,-1.6957,-1.6425,-1.5795,-1.5323,-1.5037,-1.4979,-1.4979,-1.4979,-1.5049,-1.5195,-1.532,-1.5391,-1.5499,-1.5734,-1.5789,-1.5816,-1.5816,-1.5816,-1.5816,-1.5816,-1.5816,-1.5816,-1.5816,-1.5825,-1.5853,-1.5931,-1.6361,-1.6812,-1.7205,-1.807,-1.8856,-1.9445,0.0,0.0,0.0,0.0,0.0,0.0,0.0,0.0,0.0,0.0,0.0,-1.1627,-1.1505,0.0,0.0,0.0,0.0,0.0,-1.4248,0.0,0.0,0.0,-1.4889,-1.5017,-1.5017,-1.5017,-1.4896,-1.4694,-1.4896,-1.5181,-1.5539,-1.5927,-1.6083,-1.6083,-1.6123,-1.5974,-1.5683,-1.5493,-1.5323,-1.5181,-1.5181,-1.5181,-1.5181,-1.5181,-1.5181,-1.5167,-1.5112,-1.5071,-1.5071,-1.5071,-1.5071,-1.5091,-1.5147,-1.5181,0.0,0.0,0.0,-1.5499,-1.5913,-1.6239,-1.6578,-1.7026,-1.6827,-1.6557,-1.6805,-1.6348,-1.6065,-1.6776,-1.6942,-1.7154,-1.7805,-1.7915,-1.7915,-1.7915,-1.7915,-1.7915,-1.7915,-1.7956,-1.7989,-1.8124,-1.8111,-1.7973,-1.7652,-1.7073,-1.6483,-1.6023,-1.5382,-1.4979,-1.4979,-1.4979,-1.4979,-1.4979,-1.5151,-1.5276,-1.5391,-1.5543,-1.5673,-1.5816,-1.5816,-1.5816,-1.5816,-1.5816,-1.5816,-1.5816,-1.5816,-1.5832,-1.5809,-1.6081,-1.6142,-1.631,-1.7114,-1.7588,-1.7923,-1.8969,-1.9495,-1.984,0.0,0.0,0.0,0.0,0.0,0.0,0.0,0.0,0.0,0.0,0.0,-1.2113,-1.1986,-1.2368,-1.2743,-1.2906,-1.3217,0.0,0.0,0.0,0.0,0.0,0.0,0.0,-1.5017,-1.5017,-1.4896,-1.4694,-1.4896,-1.5126,-1.5432,-1.5872,-1.6083,-1.609,-1.6232,-1.613,-1.5874,-1.5533,-1.5323,-1.5181,-1.5181,-1.5181,-1.5181,-1.5181,-1.5181,-1.5181,-1.5174,-1.5174,-1.5174,-1.5174,-1.5174,-1.5174,-1.5181,-1.5181,-1.5181,0.0,0.0,0.0,-1.5833,-1.609,-1.6429,-1.6883,-1.631,-1.5741,-1.5924,-1.5618,-1.5424,-1.6052,-1.6601,-1.7154,-1.7805,-1.7915,-1.7915,-1.7915,-1.7915,-1.7915,-1.7915,-1.7989,-1.8145,-1.8287,-1.7873,-1.7652,-1.7807,-1.6722,-1.6023,-1.6023,-1.5382,-1.4979,-1.4979,-1.4979,-1.4979,-1.4979,-1.5151,-1.5276,-1.5391,-1.569,-1.5816,-1.5816,-1.5816,-1.5816,-1.5816,-1.5816,-1.5816,-1.5816,-1.5816,-1.5809,-1.5912,-1.6603,-1.693,-1.7114,-1.7938,-1.8617,-1.9196,-1.9401,-1.9904,-2.0476,0.0,0.0,0.0,0.0,0.0,0.0,0.0,0.0,0.0,0.0,0.0,0.0,0.0,-1.2892,-1.3121,-1.3143,-1.3564,0.0,0.0,0.0,0.0,0.0,0.0,0.0,-1.4828,-1.4821,-1.4706,-1.4462,-1.4706,-1.497,-1.5276,-1.5772,-1.6042,-1.6232,-1.6381,-1.6225,-1.5888,-1.5642,-1.5466,-1.5323,-1.5221,-1.5242,-1.533,-1.533,-1.533,-1.5316,-1.5215,-1.5126,-1.5091,-1.5091,-1.5091,-1.5112,-1.5153,-1.5181,-1.5181,-1.5181,-1.5221,-1.5309,-1.5513,-1.5791,-1.6173,-1.6571,-1.6282,-1.5971,-1.6251,-1.5966,-1.5796,-1.6401,-1.6807,-1.7154,-1.7805,-1.7915,-1.7915,-1.7915,-1.7915,-1.7915,-1.7915,-1.8002,-1.8145,-1.8301,-1.7873,-1.7492,-1.7226,-1.6483,-1.5842,-1.5382,-1.5154,-1.4979,-1.4979,-1.4979,-1.4979,-1.4979,-1.5222,-1.5418,-1.563,-1.5772,-1.5816,-1.5816,-1.5816,-1.5816,-1.5816,-1.5816,-1.5798,-1.5869,-1.6294,-1.6513,-1.6552,-1.6971,-1.7445,-1.7938,-1.8761,-1.9204,-1.9464,-1.9954,-2.0278,-2.0476,0.0,0.0,0.0,0.0,0.0,0.0,0.0,0.0,-1.2752,-1.3022,0.0,0.0,0.0,0.0,-1.381,-1.3712,-1.4015,-1.4326,-1.457,-1.459,0.0,0.0,0.0,0.0,-1.4821,-1.4821,-1.4672,-1.4373,-1.4672,-1.4916,-1.512,-1.5567,-1.5893,-1.609,-1.6232,-1.613,-1.5888,-1.5649,-1.5472,-1.5323,-1.5221,-1.5276,-1.5411,-1.5411,-1.5445,-1.5472,-1.5371,-1.5276,-1.5187,-1.5133,-1.512,-1.5126,-1.5167,-1.5181,-1.5181,-1.5181,-1.5181,-1.5215,-1.5371,-1.5554,-1.5811,-1.6259,-1.6096,-1.595,-1.6277,-1.6195,-1.6158,-1.6695,-1.7005,-1.7316,-1.7805,-1.7915,-1.7915,-1.7915,-1.7915,-1.7915,-1.7915,-1.8036,-1.8156,-1.8031,-1.7632,-1.7145,-1.6663,-1.6023,-1.5498,-1.5037,-1.4979,-1.4979,-1.4979,-1.4979,-1.5022,-1.5151,-1.5347,-1.5543,-1.5816,-1.5816,-1.5816,-1.5816,-1.5816,-1.5816,-1.5816,-1.611,-1.6227,-1.63,-1.7072,-1.7231,-1.7056,-1.7732,-1.8263,-1.8761,-1.956,-1.984,-1.9904,-2.0349,-2.0476,-2.0476,0.0,0.0,0.0,0.0,0.0,0.0,-1.3257,-1.3324,-1.3324,-1.3318,0.0,0.0,0.0,0.0,0.0,-1.4694,-1.4559,-1.4539,-1.4687,-1.4701,-1.4814,0.0,0.0,-1.5023,-1.5017,-1.5017,-1.4821,-1.4516,-1.4821,-1.5017,-1.503,-1.5425,-1.5587,-1.5593,-1.5778,-1.5888,-1.5867,-1.5533,-1.5323,-1.5187,-1.5187,-1.5282,-1.5418,-1.5425,-1.552,-1.5607,-1.5607,-1.5607,-1.558,-1.5479,-1.5418,-1.5391,-1.5228,-1.5181,-1.5181,-1.5181,-1.5181,-1.5215,0.0,0.0,0.0,-1.5967,-1.574,-1.5551,-1.6021,-1.6234,-1.6421,-1.6746,-1.7254,-1.7684,-1.7881,-1.7915,-1.7915,-1.7915,-1.7915,-1.7915,-1.7915,-1.8124,-1.8088,-1.7464,-1.7083,-1.6663,-1.6081,-1.5382,-1.4979,-1.4979,-1.4979,-1.4979,-1.4979,-1.5037,-1.5151,-1.5434,-1.5565,-1.569,-1.5877,-1.5877,-1.5877,-1.5877,-1.5877,-1.5877,-1.5894,-1.6686,-1.6979,-1.7008,-1.7941,-1.7986,-1.7482,-1.8749,-1.9393,-1.9592,-2.0235,-2.0476,-2.0476,-2.0476,-2.0476,-2.0476,0.0,0.0,0.0,0.0,0.0,-1.3531,-1.3906,-1.3934,-1.4034,0.0,0.0,0.0,-1.4512,-1.4603,-1.4694,-1.4694,-1.4654,-1.474,-1.4896,-1.4909,-1.497,-1.512,-1.5126,-1.5126,-1.5017,-1.5017,-1.4875,-1.4633,-1.4875,-1.5017,-1.5023,-1.5316,-1.5472,-1.5479,-1.5513,-1.5533,-1.5527,-1.5445,-1.5384,-1.535,-1.535,-1.5438,-1.5553,-1.5811,-1.592,-1.5974,-1.6083,-1.6056,-1.5934,-1.5833,-1.5662,-1.5479,-1.5262,-1.5181,-1.5181,-1.5181,-1.5181,-1.5194,-1.5235,0.0,0.0,0.0,0.0,0.0,-1.6335,-1.6589,-1.6855,-1.6936,-1.7311,-1.7609,-1.7649,-1.7792,-1.7915,-1.7915,-1.7915,-1.7915,-1.7915,-1.8124,-1.8088,-1.7464,-1.7083,-1.6663,-1.6081,-1.5382,-1.4979,-1.4979,-1.4979,-1.4979,-1.4979,-1.5529,-1.6125,-1.6763,-1.6887,-1.7024,-1.716,-1.716,-1.716,-1.716,-1.716,-1.7207,-1.7302,-1.7516,-1.7754,-1.7959,-1.8711,-1.8988,-1.8893,-1.928,-1.9737,-2.0235,-2.0412,-2.0476,-2.0476,-2.0476,-2.0476,-2.0476,0.0,0.0,-1.368,-1.4203,-1.4237,-1.4352,-1.4742,-1.4777,-1.4838,0.0,0.0,0.0,-1.5066,-1.5066,-1.5039,-1.4978,-1.4971,-1.5031,-1.5059,-1.5059,-1.5146,-1.5181,-1.5181,-1.5147,-1.5105,-1.5059,-1.4984,-1.4835,-1.4984,-1.5031,-1.5023,-1.5208,-1.5316,-1.5316,-1.5316,-1.5316,-1.5316,-1.5316,-1.535,-1.5418,-1.5479,-1.5635,-1.5852,-1.609,-1.6212,-1.6279,-1.6368,-1.6341,-1.6239,-1.6096,-1.5866,-1.5546,-1.5357,-1.5235,-1.5181,-1.5181,-1.5181,-1.5181,-1.5181,-1.5357,-1.5581,-1.573,0.0,0.0,-1.6463,-1.6659,-1.6842,-1.7032,-1.7324,-1.7521,-1.7575,-1.7772,-1.7915,-1.7915,-1.7915,-1.7915,-1.7915,-1.7893,-1.7697,-1.713,-1.6743,-1.6378,-1.6023,-1.5679,-1.5498,-1.5795,-1.5795,-1.5795,-1.5795,-1.6367,-1.687,-1.7293,-1.7483,-1.7629,-1.7709,-1.7709,-1.7709,-1.7709,-1.7758,-1.7819,-1.7898,-1.8324,-1.8599,-1.8749,-1.9506,-1.9818,-1.9904,-1.9904,-2.0165,-2.0476,-2.0476,-2.0476,-2.0476,-2.0476,-2.0476,-2.0476,0.0,-1.3891,-1.4414,-1.4935,-1.5032,-1.5129,-1.5565,-1.5627,-1.5641,0.0,-1.5641,-1.5641,-1.5641,-1.5627,-1.5608,-1.5472,-1.5445,-1.5377,-1.5242,-1.5235,-1.5235,-1.5235,-1.5215,-1.5208,-1.5208,-1.5194,-1.512,-1.5037,-1.512,-1.512,-1.4997,-1.5126,-1.5181,-1.5181,-1.5181,-1.5181,-1.5181,-1.5181,-1.5282,-1.5452,-1.5601,-1.5839,-1.613,-1.6313,-1.6469,-1.6598,-1.6612,-1.6619,-1.6592,-1.6395,-1.6042,-1.5607,-1.5493,-1.5343,-1.5235,-1.5235,-1.5221,-1.5208,-1.5208,-1.5316,-1.5466,-1.556,-1.5771,0.0,-1.6408,-1.6524,-1.6659,-1.706,-1.7277,-1.7439,-1.7541,-1.7738,-1.7846,-1.7915,-1.7915,-1.7915,-1.7915,-1.7663,-1.7268,-1.6676,-1.6373,-1.6186,-1.6081,-1.6081,-1.632,-1.6838,-1.6902,-1.696,-1.7019,-1.7271,-1.7419,-1.7538,-1.775,-1.7898,-1.7898,-1.7898,-1.7959,-1.7971,-1.8083,-1.8163,-1.8201,-1.8999,-1.9442,-1.9474,-2.0161,-2.0476,-2.0476,-2.0476,-2.0476,-2.0476,-2.0476,-2.0496,-2.056,-2.0539,-2.0496,-2.056,-1.4361,-1.4775,-1.5213,-1.5636,-1.5714,-1.5763,-1.5811,-1.5913,-1.5995,-1.5995,-1.5995,-1.5995,-1.5995,-1.5886,-1.5847,-1.582,-1.5662,-1.5533,-1.5506,-1.5499,-1.5499,-1.5499,-1.5432,-1.5364,-1.5364,-1.5248,-1.5167,-1.514,-1.5167,-1.5167,-1.514,-1.5167,-1.5181,-1.5181,-1.5181,-1.5181,-1.5181,-1.5181,-1.5343,-1.556,-1.575,-1.5995,-1.6307,-1.67,-1.6937,-1.708,-1.7202,-1.7243,-1.7168,-1.6653,-1.6266,-1.5947,-1.5634,-1.5526,-1.5499,-1.5499,-1.5466,-1.5364,-1.5364,-1.5479,-1.5553,-1.5587,-1.5934,0.0,-1.6334,-1.6537,-1.6675,-1.6763,-1.7053,-1.7283,-1.7439,-1.7534,-1.7717,-1.7846,-1.7915,-1.7915,-1.7915,-1.796,-1.7792,-1.7268,-1.7276,-1.7127,-1.6762,-1.6722,-1.678,-1.6902,-1.6902,-1.7135,-1.7581,-1.7927,-1.8318,-1.8794,-1.9126,-1.9299,-1.9299,-1.9299,-1.9352,-1.9459,-1.9492,-1.9632,-1.9809,-1.9988,-2.0144,-2.0245,-2.0455,-2.0476,-2.0476,-2.0476,-2.0476,-2.0476,-2.0476,-2.0614,-2.0716,-2.053,-2.0614,-2.0702,-1.4646,-1.5284,-1.5871,-1.6047,-1.6083,-1.6103,-1.6178,-1.632,-1.6415,-1.6415,-1.6483,-1.653,-1.653,-1.6395,-1.6273,-1.6191,-1.6056,-1.594,-1.5866,-1.5791,-1.5744,-1.5744,-1.5601,-1.5479,-1.5479,-1.5371,-1.5296,-1.5296,-1.5221,-1.5181,-1.5181,-1.5181,-1.5181,-1.5181,-1.5181,-1.5181,-1.5181,-1.5181,-1.5357,-1.56,-1.5798,-1.6076,-1.6449,-1.6748,-1.6998,-1.7202,-1.7277,-1.7304,-1.7249,-1.6876,-1.6551,-1.6259,-1.6042,-1.592,-1.5845,-1.5771,-1.5689,-1.5615,-1.5547,-1.5635,-1.5764,-1.5839,-1.6083,0.0,0.0,-1.6594,-1.6716,-1.6849,-1.7039,-1.7216,-1.729,-1.744,-1.7615,-1.7738,-1.7812,-1.7915,-1.7915,-1.7773,-1.755,-1.7341,-1.7193,-1.7179,-1.7261,-1.733,-1.7478,-1.7839,-1.7839,-1.8001,-1.8298,-1.8575,-1.8913,-1.9203,-1.9501,-1.9725,-1.9725,-1.9793,-1.98,-1.9875,-2.0031,-2.0187,-2.0329,-2.0397,-2.0471,-2.0476,-2.0476,-2.0476,-2.0476,-2.0476,-2.0476,-2.0476,-2.0476,-2.0627,-2.0756,-2.0594,-2.0648,-2.0756,-1.4947,-1.5709,-1.6347,-1.6347,-1.6347,-1.6408,-1.6585,-1.6689,-1.679,-1.6824,-1.6985,-1.7066,-1.7066,-1.6924,-1.6736,-1.6659,-1.6524,-1.6374,-1.6218,-1.6096,-1.6064,-1.603,-1.5818,-1.5723,-1.5723,-1.5547,-1.5438,-1.5411,-1.5289,-1.5208,-1.5181,-1.5181,-1.5181,-1.5181,-1.5215,-1.5208,-1.5187,-1.5248,-1.5411,-1.5607,-1.5825,-1.6164,-1.6592,-1.675,-1.6993,-1.7283,-1.7311,-1.7304,-1.7256,-1.708,-1.6836,-1.6578,-1.6402,-1.6266,-1.6144,-1.6071,-1.599,-1.5928,-1.5791,-1.5832,-1.5983,-1.609,-1.6259,-1.6405,0.0,0.0,0.0,-1.6917,-1.7053,-1.7154,-1.7154,-1.7399,-1.7561,-1.7595,-1.7772,-1.7915,-1.7915,-1.7586,-1.7324,-1.7356,-1.7111,-1.7142,-1.769,-1.7883,-1.8187,-1.8728,-1.88,-1.882,-1.882,-1.904,-1.9203,-1.9203,-1.9501,-1.9739,-1.9759,-1.982,-1.9908,-1.9963,-2.0207,-2.0286,-2.032,-2.0422,-2.0476,-2.0476,-2.0476,-2.0476,-2.0476,-2.0476,-2.0496,-2.0573,-2.0496,-2.0648,-2.079,-2.0648,-2.0702,-2.0845,-1.5814,-1.6123,-1.6497,-1.6497,-1.6497,-1.6598,-1.6883,-1.7046,-1.7188,-1.727,-1.7358,-1.7372,-1.7372,-1.7236,-1.7134,-1.7121,-1.6985,-1.6842,-1.6635,-1.6608,-1.6533,-1.6449,-1.6178,-1.6029,-1.6029,-1.5757,-1.5499,-1.5411,-1.5391,-1.5316,-1.5181,-1.5181,-1.5181,-1.5187,-1.5323,-1.5309,-1.5201,-1.5472,-1.556,-1.5614,-1.594,-1.6327,-1.6827,-1.7188,-1.7399,-1.7561,-1.7738,-1.7704,-1.75,-1.7263,-1.706,-1.6876,-1.6592,-1.6483,-1.6469,-1.6449,-1.6259,-1.6083,-1.6198,-1.6144,-1.609,-1.6246,-1.649,-1.6655,-1.6689,0.0,-1.6917,-1.675,0.0,-1.7005,-1.7005,0.0,0.0,-1.7575,-1.7772,-1.7915,-1.7915,-1.7825,-1.7872,-1.7958,-1.7956,-1.8023,-1.8221,-1.8363,-1.8451,-1.8552,-1.8694,-1.882,-1.882,-1.904,-1.9203,-1.9203,-1.9501,-1.9773,-1.9854,-1.9875,-2.001,-2.0275,-2.0315,-2.0334,-2.0462,-2.0476,-2.0476,-2.0476,-2.0476,-2.0476,-2.0476,-2.0476,-2.0627,-2.0736,-2.0594,-2.0716,-2.0946,-2.0804,-2.0933,-2.1143,-1.6079,-1.634,-1.6601,-1.6601,-1.6601,-1.6754,-1.706,-1.7304,-1.7541,-1.7772,-1.7806,-1.7846,-1.7935,-1.7806,-1.7717,-1.7717,-1.75,-1.7284,-1.7223,-1.7107,-1.6944,-1.6795,-1.6585,-1.6388,-1.6218,-1.6008,-1.5778,-1.554,-1.5452,-1.533,-1.5181,-1.5181,-1.5181,-1.5187,-1.5343,-1.5377,-1.533,-1.5499,-1.5688,-1.592,-1.6218,-1.6558,-1.6904,-1.7093,-1.7365,-1.7615,-1.7812,-1.7772,-1.7575,-1.7446,-1.7358,-1.7195,-1.6978,-1.691,-1.6876,-1.6655,-1.6513,-1.6463,-1.6435,-1.6388,-1.6374,-1.6473,-1.654,-1.6615,-1.6842,-1.6863,-1.6856,-1.6876,0.0,0.0,0.0,0.0,0.0,0.0,-1.7704,-1.7915,-1.7915,-1.7915,-1.7936,-1.8004,-1.8036,-1.8145,-1.8301,-1.8443,-1.8474,-1.8474,-1.8586,-1.8674,-1.8762,-1.904,-1.9203,-1.9203,-1.9501,-1.9732,-1.9875,-1.9963,-2.0119,-2.0329,-2.0354,-2.0422,-2.0476,-2.0476,-2.0476,-2.0476,-2.0476,-2.0476,-2.0539,-2.0627,-2.0716,-2.077,-2.0804,-2.0933,-2.1109,-2.0967,-2.1034,-2.1197,-1.6491,-1.6596,-1.6709,-1.675,-1.673,-1.6811,-1.7202,-1.7548,-1.7846,-1.8057,-1.8158,-1.8247,-1.8319,-1.8321,-1.8267,-1.8267,-1.8036,-1.7805,-1.7717,-1.7521,-1.7297,-1.7107,-1.6917,-1.6714,-1.6497,-1.6266,-1.6015,-1.5764,-1.5608,-1.5432,-1.5248,-1.5248,-1.5221,-1.5194,-1.5384,-1.5472,-1.5486,-1.5723,-1.5947,-1.6171,-1.651,-1.6876,-1.7222,-1.7182,-1.7439,-1.7791,-1.7901,-1.786,-1.7758,-1.7663,-1.7609,-1.7453,-1.7304,-1.7256,-1.7216,-1.6946,-1.6851,-1.6804,-1.6788,-1.6707,-1.6686,-1.6784,-1.6675,-1.6653,-1.6924,-1.6863,-1.6743,-1.6951,-1.6978,0.0,0.0,0.0,-1.7433,-1.7473,0.0,-1.7915,-1.7915,-1.7915,-1.7915,-1.7915,-1.7968,-1.8077,-1.8179,-1.8321,-1.8423,-1.842,-1.8454,-1.8599,-1.8762,-1.904,-1.9203,-1.9203,-1.9535,-1.9848,-1.9929,-2.0085,-2.0241,-2.0383,-2.0422,-2.0476,-2.0476,-2.058,-2.0614,-2.0614,-2.0648,-2.0661,-2.0618,-2.079,-2.0858,-2.0899,-2.1021,-2.1143,-2.1265,-2.1109,-2.1143,-2.1265,-1.7379,-1.7,-1.6743,-1.6944,-1.6849,-1.6844,-1.7344,-1.7792,-1.8077,-1.8091,-1.8335,-1.8511,-1.8474,-1.8654,-1.88,-1.88,-1.8599,-1.8332,-1.8091,-1.7935,-1.7704,-1.7419,-1.7127,-1.6971,-1.6958,-1.653,-1.6225,-1.6069,-1.5962,-1.5738,-1.5404,-1.5404,-1.5323,-1.5194,-1.5499,-1.5587,-1.5614,-1.6103,-1.6293,-1.6341,-1.6788,-1.7317,-1.7826,-1.7629,-1.7859,-1.8287,-1.8145,-1.8077,-1.8057,-1.7956,-1.7758,-1.7561,-1.746,-1.7412,-1.7412,-1.7399,-1.7297,-1.7209,-1.7351,-1.7182,-1.6998,-1.7141,-1.6958,-1.673,-1.6944,-1.6863,-1.6743,-1.6951,-1.6978,-1.7026,-1.7161,-1.7311,-1.7412,-1.7561,-1.7772,0.0,0.0,-1.7915,-1.7915,-1.7915,-1.7915,-1.7936,-1.7936,-1.8023,-1.8165,-1.8321,-1.8407,-1.8599,-1.8762,-1.904,-1.9203,-1.9203,-1.9624,-1.9942,-2.0085,-2.0241,-2.0334,-2.0476,-2.0476,-2.0476,-2.0539,-2.0702,-2.077,-2.077,-2.0933,-2.098,-2.098,-2.098,-2.1068,-2.1197,-2.1211,-2.1299,-2.1355,-2.1265,-2.1299,-2.1375,-1.7527,-1.7311,-1.7148,-1.7005,-1.7019,-1.7195,-1.765,-1.7935,-1.8199,-1.8498,-1.8708,-1.8905,-1.9056,-1.9271,-1.9371,-1.9217,-1.9061,-1.885,-1.8609,-1.8389,-1.8179,-1.788,-1.767,-1.7426,-1.7127,-1.6883,-1.653,-1.6083,-1.6029,-1.5852,-1.5512,-1.5512,-1.5533,-1.5493,-1.5689,-1.5893,-1.6103,-1.6347,-1.6619,-1.6931,-1.7385,-1.7812,-1.8145,-1.788,-1.8002,-1.8265,-1.8267,-1.8247,-1.8233,-1.8179,-1.8124,-1.8001,-1.7792,-1.7724,-1.767,-1.748,-1.7385,-1.7351,-1.7405,-1.7351,-1.7283,-1.7331,-1.7121,-1.6944,-1.7087,-1.7005,-1.6944,-1.7087,-1.7202,-1.729,-1.7331,-1.7412,-1.7534,-1.7595,-1.7772,-1.7915,0.0,-1.7915,-1.7915,-1.7915,-1.8004,-1.8024,-1.7936,-1.8002,-1.8111,-1.8158,-1.8301,-1.8464,-1.8599,-1.8993,-1.9257,-1.9345,-1.9698,-1.9997,-2.0241,-2.0246,-2.0397,-2.0476,-2.0476,-2.0594,-2.0702,-2.0756,-2.0824,-2.0933,-2.098,-2.1001,-2.1001,-2.1109,-2.1177,-2.1231,-2.1319,-2.1387,-2.1375,-2.1321,-2.1387,-2.1375,-1.7738,-1.7602,-1.7426,-1.7182,-1.7256,-1.7467,-1.7868,-1.8077,-1.8389,-1.8796,-1.9115,-1.9393,-1.9644,-1.98,-1.9854,-1.9705,-1.9522,-1.9257,-1.9006,-1.8816,-1.8565,-1.8267,-1.8111,-1.7846,-1.7439,-1.7236,-1.6897,-1.6402,-1.6347,-1.6164,-1.5823,-1.5818,-1.5764,-1.5723,-1.5866,-1.6103,-1.6395,-1.6598,-1.6944,-1.7392,-1.7792,-1.8124,-1.8375,-1.8179,-1.8253,-1.8464,-1.8409,-1.8389,-1.8389,-1.8389,-1.8355,-1.8287,-1.8091,-1.8023,-1.7989,-1.7792,-1.7738,-1.7738,-1.7738,-1.7704,-1.767,-1.767,-1.7399,-1.7175,-1.7324,-1.7243,-1.7195,-1.7392,-1.7467,-1.7534,-1.7629,-1.7595,-1.7609,-1.7717,-1.7812,-1.7915,0.0,-1.7915,-1.7915,-1.7915,-1.8004,-1.7968,-1.7936,-1.8004,-1.8036,-1.8091,-1.8179,-1.8321,-1.8511,-1.8905,-1.9217,-1.9367,-1.9766,-2.0085,-2.0329,-2.032,-2.0471,-2.0627,-2.0627,-2.0702,-2.0858,-2.0912,-2.098,-2.1068,-2.1143,-2.1157,-2.1157,-2.1245,-2.1299,-2.1299,-2.1341,-2.1375,-2.1375,-2.1375,-2.1375,-2.1375,-1.797,-1.7772,-1.7575,-1.7494,-1.7521,-1.7663,-1.7936,-1.8267,-1.8654,-1.8972,-1.9522,-1.9942,-2.0098,-2.0261,-2.03,-2.0349,-1.9963,-1.9644,-1.9468,-1.9203,-1.8905,-1.8586,-1.8443,-1.8213,-1.7956,-1.7609,-1.7304,-1.7005,-1.679,-1.656,-1.6327,-1.6171,-1.6064,-1.5928,-1.6029,-1.6259,-1.6564,-1.6863,-1.7256,-1.7649,-1.7989,-1.8287,-1.8474,-1.8531,-1.864,-1.8762,-1.8599,-1.8494,-1.8494,-1.8494,-1.8464,-1.8355,-1.8335,-1.8355,-1.8355,-1.8335,-1.8335,-1.8335,-1.8335,-1.8233,-1.8124,-1.8124,-1.7792,-1.7514,-1.7609,-1.7527,-1.7555,-1.7881,-1.7792,-1.7717,-1.8036,-1.786,-1.7663,-1.7846,-1.7915,-1.7915,-1.7915,-1.7915,-1.7915,-1.7915,-1.7915,-1.7915,-1.7915,-1.7915,-1.797,-1.8077,-1.8091,-1.8213,-1.8454,-1.8816,-1.9128,-1.9434,-1.9875,-2.0173,-2.0286,-2.0422,-2.0627,-2.077,-2.0834,-2.0858,-2.1021,-2.1157,-2.1211,-2.1231,-2.1367,-2.1375,-2.1375,-2.1375,-2.1375,-2.1375,-2.1375,-2.1375,-2.1375,-2.1375,-2.1375,-2.1375,-1.8233,-1.8179,-1.8089,-1.8091,-1.7935,-1.7968,-1.8464,-1.8677,-1.8884,-1.9473,-1.982,-2.0139,-2.0397,-2.0668,-2.079,-2.0668,-2.0451,-2.0207,-1.9942,-1.9746,-1.9522,-1.9157,-1.9061,-1.8776,-1.8375,-1.807,-1.7717,-1.7311,-1.7046,-1.6822,-1.6581,-1.6374,-1.6232,-1.6191,-1.6232,-1.6476,-1.6876,-1.706,-1.7467,-1.8002,-1.8301,-1.8464,-1.8494,-1.8654,-1.8796,-1.8918,-1.8884,-1.8864,-1.8864,-1.8864,-1.8918,-1.8938,-1.8728,-1.8728,-1.8796,-1.8674,-1.8654,-1.8654,-1.8654,-1.8677,-1.8643,-1.8643,-1.8409,-1.8247,-1.8244,-1.8267,-1.8233,-1.8213,-1.8247,-1.821,-1.8124,-1.8023,-1.7948,-1.7936,-1.7915,-1.7915,-1.7915,-1.7915,-1.7915,-1.7915,-1.7915,-1.7915,-1.7915,-1.7915,-1.7936,-1.797,-1.8023,-1.8179,-1.8319,-1.8762,-1.9183,-1.959,-1.9922,-2.0227,-2.0422,-2.0627,-2.0736,-2.077,-2.0892,-2.1021,-2.1157,-2.1197,-2.1279,-2.1321,-2.1421,-2.1375,-2.1375,-2.1375,-2.1375,-2.1375,-2.1375,-2.1375,-2.1375,-2.1375,-2.1375,-2.1375,-1.8552,-1.8511,-1.8531,-1.8599,-1.8518,-1.8552,-1.8816,-1.8972,-1.9271,-1.9875,-2.0207,-2.0505,-2.0804,-2.098,-2.1055,-2.0967,-2.077,-2.058,-2.0404,-2.0241,-2.0031,-1.9732,-1.9644,-1.9359,-1.883,-1.8599,-1.8233,-1.7717,-1.7419,-1.7161,-1.6937,-1.6571,-1.6402,-1.6402,-1.6402,-1.6578,-1.691,-1.7385,-1.7826,-1.8213,-1.8511,-1.8674,0.0,-1.883,-1.8959,-1.9094,-1.9169,-1.9128,-1.9081,-1.9081,-1.9128,-1.9169,-1.9006,-1.9006,-1.9061,-1.8972,-1.8959,-1.8959,-1.8959,-1.8959,-1.8959,-1.8959,-1.885,-1.8728,-1.8728,-1.8728,-1.8708,-1.864,-1.862,-1.8565,-1.8321,-1.8179,-1.8036,-1.7936,-1.7915,-1.7915,-1.7915,-1.7915,-1.7915,-1.7915,-1.7915,-1.7915,-1.7915,-1.7915,-1.7915,-1.7915,-1.7948,-1.8057,-1.8213,-1.8586,-1.8993,-1.9447,-1.982,-2.0153,-2.0388,-2.0668,-2.0811,-2.0878,-2.1021,-2.1177,-2.1319,-2.1319,-2.1353,-2.1375,-2.1375,-2.1375,-2.1375,-2.1375,-2.1375,-2.1375,-2.1375,-2.1375,-2.1375,-2.1375,-2.1375,-2.1375,-1.8884,-1.8909,-1.8943,-1.9027,-1.9183,-1.9271,-1.9203,-1.9379,-1.9732,-2.0315,-2.0627,-2.0912,-2.1177,-2.1231,-2.1245,-2.1245,-2.098,-2.0824,-2.0824,-2.0682,-2.0471,-2.0207,-2.0173,-1.9888,-1.9305,-1.9115,-1.8728,-1.8145,-1.7751,-1.7446,-1.7209,-1.6741,-1.6524,-1.6524,-1.6524,-1.6588,-1.6838,-1.7738,-1.8179,-1.8355,-1.8654,-1.8929,-1.8993,-1.9006,-1.9115,-1.9257,-1.9379,-1.9345,-1.9237,-1.9237,-1.9257,-1.9291,-1.9271,-1.9291,-1.9325,-1.9325,-1.9325,-1.9325,-1.9325,-1.9325,-1.9325,-1.9325,-1.9217,-1.9128,-1.9115,-1.9115,-1.9094,-1.9061,-1.8918,-1.8762,-1.8599,-1.8301,-1.8036,-1.7936,-1.7915,-1.7915,-1.7915,-1.7915,-1.7915,-1.7915,-1.7915,0.0,-1.7915,-1.7915,-1.7915,-1.7915,-1.7915,-1.7935,-1.8091,-1.8375,-1.8742,-1.9183,-1.9644,-2.001,-2.0329,-2.0648,-2.0878,-2.1001,-2.1157,-2.1319,-2.1375,-2.1375,-2.1375,-2.1375,-2.1375,-2.1375,-2.1375,-2.1375,-2.1375,-2.1375,-2.1375,-2.1375,-2.1375,-2.1375,-2.1375,-2.1375,-1.9345,-1.9305,-1.9325,-1.9345,-1.9569,-1.9875,-2.0158,-2.0098,-2.0153,-2.0627,-2.0845,-2.1021,-2.1197,-2.1319,-2.1341,-2.1341,-2.1231,-2.1143,-2.1143,-2.1001,-2.0845,-2.0668,-2.0526,-2.0241,-1.9766,-1.9359,-1.8938,-1.8407,-1.7859,-1.75,-1.7365,-1.6788,-1.6524,-1.6524,-1.6524,-1.6815,-1.7284,-1.786,-1.8179,-1.8355,-1.8782,-1.8972,-1.9006,-1.9115,-1.9257,-1.9393,-1.9413,-1.9353,-1.9333,-1.9333,-1.9556,-1.9732,-1.9624,-1.9746,-1.9942,-1.9942,-1.9942,-1.9942,-1.9942,-1.9942,-1.9942,-1.9942,-1.9922,-1.9875,-1.9752,-1.9712,-1.9644,-1.9393,-1.9237,-1.904,-1.8782,-1.8375,-1.8036,-1.7936,-1.7915,-1.7915,-1.7915,-1.7915,-1.7915,-1.7915,-1.7915,-1.7915,-1.7915,-1.7915,-1.7915,-1.7915,-1.7915,-1.7935,-1.8091,-1.8375,-1.8742,-1.9183,-1.9644,-2.001,-2.0329,-2.0756,-2.0967,-2.1001,-2.1265,-2.1355,-2.1375,-2.1375,-2.1375,-2.1375,-2.1375,-2.1375,-2.1375,-2.1375,-2.1375,-2.1375,-2.1375,-2.1375,-2.1375,-2.1375,-2.1375,-2.1375,-1.9786,-1.9786,-1.98,-1.9827,-2.0139,-2.0471,-2.0838,-2.0912,-2.1001,-2.1211,-2.1299,-2.1374,-2.1441,-2.1584,-2.1638,-2.1564,-2.1564,-2.153,-2.1462,-2.1387,-2.1245,-2.1021,-2.0933,-2.0682,-2.0227,-1.9854,-1.9413,-1.8884,-1.8287,-1.7791,-1.7473,-1.7005,-1.672,-1.6594,-1.6727,-1.7053,-1.7507,-1.7935,-1.8267,-1.8565,-1.8871,-1.9081,-1.9217,-1.9291,-1.9413,-1.9556,-1.9556,-1.9556,-1.9556,-1.9556,-1.9698,-1.9916,-1.9848,-1.9922,-2.0098,-2.0098,-2.0098,-2.0098,-2.0098,-2.0098,-2.0098,-2.0098,-2.0098,-2.0085,-2.001,-1.9929,-1.9834,-1.9698,-1.9481,-1.9203,-1.883,-1.8518,-1.8267,-1.8124,-1.8091,-1.8091,-1.8091,-1.8036,-1.7989,-1.7989,-1.7914,-1.7915,-1.7915,-1.7915,-1.7915,-1.7915,-1.7915,-1.7956,-1.7968,-1.8179,-1.8511,-1.8959,-1.9413,-1.982,-2.0207,-2.0736,-2.1001,-2.1001,-2.1299,-2.1375,-2.1375,-2.1375,-2.1375,-2.1375,-2.1375,-2.1375,-2.1375,-2.1375,-2.1375,-2.1375,-2.1375,-2.1375,-2.1375,-2.1375,-2.1375,-2.1375,-2.0227,-2.0275,-2.0329,-2.0451,-2.0716,-2.1021,-2.1319,-2.1618,-2.1794,-2.1726,-2.1726,-2.1706,-2.1672,-2.1794,-2.1828,-2.1686,-2.1794,-2.1828,-2.1726,-2.1692,-2.1564,-2.1319,-2.1245,-2.1034,-2.0584,-2.0315,-1.9854,-1.9257,-1.8654,-1.8089,-1.7629,-1.7202,-1.6917,-1.6757,-1.6992,-1.7304,-1.7663,-1.8036,-1.8409,-1.8841,-1.8993,-1.9237,-1.9481,-1.9522,-1.9624,-1.9814,-1.9814,-1.9814,-1.9814,-1.9814,-1.9841,-1.9929,-1.9963,-2.0064,-2.0187,-2.0187,-2.0187,-2.0187,-2.0187,-2.0187,-2.0187,-2.0187,-2.0187,-2.0187,-2.0153,-2.0051,-1.9942,-1.9888,-1.9644,-1.9305,-1.8884,-1.8708,-1.8586,-1.8443,-1.8409,-1.8409,-1.8375,-1.8267,-1.8158,-1.8091,-1.7989,-1.7956,-1.7915,-1.7915,-1.7936,-1.7914,-1.7914,-1.7914,-1.7914,-1.8057,-1.8321,-1.8708,-1.9149,-1.961,-2.0098,-2.0668,-2.098,-2.1055,-2.1319,-2.1375,-2.1375,-2.1375,-2.1375,-2.1375,-2.1375,-2.1375,-2.1375,-2.1375,-2.1455,-2.1496,-2.1496,-2.1496,-2.1496,-2.1496,-2.1409,-2.1375,-2.0702,-2.0824,-2.0912,-2.0933,-2.1177,-2.1475,-2.1774,-2.2079,-2.2181,-2.1903,-2.1862,-2.1815,-2.1686,-2.1794,-2.1828,-2.1686,-2.1794,-2.1882,-2.1862,-2.174,-2.1719,-2.1638,-2.1353,-2.1123,-2.0967,-2.0526,-2.001,-1.9353,-1.8758,-1.8287,-1.7881,-1.7249,-1.6971,-1.6971,-1.7256,-1.7555,-1.7915,-1.8301,-1.8599,-1.8854,-1.9217,-1.9481,-1.9664,-1.9786,-1.9922,-2.0064,-2.0064,-2.0064,-2.0064,-2.0064,-2.0064,-2.0098,-2.0241,-2.032,-2.0442,-2.0442,-2.0442,-2.0442,-2.0442,-2.0442,-2.0442,-2.0442,-2.0442,-2.0408,-2.0329,-2.0295,-2.0207,-1.9929,-1.9644,-1.9279,-1.9027,-1.8959,-1.8905,-1.8742,-1.8728,-1.8674,-1.8531,-1.8498,-1.8389,-1.8124,-1.8077,-1.8023,-1.7936,-1.7915,-1.797,-1.8057,-1.8077,-1.8077,-1.8077,-1.8213,-1.8375,-1.8494,-1.8993,-1.9501,-2.0098,-2.056,-2.0933,-2.1197,-2.1353,-2.1375,-2.1375,-2.1375,-2.1375,-2.1375,-2.1375,-2.1375,-2.1375,-2.1375,-2.153,-2.1652,-2.1652,-2.1652,-2.1652,-2.1652,-2.1564,-2.1375,-2.1177,-2.1299,-2.1421,-2.1509,-2.1774,-2.2038,-2.2255,-2.2466,-2.2567,-2.2445,-2.2344,-2.2201,-2.195,-2.2072,-2.2093,-2.195,-2.2072,-2.2113,-2.2025,-2.1971,-2.1903,-2.1794,-2.1686,-2.1509,-2.1265,-2.0912,-2.0438,-1.9834,-1.9237,-1.8708,-1.8247,-1.7793,-1.7467,-1.7399,-1.7792,-1.807,-1.8287,-1.8654,-1.8993,-1.9371,-1.9501,-1.9712,-1.9929,-1.9997,-2.0051,-2.0098,-2.0098,-2.0098,-2.0119,-2.0207,-2.0241,-2.0241,-2.0246,-2.0374,-2.0476,-2.0476,-2.0476,-2.0476,-2.0476,-2.0476,-2.0476,-2.0476,-2.0476,-2.0462,-2.0408,-2.0383,-2.0295,-2.0173,-1.9908,-1.9657,-1.9535,-1.9379,-1.9237,-1.9169,-1.9081,-1.9006,-1.8938,-1.8776,-1.862,-1.8518,-1.8253,-1.8077,-1.8002,-1.797,-1.7935,-1.8077,-1.8002,-1.8044,-1.8091,-1.8057,-1.8233,-1.8654,-1.9006,-1.9535,-2.0227,-2.0682,-2.1021,-2.1211,-2.1367,-2.1375,-2.1375,-2.1375,-2.1375,-2.1375,-2.1375,-2.1375,-2.1375,-2.1375,-2.1475,-2.153,-2.153,-2.153,-2.153,-2.153,-2.1496,-2.1375,-2.1639,-2.1828,-2.2025,-2.2059,-2.2289,-2.25,-2.2608,-2.2744,-2.2832,-2.2784,-2.273,-2.2554,-2.2215,-2.2269,-2.2269,-2.2127,-2.2249,-2.2289,-2.2181,-2.2127,-2.2059,-2.195,-2.1903,-2.176,-2.1509,-2.1265,-2.0845,-2.0227,-1.9712,-1.9217,-1.8728,-1.8321,-1.8077,-1.7947,-1.8389,-1.8654,-1.8816,-1.9115,-1.9434,-1.9732,-1.9827,-1.9942,-2.0173,-2.0173,-2.0187,-2.0227,-2.0227,-2.0227,-2.0241,-2.0349,-2.0334,-2.0334,-2.0334,-2.0388,-2.0476,-2.0476,-2.051,-2.0614,-2.0614,-2.0614,-2.0614,-2.0614,-2.051,-2.0476,-2.0476,-2.0408,-2.032,-2.0329,-2.0119,-1.9942,-1.9942,-1.9766,-1.9624,-1.9624,-1.9501,-1.9379,-1.9345,-1.9081,-1.885,-1.8708,-1.8375,-1.8124,-1.8036,-1.7935,-1.7935,-1.8077,-1.8004,-1.8004,-1.8145,-1.8057,-1.8233,-1.88,-1.9047,-1.9569,-2.0266,-2.0736,-2.1055,-2.1279,-2.1321,-2.1375,-2.1375,-2.1375,-2.1375,-2.1375,-2.1375,-2.1375,-2.1375,-2.1375,-2.1409,-2.1509,-2.1509,-2.1509,-2.1509,-2.1509,-2.1475,-2.1375,-2.2323,-2.2445,-2.2603,-2.2624,-2.2676,-2.2784,-2.2784,-2.2907,-2.2961,-2.2798,-2.2907,-2.2832,-2.2322,-2.2268,-2.2269,-2.2127,-2.2249,-2.2268,-2.2268,-2.2201,-2.2113,-2.2113,-2.1971,-2.1815,-2.1672,-2.1509,-2.1078,-2.0476,-2.0241,-1.9786,-1.9183,-1.8943,-1.88,-1.882,-1.9061,-1.9271,-1.9434,-1.9732,-1.9875,-1.9888,-2.0031,-2.0187,-2.0329,-2.0329,-2.0354,-2.0476,-2.0476,-2.0476,-2.0476,-2.0476,-2.0476,-2.0476,-2.0476,-2.0476,-2.0476,-2.0476,-2.0648,-2.077,-2.077,-2.077,-2.077,-2.077,-2.0648,-2.0476,-2.0476,-2.0476,-2.0442,-2.03,-2.0207,-2.0098,-2.0098,-2.0098,-2.0098,-2.0098,-1.9963,-1.982,-1.9739,-1.94,-1.9027,-1.8586,-1.8409,-1.8199,-1.7956,-1.7915,-1.7935,-1.8077,-1.8004,-1.8002,-1.8301,-1.8321,-1.8443,-1.88,-1.9047,-1.9569,-2.0266,-2.0627,-2.1001,-2.1375,-2.1375,-2.1375,-2.1375,-2.1375,-2.1375,-2.1375,-2.1375,-2.1375,-2.1375,-2.1375,-2.153,-2.1672,-2.1672,-2.1672,-2.1672,-2.1672,-2.1564,-2.1375,-2.2642,-2.2764,-2.2873,-2.2873,-2.2995,-2.3083,-2.3083,-2.3117,-2.313,-2.3083,-2.3042,-2.2954,-2.2818,-2.271,-2.2588,-2.2432,-2.2466,-2.2445,-2.2337,-2.2289,-2.2269,-2.2269,-2.2215,-2.2079,-2.1815,-2.1672,-2.1353,-2.0858,-2.0539,-2.0098,-1.9522,-1.9473,-1.9325,-1.9237,-1.9644,-1.9834,-1.9908,-2.0207,-2.0383,-2.0492,-2.0539,-2.0648,-2.079,-2.079,-2.0804,-2.0845,-2.0736,-2.0702,-2.0682,-2.0573,-2.0614,-2.0702,-2.0702,-2.0702,-2.0702,-2.0702,-2.0804,-2.0933,-2.0933,-2.0933,-2.0933,-2.0933,-2.0892,-2.0858,-2.0858,-2.077,-2.0648,-2.0442,-2.03,-2.0232,-2.0383,-2.0241,-2.0139,-2.0241,-2.0051,-1.9916,-1.982,-1.9447,-1.9115,-1.8864,-1.8531,-1.8233,-1.8036,-1.797,-1.7936,-1.7935,-1.7901,-1.8002,-1.8301,-1.8321,-1.8552,-1.9047,-1.9447,-1.9976,-2.0627,-2.0933,-2.1197,-2.1375,-2.1375,-2.1375,-2.1375,-2.1375,-2.1375,-2.1375,-2.1375,-2.1375,-2.1375,-2.1375,-2.1409,-2.1509,-2.1509,-2.1509,-2.1509,-2.1509,-2.1475,-2.1375,-2.2961,-2.3029,-2.3117,-2.3171,-2.3187,-2.3327,-2.3381,-2.3395,-2.3395,-2.3395,-2.3273,-2.3171,-2.3171,-2.3042,-2.2832,-2.2644,-2.2624,-2.25,-2.2288,-2.2268,-2.2268,-2.2268,-2.2268,-2.2201,-2.1882,-2.1794,-2.153,-2.1089,-2.077,-2.0438,-2.0085,-2.0017,-1.9976,-1.9942,-2.0227,-2.0383,-2.0451,-2.0627,-2.077,-2.0858,-2.0858,-2.0912,-2.1001,-2.1001,-2.1001,-2.098,-2.0892,-2.0858,-2.0845,-2.075,-2.077,-2.0858,-2.0858,-2.0892,-2.0933,-2.0878,-2.0967,-2.1089,-2.1089,-2.1089,-2.1089,-2.1089,-2.1034,-2.1001,-2.1001,-2.0878,-2.0736,-2.0648,-2.0505,-2.0374,-2.0462,-2.0383,-2.0295,-2.0334,-2.0153,-1.9942,-1.9936,-1.9488,-1.9115,-1.885,-1.8565,-1.8321,-1.8111,-1.8057,-1.8036,-1.8036,-1.8036,-1.8165,-1.8464,-1.8423,-1.8687,-1.9359,-1.9752,-2.0241,-2.0858,-2.1089,-2.1285,-2.1375,-2.1375,-2.1375,-2.1375,-2.1375,-2.1375,-2.1375,-2.1375,-2.1375,-2.1375,-2.1375,-2.1375,-2.1375,-2.1375,-2.1375,-2.1375,-2.1375,-2.1375,-2.1375,-2.3273,-2.3259,-2.3293,-2.3436,-2.3397,-2.3451,-2.3666,-2.368,-2.368,-2.368,-2.3537,-2.3377,-2.3377,-2.3307,-2.3049,-2.2692,-2.2658,-2.252,-2.2378,-2.2308,-2.2357,-2.2288,-2.2288,-2.2215,-2.1903,-2.1903,-2.1686,-2.1245,-2.0946,-2.0811,-2.0804,-2.0648,-2.0648,-2.079,-2.079,-2.0878,-2.1021,-2.1021,-2.1034,-2.1034,-2.1034,-2.1034,-2.1034,-2.1034,-2.1034,-2.1034,-2.1021,-2.1021,-2.1021,-2.1001,-2.1001,-2.1021,-2.1021,-2.1109,-2.1197,-2.1055,-2.1123,-2.1231,-2.1231,-2.1231,-2.1231,-2.1231,-2.1123,-2.1034,-2.1021,-2.0912,-2.0811,-2.079,-2.0668,-2.051,-2.0496,-2.0496,-2.0496,-2.0462,-2.0295,-2.0051,-1.9936,-1.9481,-1.904,-1.8542,-1.8531,-1.8423,-1.8124,-1.8233,-1.8321,-1.8321,-1.8335,-1.8464,-1.882,-1.8654,-1.8938,-1.9725,-1.9997,-2.0417,-2.1021,-2.1157,-2.1299,-2.1375,-2.1375,-2.1375,-2.1375,-2.1375,-2.1375,-2.1375,-2.1375,-2.1375,-2.1375,-2.1375,-2.1375,-2.1375,-2.1375,-2.1375,-2.1375,-2.1375,-2.1375,-2.1375,-2.3578,-2.3578,-2.3578,-2.3626,-2.3626,-2.3646,-2.368,-2.368,-2.368,-2.368,-2.3537,-2.3377,-2.3377,-2.3307,-2.313,-2.292,-2.2907,-2.2832,-2.2696,-2.2676,-2.2622,-2.25,-2.25,-2.2357,-2.2059,-2.2059,-2.1903,-2.1564,-2.1265,-2.1109,-2.1109,-2.0967,-2.0912,-2.0946,-2.1055,-2.1123,-2.1177,-2.1279,-2.1333,-2.1333,-2.1333,-2.1333,-2.1333,-2.1333,-2.1333,-2.1319,-2.1211,-2.1157,-2.1143,-2.1034,-2.1068,-2.1157,-2.1157,-2.1265,-2.1353,-2.1211,-2.1265,-2.1321,-2.1321,-2.1321,-2.1321,-2.1321,-2.1353,-2.1299,-2.1197,-2.1143,-2.1068,-2.0967,-2.0912,-2.0858,-2.0736,-2.0716,-2.0648,-2.0417,-2.0227,-2.001,-1.9752,-1.9413,-1.9081,-1.8742,-1.8599,-1.8407,-1.8287,-1.8301,-1.8321,-1.8321,-1.8366,-1.862,-1.8918,-1.9115,-1.9447,-1.9976,-2.0404,-2.079,-2.1157,-2.1319,-2.1341,-2.1375,-2.1375,-2.1375,-2.1375,-2.1375,-2.1375,-2.1375,-2.1375,-2.1375,-2.1375,-2.1375,-2.1375,-2.1375,-2.1375,-2.1375,-2.1375,-2.1375,-2.1375,-2.1375,-2.37,-2.368,-2.37,-2.3768,-2.3768,-2.3802,-2.3877,-2.3877,-2.3877,-2.3877,-2.3748,-2.3626,-2.3558,-2.3415,-2.3273,-2.3117,-2.3049,-2.294,-2.2798,-2.2784,-2.2744,-2.2656,-2.2658,-2.2445,-2.2215,-2.2147,-2.1971,-2.1672,-2.1441,-2.1319,-2.1319,-2.1231,-2.1197,-2.1211,-2.1279,-2.1319,-2.1319,-2.1341,-2.1375,-2.1375,-2.1375,-2.1375,-2.1375,-2.1375,-2.1375,-2.1421,-2.1353,-2.1319,-2.1299,-2.1231,-2.1245,-2.1319,-2.1319,-2.1367,-2.1421,-2.1333,-2.1367,-2.1375,-2.1375,-2.1375,-2.1375,-2.1375,-2.1375,-2.1355,-2.1333,-2.1265,-2.1197,-2.1109,-2.1055,-2.0946,-2.0804,-2.077,-2.0682,-2.032,-2.0139,-1.9888,-1.959,-1.9291,-1.8993,-1.8694,-1.8708,-1.8687,-1.8531,-1.864,-1.8728,-1.8728,-1.8864,-1.904,-1.9291,-1.9644,-1.9976,-2.0295,-2.0614,-2.0946,-2.1319,-2.1341,-2.1375,-2.1375,-2.1375,-2.1375,-2.1375,-2.1375,-2.1375,-2.1375,-2.1375,-2.1375,-2.1375,-2.1375,-2.1375,-2.1375,-2.1375,-2.1375,-2.1375,-2.1375,-2.1375,-2.1375,-2.3768,-2.3754,-2.3788,-2.391,-2.3931,-2.3965,-2.41,-2.4121,-2.4121,-2.4121,-2.3978,-2.3843,-2.3734,-2.3571,-2.3415,-2.3273,-2.3151,-2.3008,-2.2852,-2.2852,-2.2832,-2.2818,-2.2696,-2.2534,-2.2378,-2.2201,-2.1971,-2.1706,-2.155,-2.1455,-2.1375,-2.1375,-2.1375,-2.1375,-2.1375,-2.1375,-2.1375,-2.1375,-2.1375,-2.1375,-2.1375,-2.1375,-2.1375,-2.1375,-2.1375,-2.1375,-2.1375,-2.1375,-2.1375,-2.1375,-2.1375,-2.1375,-2.1375,-2.1375,-2.1375,-2.1375,-2.1375,-2.1375,-2.1375,-2.1375,-2.1375,-2.1375,-2.1375,-2.1375,-2.1375,-2.1333,-2.1245,-2.1245,-2.1157,-2.1021,-2.0845,-2.079,-2.0668,-2.0349,-2.0031,-1.9732,-1.9434,-1.9169,-1.8905,-1.864,-1.885,-1.8972,-1.8929,-1.9115,-1.9271,-1.9271,-1.9413,-1.9569,-1.9752,-2.0139,-2.0388,-2.0627,-2.077,-2.1034,-2.1375,-2.1375,-2.1375,-2.1375,-2.1375,-2.1375,-2.1375,-2.1375,-2.1375,-2.1375,-2.1375,-2.1375,-2.1375,-2.1375,-2.1375,-2.1375,-2.1455,-2.1455,-2.1375,-2.1455,-2.1455,-2.1375,-2.4053,-2.4053,-2.4066,-2.4087,-2.4087,-2.4087,-2.4121,-2.4121,-2.4121,-2.4121,-2.3978,-2.389,-2.3856,-2.3734,-2.3578,-2.3363,-2.3323,-2.3307,-2.3171,-2.3151,-2.3097,-2.2974,-2.2961,-2.2798,-2.259,-2.2255,-2.2025,-2.1848,-2.1706,-2.1564,-2.1375,-2.1375,-2.1375,-2.1375,-2.1375,-2.1375,-2.1375,-2.1375,-2.1375,-2.1375,-2.1375,-2.1375,-2.1375,-2.1375,-2.1375,-2.1375,-2.1375,-2.1375,-2.1375,-2.1375,-2.1375,-2.1375,-2.1375,-2.1375,-2.1375,-2.1375,-2.1375,-2.1375,-2.1375,-2.1375,-2.1375,-2.1375,-2.1375,-2.1375,-2.1375,-2.1355,-2.1341,-2.1341,-2.1321,-2.1279,-2.1021,-2.0858,-2.0627,-2.0207,-1.9888,-1.959,-1.9271,-1.9094,-1.8972,-1.8918,-1.9061,-1.9203,-1.9325,-1.9488,-1.959,-1.959,-1.9732,-1.9922,-2.0207,-2.0397,-2.0638,-2.1089,-2.1123,-2.1245,-2.1375,-2.1375,-2.1375,-2.1375,-2.1375,-2.1375,-2.1375,-2.1375,-2.1375,-2.1375,-2.1375,-2.1375,-2.1375,-2.1375,-2.1375,-2.1389,-2.1584,-2.155,-2.1389,-2.1584,-2.155,-2.1375,-2.4121,-2.4121,-2.4121,-2.4121,-2.4121,-2.4121,-2.4121,-2.4121,-2.4121,-2.4121,-2.4053,-2.3978,-2.391,-2.3843,-2.3734,-2.3592,-2.3571,-2.3537,-2.347,-2.3307,-2.3185,-2.313,-2.3049,-2.2873,-2.2624,-2.2269,-2.2038,-2.1882,-2.174,-2.1597,-2.1375,-2.1375,-2.1375,-2.1375,-2.1375,-2.1375,-2.1375,-2.1375,-2.1375,-2.1375,-2.1375,-2.1375,-2.1375,-2.1375,-2.1375,-2.1375,-2.1375,-2.1375,-2.1375,-2.1375,-2.1496,-2.1564,-2.1564,-2.1618,-2.1672,-2.1584,-2.1509,-2.1375,-2.1375,-2.1375,-2.1375,-2.1375,-2.1375,-2.1375,-2.1375,-2.1375,-2.1375,-2.1375,-2.1375,-2.1353,-2.1055,-2.0946,-2.0716,-2.0187,-1.9922,-1.9678,-1.9359,-1.9203,-1.9128,-1.9217,-1.9359,-1.9535,-1.9766,-1.9922,-2.0051,-2.0139,-2.0275,-2.0417,-2.056,-2.079,-2.1001,-2.1211,-2.1299,-2.1367,-2.1375,-2.1375,-2.1375,-2.1375,-2.1375,-2.1375,-2.1375,-2.1375,-2.1375,-2.1375,-2.1375,-2.1375,-2.1375,-2.1375,-2.1375,-2.1389,-2.1618,-2.1584,-2.1389,-2.1618,-2.1564,-2.1375,-2.4121,-2.4121,-2.4121,-2.4121,-2.4121,-2.4121,-2.4121,-2.4121,-2.4121,-2.4121,-2.4121,-2.4066,-2.3965,-2.3944,-2.389,-2.3754,-2.3734,-2.3714,-2.368,-2.3449,-2.3307,-2.3273,-2.3097,-2.2886,-2.2678,-2.2344,-2.2127,-2.1937,-2.1794,-2.1638,-2.1496,-2.1389,-2.1375,-2.1375,-2.1375,-2.1375,-2.1375,-2.1375,-2.1375,-2.1375,-2.1375,-2.1375,-2.1375,-2.1375,-2.1375,-2.1375,-2.1375,-2.1375,-2.1441,-2.1475,-2.1564,-2.1739,-2.1706,-2.1794,-2.1862,-2.176,-2.1618,-2.1496,-2.1389,-2.1375,-2.1375,-2.1375,-2.1375,-2.1375,-2.1375,-2.1375,-2.1375,-2.1375,-2.1375,-2.1353,-2.1055,-2.0967,-2.077,-2.0241,-1.9997,-1.98,-1.9569,-1.9393,-1.9359,-1.9522,-1.9698,-1.9922,-2.0173,-2.0383,-2.0526,-2.0584,-2.0756,-2.0845,-2.0878,-2.1089,-2.1231,-2.1265,-2.1321,-2.1375,-2.1375,-2.1375,-2.1375,-2.1375,-2.1375,-2.1375,-2.1375,-2.1375,-2.1375,-2.1375,-2.1375,-2.1375,-2.1375,-2.1375,-2.1375,-2.1389,-2.1618,-2.1584,-2.1389,-2.1618,-2.1564,-2.1375,-2.4121,-2.4121,-2.4121,-2.4121,-2.4121,-2.4121,-2.4121,-2.4121,-2.4121,-2.4121,-2.4121,-2.4121,-2.41,-2.41,-2.4053,-2.389,-2.3877,-2.3822,-2.368,-2.3666,-2.3578,-2.3363,-2.3171,-2.294,-2.2764,-2.2608,-2.2378,-2.2093,-2.1937,-2.1794,-2.1652,-2.1509,-2.1375,-2.1375,-2.1375,-2.1375,-2.1375,-2.1375,-2.1375,-2.1375,-2.1375,-2.1375,-2.1375,-2.1375,-2.1375,-2.1375,-2.1375,-2.1375,-2.1455,-2.1597,-2.1719,-2.1692,-2.1828,-2.1882,-2.1882,-2.1862,-2.176,-2.1618,-2.1475,-2.1375,-2.1375,-2.1375,-2.1375,-2.1375,-2.1375,-2.1375,-2.1375,-2.1375,-2.1375,-2.1353,-2.1055,-2.0878,-2.0682,-2.0363,-2.0064,-1.9875,-1.9902,-1.9773,-1.9739,-1.982,-2.0098,-2.0286,-2.0485,-2.077,-2.0946,-2.0967,-2.098,-2.1034,-2.1177,-2.1197,-2.1279,-2.1355,-2.1375,-2.1375,-2.1375,-2.1375,-2.1375,-2.1375,-2.1375,-2.1375,-2.1375,-2.1375,-2.1375,-2.1375,-2.1375,-2.1375,-2.1375,-2.1375,-2.1375,-2.1389,-2.1618,-2.1584,-2.1389,-2.1618,-2.1564,-2.1375,-2.4121,-2.4121,-2.4121,-2.4121,-2.4121,-2.4121,-2.4121,-2.4121,-2.4121,-2.4121,-2.4121,-2.4121,-2.4121,-2.4121,-2.41,-2.4033,-2.4033,-2.4012,-2.3965,-2.3856,-2.37,-2.3397,-2.3171,-2.2974,-2.292,-2.2676,-2.2445,-2.2249,-2.2004,-2.1815,-2.1672,-2.1509,-2.1375,-2.1375,-2.1375,-2.1375,-2.1375,-2.1375,-2.1375,-2.1375,-2.1375,-2.1375,-2.1375,-2.1375,-2.1375,-2.1375,-2.1375,-2.1375,-2.1455,-2.1618,-2.1794,-2.1828,-2.1971,-2.2093,-2.2147,-2.2059,-2.1916,-2.1794,-2.1726,-2.1584,-2.1375,-2.1375,-2.1375,-2.1375,-2.1375,-2.1375,-2.1375,-2.1375,-2.1375,-2.1367,-2.1177,-2.1089,-2.0912,-2.0462,-2.0363,-2.0227,-2.0051,-2.0051,-2.0139,-2.0275,-2.0471,-2.0702,-2.0933,-2.1068,-2.1177,-2.1265,-2.1279,-2.1299,-2.1353,-2.1353,-2.1321,-2.1375,-2.1375,-2.1375,-2.1375,-2.1375,-2.1375,-2.1375,-2.1375,-2.1375,-2.1375,-2.1375,-2.1375,-2.1441,-2.155,-2.1584,-2.1584,-2.1672,-2.1672,-2.1597,-2.174,-2.1652,-2.1389,-2.1618,-2.1564,-2.1375,-2.4121,-2.4121,-2.4121,-2.4121,-2.4121,-2.4121,-2.4121,-2.4121,-2.4121,-2.4121,-2.4121,-2.4121,-2.4121,-2.4121,-2.4121,-2.4121,-2.4066,-2.4053,-2.4053,-2.3856,-2.366,-2.3397,-2.3205,-2.3063,-2.3008,-2.2764,-2.2554,-2.2411,-2.2059,-2.1828,-2.174,-2.153,-2.1375,-2.1375,-2.1375,-2.1375,-2.1375,-2.1375,-2.1375,-2.1375,-2.1375,-2.1375,-2.1375,-2.1375,-2.1375,-2.1375,-2.1375,-2.1375,-2.1409,-2.1672,-2.1794,-2.1916,-2.2113,-2.2249,-2.2303,-2.216,-2.2038,-2.1937,-2.1903,-2.174,-2.1564,-2.153,-2.1475,-2.1375,-2.1375,-2.1375,-2.1375,-2.1375,-2.1375,-2.1387,-2.1245,-2.1211,-2.1089,-2.0736,-2.0682,-2.0614,-2.0417,-2.0471,-2.0573,-2.0618,-2.0824,-2.098,-2.1197,-2.1245,-2.1267,-2.1375,-2.1375,-2.1375,-2.1375,-2.1375,-2.1375,-2.1375,-2.1375,-2.1375,-2.1375,-2.1375,-2.1375,-2.1375,-2.1375,-2.1375,-2.1375,-2.1375,-2.1375,-2.1441,-2.155,-2.1618,-2.1739,-2.1774,-2.176,-2.1686,-2.1774,-2.1672,-2.1389,-2.1564,-2.153,-2.1375,-2.4121,-2.4121,-2.4121,-2.4121,-2.4121,-2.4121,-2.4121,-2.4121,-2.4121,-2.4121,-2.4121,-2.4121,-2.4121,-2.4121,-2.4121,-2.4121,-2.3978,-2.389,-2.389,-2.3612,-2.3377,-2.3377,-2.3235,-2.3151,-2.3008,-2.2852,-2.271,-2.2624,-2.2113,-2.1882,-2.1882,-2.1584,-2.1375,-2.1375,-2.1375,-2.1375,-2.1375,-2.1375,-2.1375,-2.1375,-2.1375,-2.1375,-2.1375,-2.1375,-2.1375,-2.1375,-2.1375,-2.1375,-2.1429,-2.1774,-2.1882,-2.1937,-2.2249,-2.2268,-2.2303,-2.216,-2.2113,-2.2079,-2.1937,-2.1882,-2.1848,-2.1706,-2.1564,-2.1375,-2.1375,-2.1375,-2.1375,-2.1375,-2.1375,-2.1387,-2.1245,-2.1211,-2.1157,-2.1021,-2.1001,-2.1001,-2.1001,-2.1001,-2.1001,-2.1001,-2.1123,-2.1211,-2.1211,-2.1353,-2.1375,-2.1375,-2.1375,-2.1375,-2.1375,-2.1375,-2.1375,-2.1375,-2.1375,-2.1375,-2.1375,-2.1375,-2.1375,-2.1375,-2.1375,-2.1375,-2.1375,-2.1375,-2.1375,-2.1375,-2.1375,-2.153,-2.1672,-2.1672,-2.1672,-2.1672,-2.1672,-2.1584,-2.1375,-2.1375,-2.1375,-2.1375,-2.4121,-2.4121,-2.4121,-2.4121,-2.4121,-2.4121,-2.4121,-2.4121,-2.4121,-2.4121,-2.4121,-2.4121,-2.4121,-2.4033,-2.3965,-2.3965,-2.3822,-2.37,-2.3592,-2.3431,-2.3323,-2.3293,-2.3239,-2.3205,-2.3151,-2.2907,-2.2764,-2.271,-2.2269,-2.2038,-2.2038,-2.1848,-2.176,-2.176,-2.176,-2.176,-2.176,-2.176,-2.176,-2.176,-2.176,-2.176,-2.174,-2.1638,-2.1597,-2.1584,-2.1475,-2.1375,-2.1429,-2.1774,-2.1882,-2.1937,-2.2249,-2.2268,-2.2323,-2.222,-2.2269,-2.22,-2.2215,-2.2127,-2.2004,-2.1862,-2.1774,-2.1726,-2.1618,-2.1597,-2.1564,-2.1455,-2.1375,-2.1421,-2.1321,-2.1367,-2.1319,-2.1177,-2.1143,-2.1109,-2.1021,-2.1089,-2.1143,-2.1143,-2.1279,-2.1367,-2.1367,-2.1408,-2.1375,-2.1375,-2.1375,-2.1375,-2.1375,-2.1375,-2.1375,-2.1375,-2.1375,-2.1375,-2.1375,-2.1375,-2.1375,-2.1375,-2.1375,-2.1496,-2.1597,-2.1496,-2.1496,-2.1597,-2.1597,-2.1638,-2.1739,-2.1774,-2.176,-2.1672,-2.1672,-2.1584,-2.1375,-2.1375,-2.1375,-2.1375,-2.4121,-2.4121,-2.4121,-2.4121,-2.4121,-2.4121,-2.4121,-2.4121,-2.41,-2.4033,-2.4033,-2.4012,-2.3944,-2.3856,-2.3802,-2.3802,-2.368,-2.3524,-2.3361,-2.3289,-2.3255,-2.3219,-2.3219,-2.3205,-2.313,-2.2907,-2.2744,-2.2696,-2.2303,-2.2113,-2.2113,-2.195,-2.1882,-2.1882,-2.1882,-2.1882,-2.1882,-2.1882,-2.1882,-2.1882,-2.1882,-2.1882,-2.1862,-2.1794,-2.176,-2.174,-2.1584,-2.1564,-2.1638,-2.1828,-2.1971,-2.2093,-2.222,-2.2268,-2.2268,-2.2268,-2.2268,-2.2268,-2.2268,-2.2269,-2.2181,-2.2093,-2.1971,-2.1862,-2.1774,-2.1706,-2.1652,-2.155,-2.1475,-2.1375,-2.1375,-2.1375,-2.1341,-2.1319,-2.1299,-2.1265,-2.119,-2.1245,-2.1299,-2.1299,-2.1321,-2.1375,-2.1375,-2.1375,-2.1375,-2.1375,-2.1375,-2.1375,-2.1375,-2.1375,-2.1375,-2.1375,-2.1375,-2.1375,-2.1375,-2.1375,-2.1375,-2.1375,-2.1375,-2.153,-2.1672,-2.1509,-2.153,-2.1672,-2.1597,-2.1618,-2.1739,-2.176,-2.174,-2.1672,-2.1672,-2.1584,-2.1375,-2.1375,-2.1375,-2.1375,-2.4121,-2.4121,-2.4121,-2.4121,-2.41,-2.41,-2.41,-2.4087,-2.4033,-2.389,-2.3877,-2.3822,-2.37,-2.3666,-2.3666,-2.3666,-2.3524,-2.3361,-2.3239,-2.3219,-2.3219,-2.3219,-2.3219,-2.3151,-2.3008,-2.2852,-2.271,-2.2644,-2.2269,-2.2127,-2.2127,-2.1991,-2.1916,-2.1916,-2.1916,-2.1916,-2.1916,-2.1916,-2.1916,-2.1916,-2.1916,-2.1916,-2.1916,-2.1903,-2.1903,-2.1882,-2.174,-2.1774,-2.1882,-2.1903,-2.2093,-2.2268,-2.2268,-2.2268,-2.2268,-2.2268,-2.2268,-2.2268,-2.2268,-2.2268,-2.2268,-2.2268,-2.2127,-2.1916,-2.1903,-2.1794,-2.1706,-2.1692,-2.1584,-2.1409,-2.1455,-2.1455,-2.1389,-2.1375,-2.1389,-2.1389,-2.1375,-2.1389,-2.1389,-2.1375,-2.1375,-2.1375,-2.1375,-2.1375,-2.1375,-2.1375,-2.1375,-2.1375,-2.1375,-2.1375,-2.1441,-2.1455,-2.1455,-2.1409,-2.1409,-2.1409,-2.1455,-2.1375,-2.1375,-2.153,-2.1672,-2.1509,-2.153,-2.1672,-2.1509,-2.153,-2.1652,-2.1652,-2.1652,-2.1652,-2.1652,-2.1564,-2.1375,-2.1375,-2.1375,-2.1375,-2.4121,-2.4121,-2.4121,-2.4121,-2.4012,-2.3944,-2.3944,-2.3843,-2.3768,-2.3734,-2.3734,-2.3714,-2.368,-2.3571,-2.3503,-2.3503,-2.3361,-2.3259,-2.3219,-2.3219,-2.3219,-2.3219,-2.3219,-2.3151,-2.3008,-2.2852,-2.2764,-2.273,-2.2432,-2.2289,-2.2289,-2.2249,-2.2235,-2.2235,-2.2235,-2.2235,-2.2235,-2.2235,-2.2235,-2.2235,-2.2235,-2.2235,-2.2235,-2.2113,-2.2059,-2.2038,-2.1882,-2.1862,-2.1903,-2.2025,-2.2181,-2.2268,-2.2268,-2.2268,-2.2268,-2.2268,-2.2268,-2.2268,-2.2268,-2.2268,-2.2268,-2.2268,-2.2289,-2.2215,-2.2093,-2.2038,-2.1991,-2.1862,-2.1815,-2.176,-2.1638,-2.1618,-2.1584,-2.1455,-2.155,-2.1584,-2.1389,-2.155,-2.1584,-2.1389,-2.1375,-2.1375,-2.1375,-2.1375,-2.1375,-2.1375,-2.1375,-2.1375,-2.1375,-2.1375,-2.1496,-2.1618,-2.1618,-2.1672,-2.1794,-2.1794,-2.1672,-2.1375,-2.1375,-2.153,-2.1672,-2.1509,-2.153,-2.1672,-2.1509,-2.1389,-2.1496,-2.1496,-2.1496,-2.1496,-2.1496,-2.1409,-2.1375,-2.1375,-2.1375,-2.1375,-2.4121,-2.4121,-2.41,-2.4033,-2.3944,-2.3877,-2.3802,-2.3734,-2.3666,-2.3571,-2.3571,-2.3537,-2.347,-2.3395,-2.3275,-2.3275,-2.3273,-2.3219,-2.3219,-2.3219,-2.3219,-2.3219,-2.3219,-2.3185,-2.3117,-2.2961,-2.2818,-2.2676,-2.2445,-2.2268,-2.2268,-2.2268,-2.2268,-2.2268,-2.2268,-2.2268,-2.2268,-2.2268,-2.2268,-2.2268,-2.2268,-2.2268,-2.2268,-2.2249,-2.2215,-2.2201,-2.2038,-2.1991,-2.2025,-2.216,-2.2269,-2.2268,-2.2268,-2.2268,-2.2268,-2.2268,-2.2268,-2.2268,-2.2268,-2.2268,-2.2268,-2.2268,-2.2268,-2.2254,-2.2235,-2.216,-2.2093,-2.2004,-2.1937,-2.1862,-2.1794,-2.1774,-2.174,-2.1672,-2.1726,-2.174,-2.1672,-2.1726,-2.174,-2.1652,-2.1652,-2.1652,-2.1652,-2.1652,-2.1652,-2.1652,-2.1652,-2.1652,-2.1652,-2.1652,-2.1686,-2.1774,-2.1774,-2.1815,-2.1882,-2.1882,-2.1815,-2.1652,-2.1584,-2.1638,-2.176,-2.1543,-2.153,-2.1672,-2.1509,-2.1375,-2.1375,-2.1375,-2.1375,-2.1375,-2.1375,-2.1375,-2.1375,-2.1375,-2.1375,-2.1375,-2.4121,-2.41,-2.4033,-2.391,-2.3856,-2.3768,-2.3666,-2.3626,-2.3558,-2.3363,-2.3343,-2.3289,-2.3239,-2.3219,-2.3219,-2.3219,-2.3219,-2.3219,-2.3219,-2.3219,-2.3219,-2.3219,-2.3219,-2.3219,-2.3219,-2.3083,-2.2873,-2.2658,-2.2445,-2.2357,-2.2268,-2.2268,-2.2268,-2.2268,-2.2268,-2.2268,-2.2268,-2.2268,-2.2268,-2.2268,-2.2268,-2.2268,-2.2268,-2.2268,-2.2268,-2.2323,-2.2201,-2.2147,-2.216,-2.2234,-2.2268,-2.2268,-2.2268,-2.2268,-2.2268,-2.2268,-2.2268,-2.2268,-2.2268,-2.2268,-2.2268,-2.2268,-2.2268,-2.2268,-2.2268,-2.2235,-2.2147,-2.2147,-2.2038,-2.195,-2.1916,-2.1916,-2.1916,-2.1882,-2.1903,-2.1916,-2.1882,-2.1903,-2.1916,-2.1882,-2.1882,-2.1882,-2.1882,-2.1882,-2.1882,-2.1882,-2.1882,-2.1882,-2.1882,-2.1882,-2.1903,-2.1916,-2.1916,-2.1937,-2.195,-2.195,-2.195,-2.195,-2.1815,-2.1774,-2.1828,-2.1564,-2.1509,-2.1618,-2.1496,-2.1375,-2.1375,-2.1375,-2.1375,-2.1375,-2.1375,-2.1375,-2.1375,-2.1375,-2.1375,-2.1375,-2.4121,-2.4012,-2.391,-2.389,-2.368,-2.3431,-2.3411,-2.3361,-2.3273,-2.3259,-2.3259,-2.3239,-2.3219,-2.3219,-2.3219,-2.3219,-2.3219,-2.3219,-2.3219,-2.3219,-2.3219,-2.3219,-2.3219,-2.3219,-2.3219,-2.3083,-2.292,-2.2744,-2.2608,-2.2466,-2.2268,-2.2268,-2.2268,-2.2268,-2.2268,-2.2268,-2.2268,-2.2268,-2.2268,-2.2268,-2.2268,-2.2268,-2.2268,-2.2268,-2.2268,-2.2268,-2.2254,-2.2303,-2.2303,-2.2268,-2.2268,-2.2268,-2.2268,-2.2268,-2.2268,-2.2268,-2.2268,-2.2268,-2.2268,-2.2268,-2.2268,-2.2268,-2.2268,-2.2268,-2.2268,-2.2323,-2.2303,-2.2303,-2.2289,-2.2235,-2.2113,-2.2079,-2.2038,-2.1903,-2.1991,-2.2038,-2.1903,-2.1991,-2.2025,-2.1903,-2.1882,-2.1882,-2.1882,-2.1882,-2.1882,-2.1882,-2.1882,-2.1882,-2.1882,-2.1882,-2.1937,-2.2079,-2.2079,-2.2147,-2.2269,-2.2269,-2.2269,-2.2269,-2.2127,-2.1937,-2.1692,-2.1509,-2.1389,-2.1409,-2.1389,-2.1375,-2.1375,-2.1375,-2.1375,-2.1375,-2.1375,-2.1375,-2.1375,-2.1375,-2.1375,-2.1375,-2.4012,-2.3944,-2.3843,-2.368,-2.3465,-2.3343,-2.3327,-2.3259,-2.3219,-2.3219,-2.3219,-2.3219,-2.3219,-2.3219,-2.3219,-2.3219,-2.3219,-2.3219,-2.3219,-2.3219,-2.3219,-2.3219,-2.3219,-2.3219,-2.3219,-2.3171,-2.3008,-2.2784,-2.2692,-2.2479,-2.2268,-2.2268,-2.2268,-2.2268,-2.2268,-2.2268,-2.2268,-2.2268,-2.2268,-2.2268,-2.2268,-2.2268,-2.2268,-2.2268,-2.2268,-2.2268,-2.2268,-2.2268,-2.2268,-2.2268,-2.2268,-2.2268,-2.2268,-2.2268,-2.2268,-2.2268,-2.2268,-2.2268,-2.2268,-2.2268,-2.2268,-2.2268,-2.2268,-2.2268,-2.2268,-2.2391,-2.2432,-2.2288,-2.2268,-2.2254,-2.2249,-2.2303,-2.2344,-2.2269,-2.231,-2.2344,-2.2269,-2.2255,-2.2215,-2.2147,-2.2201,-2.2324,-2.2324,-2.2324,-2.2324,-2.2324,-2.2181,-2.2147,-2.2147,-2.2147,-2.216,-2.2235,-2.2235,-2.2269,-2.2268,-2.2268,-2.2268,-2.2268,-2.2181,-2.2038,-2.1916,-2.176,-2.1686,-2.1686,-2.1686,-2.1686,-2.1686,-2.1597,-2.1564,-2.1564,-2.1409,-2.1375,-2.1375,-2.1375,-2.1375,-2.1375]},{"header":{"parameterUnit":"m.s-1","parameterCategory":1,"la1":30.6,"la2":28.766,"lo1":-90.7593,"lo2":-88.6598,"dy":0.0162,"dx":0.0183,"nx":116,"ny":114,"refTime":"2024-06-14T00:00:00:Z","depth":0,"parameterNumber":3,"parameterNumberName":"V-component_of_WINDS"},"data":[0.0,0.0,0.0,0.0,0.0,0.0,0.0,0.0,0.0,0.0,0.0,0.0,0.0,0.0,0.0,0.0,0.0,0.0,0.0,0.0,0.0,0.0,0.0,0.0,0.0,0.0,0.0,0.0,0.0,0.0,0.0,0.0,0.0,0.0,0.0,0.0,0.0,0.0,0.0,0.0,0.0,0.0,0.0,0.0,0.0,0.0,0.0,0.0,0.0,0.0,0.0,0.0,0.0,0.0,0.0,0.0,0.0,0.0,0.0,0.0,0.0,0.0,0.0,0.0,0.0,0.0,0.0,0.0,0.0,0.0,0.0,0.0,0.0,0.0,0.0,0.0,0.0,0.0,0.0,0.0,0.0,0.0,0.0,0.0,0.0,0.0,0.0,0.0,0.0,0.0,0.0,0.0,0.0,0.0,0.0,0.0,0.0,0.0,0.0,0.0,0.0,0.0,0.0,0.0,0.0,0.0,0.0,0.0,0.0,0.0,0.0,0.0,0.0,0.0,0.0,0.0,0.0,0.0,0.0,0.0,0.0,0.0,0.0,0.0,0.0,0.0,0.0,0.0,0.0,0.0,0.0,0.0,0.0,0.0,0.0,0.0,0.0,0.0,0.0,0.0,0.0,0.0,0.0,0.0,0.0,0.0,0.0,0.0,0.0,0.0,0.0,0.0,0.0,0.0,0.0,0.0,0.0,0.0,0.0,0.0,0.0,0.0,0.0,0.0,0.0,0.0,0.0,0.0,0.0,0.0,0.0,0.0,0.0,0.0,0.0,0.0,0.0,0.0,0.0,0.0,0.0,0.0,0.0,0.0,0.0,0.0,0.0,0.0,0.0,0.0,0.0,0.0,0.0,0.0,0.0,0.0,0.0,0.0,0.0,0.0,0.0,0.0,0.0,0.0,0.0,0.0,0.0,0.0,0.0,0.0,0.0,0.0,0.0,0.0,0.0,0.0,0.0,0.0,0.0,0.0,0.0,0.0,0.0,0.0,0.0,0.0,0.0,0.0,0.0,0.0,0.0,0.0,0.0,0.0,0.0,0.0,0.0,0.0,0.0,0.0,0.0,0.0,0.0,0.0,0.0,0.0,0.0,0.0,0.0,0.0,0.0,0.0,0.0,0.0,0.0,0.0,0.0,0.0,0.0,0.0,0.0,0.0,0.0,0.0,0.0,0.0,0.0,0.0,0.0,0.0,0.0,0.0,0.0,0.0,0.0,0.0,0.0,0.0,0.0,0.0,0.0,0.0,0.0,0.0,0.0,0.0,0.0,0.0,0.0,0.0,0.0,0.0,0.0,0.0,0.0,0.0,0.0,0.0,0.0,0.0,0.0,0.0,0.0,0.0,0.0,0.0,0.0,0.0,0.0,0.0,0.0,0.0,0.0,0.0,0.0,0.0,0.0,0.0,0.0,0.0,0.0,0.0,0.0,0.0,0.0,0.0,0.0,0.0,0.0,0.0,0.0,0.0,0.0,0.0,0.0,0.0,0.0,0.0,0.0,0.0,0.0,0.0,0.0,0.0,0.0,0.0,0.0,0.0,0.0,0.0,0.0,0.0,0.0,0.0,0.0,0.0,0.0,0.0,0.0,0.0,0.0,0.0,0.0,0.0,0.0,0.0,0.0,0.0,0.0,0.0,0.0,0.0,0.0,0.0,0.0,0.0,0.0,0.0,0.0,0.0,0.0,0.0,0.0,0.0,0.0,0.0,0.0,0.0,0.0,0.0,0.0,0.0,0.0,0.0,0.0,0.0,0.0,0.0,0.0,0.0,0.0,0.0,0.0,0.0,0.0,0.0,0.0,0.0,0.0,0.0,0.0,0.0,0.0,0.0,0.0,0.0,0.0,0.0,0.0,0.0,0.0,0.0,0.0,0.0,0.0,0.0,0.0,0.0,0.0,0.0,0.0,0.0,0.0,0.0,0.0,0.0,0.0,0.0,0.0,0.0,0.0,0.0,0.0,0.0,0.0,0.0,0.0,0.0,0.0,0.0,0.0,0.0,0.0,0.0,0.0,0.0,0.0,0.0,0.0,0.0,0.0,0.0,0.0,0.0,0.0,0.0,0.0,0.0,0.0,0.0,0.0,0.0,0.0,0.0,0.0,0.0,0.0,0.0,0.0,0.0,0.0,0.0,0.0,0.0,0.0,0.0,0.0,0.0,0.0,0.0,0.0,0.0,0.0,0.0,0.0,0.0,0.0,0.0,0.0,0.0,0.0,0.0,0.0,0.0,0.0,0.0,0.0,0.0,0.0,0.0,0.0,0.0,0.0,0.0,0.0,0.0,0.0,0.0,0.0,0.0,0.0,0.0,0.0,0.0,0.0,0.0,0.0,0.0,0.0,0.0,0.0,0.0,0.0,0.0,0.0,0.0,0.0,0.0,0.0,0.0,0.0,0.0,0.0,0.0,0.0,0.0,0.0,0.0,0.0,0.0,0.0,0.0,0.0,0.0,0.0,0.0,0.0,0.0,0.0,0.0,0.0,0.0,0.0,0.0,0.0,0.0,0.0,0.0,0.0,0.0,0.0,0.0,0.0,0.0,0.0,0.0,0.0,0.0,0.0,0.0,0.0,0.0,0.0,0.0,0.0,0.0,0.0,0.0,0.0,0.0,0.0,0.0,0.0,0.0,0.0,0.0,0.0,0.0,0.0,0.0,0.0,0.0,0.0,0.0,0.0,0.0,0.0,0.0,0.0,0.0,0.0,0.0,0.0,0.0,0.0,0.0,0.0,0.0,0.0,0.0,0.0,0.0,0.0,0.0,0.0,0.0,0.0,0.0,0.0,0.0,0.0,0.0,0.0,0.0,0.0,0.0,0.0,0.0,0.0,0.0,0.0,0.0,0.0,0.0,0.0,0.0,0.0,0.0,0.0,0.0,0.0,0.0,0.0,0.0,0.0,0.0,0.0,0.0,0.0,0.0,0.0,0.0,0.0,0.0,0.0,0.0,0.0,0.0,0.0,0.0,0.0,0.0,0.0,0.0,0.0,0.0,0.0,0.0,0.0,0.0,0.0,0.0,0.0,0.0,0.0,0.0,0.0,0.0,0.0,0.0,0.0,0.0,0.0,0.0,0.0,0.0,0.0,0.0,0.0,0.0,0.0,0.0,0.0,0.0,0.0,0.0,0.0,0.0,0.0,0.0,0.0,0.0,0.0,0.0,0.0,0.0,0.0,0.0,0.0,0.0,0.0,0.0,0.0,0.0,0.0,0.0,0.0,0.0,0.0,0.0,0.0,0.0,0.0,0.0,0.0,0.0,0.0,0.0,0.0,0.0,0.0,0.0,0.0,0.0,0.0,0.0,0.0,0.0,0.0,0.0,0.0,0.0,0.0,0.0,0.0,0.0,0.0,0.0,0.0,0.0,0.0,0.0,0.0,0.0,0.0,0.0,0.0,0.0,0.0,0.0,0.0,0.0,0.0,0.0,0.0,0.0,0.0,0.0,0.0,0.0,0.0,0.0,0.0,0.0,0.0,0.0,0.0,0.0,0.0,0.0,0.0,0.0,0.0,0.0,0.0,0.0,0.0,0.0,0.0,0.0,0.0,0.0,0.0,0.0,0.0,0.0,0.0,0.0,0.0,0.0,0.0,0.0,0.0,0.0,0.0,0.0,0.0,0.0,0.0,0.0,0.0,0.0,0.0,0.0,0.0,0.0,0.0,0.0,0.0,0.0,0.0,0.0,0.0,0.0,0.0,0.0,0.0,0.0,0.0,0.0,0.0,0.0,0.0,0.0,0.0,0.0,0.0,0.0,0.0,0.0,0.0,0.0,0.0,0.0,0.0,0.0,0.0,0.0,0.0,0.0,0.0,0.0,0.0,0.0,0.0,0.0,0.0,0.0,0.0,0.0,0.0,0.0,0.0,0.0,0.0,0.0,0.0,0.0,0.0,0.0,0.0,0.0,0.0,0.0,0.0,0.0,0.0,0.0,0.0,0.0,0.0,0.0,0.0,0.0,0.0,0.0,0.0,0.0,0.0,0.0,0.0,0.0,0.0,0.0,0.0,0.0,0.0,0.0,0.0,0.0,0.0,0.0,0.0,0.0,0.0,0.0,0.0,0.0,0.0,0.0,0.0,0.0,0.0,0.0,0.0,0.0,0.0,0.0,0.0,0.0,0.0,0.0,0.0,0.0,0.0,0.0,0.0,0.0,0.0,0.0,0.0,0.0,0.0,0.0,0.0,0.0,0.0,0.0,0.0,0.0,0.0,0.0,0.0,0.0,0.0,0.0,0.0,0.0,0.0,0.0,0.0,0.0,0.0,0.0,0.0,0.0,0.0,0.0,0.0,0.0,0.0,0.0,0.0,0.0,0.0,0.0,0.0,0.0,0.0,0.0,0.0,0.0,0.0,0.0,0.0,0.0,0.0,0.0,0.0,0.0,0.0,0.0,0.0,0.0,0.0,0.0,0.0,0.0,0.0,0.0,0.0,0.0,0.0,0.0,0.0,0.0,0.0,0.0,0.0,0.0,0.0,0.0,0.0,0.0,0.0,0.0,0.0,0.0,0.0,0.0,0.0,0.0,0.0,0.0,0.0,0.0,0.0,0.0,0.0,0.0,0.0,0.0,0.0,0.0,0.0,0.0,0.0,0.0,0.0,0.0,0.0,0.0,0.0,0.0,0.0,0.0,0.0,0.0,0.0,0.0,0.0,0.0,0.0,0.0,0.0,0.0,0.0,0.0,0.0,0.0,0.0,0.0,0.0,0.0,0.0,0.0,0.0,0.0,0.0,0.0,0.0,0.0,0.0,0.0,0.0,0.0,0.0,0.0,0.0,0.0,0.0,0.0,0.0,0.0,0.0,0.0,0.0,0.0,0.0,0.0,0.0,0.0,0.0,0.0,0.0,0.0,0.0,0.0,0.0,0.0,0.0,0.0,0.0,0.0,0.0,0.0,0.0,0.0,0.0,0.0,0.0,0.0,0.0,0.0,0.0,0.0,0.0,0.0,0.0,0.0,0.0,0.0,0.0,0.0,0.0,0.0,0.0,0.0,0.0,0.0,0.0,0.0,0.0,0.0,0.0,0.0,0.0,0.0,0.0,0.0,0.0,0.0,0.0,0.0,0.0,0.0,0.0,0.0,0.0,0.0,0.0,0.0,0.0,0.0,0.0,0.0,0.0,0.0,0.0,0.0,0.0,0.0,0.0,0.0,0.0,0.0,0.0,0.0,0.0,0.0,0.0,0.0,0.0,0.0,0.0,0.0,0.0,0.0,0.0,0.0,0.0,0.0,0.0,0.0,0.0,0.0,0.0,0.0,0.0,0.0,0.0,0.0,0.0,0.0,0.0,0.0,0.0,0.0,0.0,0.0,0.0,0.0,0.0,0.0,0.0,0.0,0.0,0.0,0.0,0.0,0.0,0.0,0.0,0.0,0.0,0.0,0.0,0.0,0.0,0.0,0.0,0.0,0.0,0.0,0.0,0.0,0.0,0.0,0.0,0.0,0.0,0.0,0.0,0.0,0.0,0.0,0.0,0.0,0.0,0.0,0.0,0.0,0.0,0.0,0.0,0.0,0.0,0.0,0.0,0.0,0.0,0.0,0.0,0.0,0.0,0.0,0.0,0.0,0.0,0.0,0.0,0.0,0.0,0.0,0.0,0.0,0.0,0.0,0.0,0.0,0.0,0.0,0.0,0.0,0.0,0.0,0.0,0.0,0.0,0.0,0.0,0.0,0.0,0.0,0.0,0.0,0.0,0.0,0.0,0.0,0.0,0.0,0.0,0.0,0.0,0.0,0.0,0.0,0.0,0.0,0.0,0.0,0.0,0.0,0.0,0.0,0.0,0.0,0.0,0.0,0.0,0.0,0.0,0.0,0.0,0.0,0.0,0.0,0.0,0.0,0.0,0.0,0.0,0.0,0.0,0.0,0.0,0.0,0.0,0.0,0.0,0.0,0.0,0.0,0.0,0.0,0.0,0.0,0.0,0.0,0.0,0.0,0.0,0.0,0.0,0.0,0.0,0.0,0.0,0.0,0.0,0.0,0.0,0.0,0.0,0.0,0.0,0.0,0.0,0.0,0.0,0.0,0.0,0.0,0.0,0.0,0.0,0.0,0.0,0.0,0.0,0.0,0.0,0.0,0.0,0.0,0.0,0.0,0.0,0.0,7.164,7.075,0.0,0.0,0.0,0.0,0.0,0.0,0.0,0.0,0.0,0.0,0.0,0.0,0.0,0.0,0.0,0.0,0.0,0.0,0.0,0.0,0.0,0.0,0.0,6.3444,6.4217,6.5455,6.5953,6.6185,6.6185,0.0,0.0,0.0,0.0,0.0,6.5571,6.4759,6.4334,6.4334,6.3444,6.3013,6.3013,6.1664,6.0388,5.9188,0.0,0.0,0.0,0.0,0.0,0.0,0.0,0.0,0.0,0.0,0.0,0.0,0.0,0.0,0.0,0.0,0.0,0.0,0.0,0.0,0.0,0.0,0.0,0.0,0.0,0.0,0.0,0.0,0.0,0.0,0.0,0.0,0.0,0.0,0.0,0.0,0.0,0.0,0.0,0.0,0.0,0.0,0.0,0.0,0.0,0.0,0.0,0.0,0.0,0.0,0.0,0.0,0.0,0.0,0.0,0.0,0.0,0.0,0.0,0.0,0.0,0.0,0.0,0.0,0.0,0.0,0.0,0.0,0.0,0.0,7.427,7.3342,0.0,0.0,0.0,0.0,0.0,0.0,0.0,0.0,0.0,0.0,0.0,0.0,0.0,0.0,0.0,0.0,0.0,0.0,0.0,0.0,0.0,6.0233,6.3366,6.3831,6.4527,6.6069,6.6185,6.6185,6.6185,6.6185,0.0,0.0,6.6185,6.6185,6.6185,6.5533,6.5223,6.5223,6.4334,6.3831,6.3715,6.3715,6.2593,6.0542,6.0383,0.0,0.0,0.0,0.0,0.0,0.0,0.0,0.0,0.0,0.0,0.0,0.0,0.0,0.0,0.0,0.0,0.0,0.0,0.0,0.0,0.0,0.0,0.0,0.0,0.0,0.0,0.0,0.0,0.0,0.0,0.0,0.0,0.0,0.0,0.0,0.0,0.0,0.0,0.0,0.0,0.0,0.0,0.0,0.0,0.0,0.0,0.0,0.0,0.0,0.0,0.0,0.0,0.0,0.0,0.0,0.0,0.0,0.0,0.0,0.0,0.0,0.0,0.0,7.7951,7.7635,7.71,7.779,7.868,7.9531,7.7365,7.6746,7.7287,7.7138,0.0,0.0,0.0,0.0,0.0,0.0,0.0,0.0,0.0,0.0,0.0,0.0,0.0,0.0,0.0,0.0,0.0,0.0,0.0,6.1505,6.3482,6.4372,6.5185,6.6108,6.6185,6.6185,6.6185,6.6185,6.6185,6.6185,6.6185,6.6185,6.6185,6.6108,6.6031,6.6031,6.5223,6.445,6.3715,6.3715,6.3521,6.3173,6.2394,6.1582,6.0692,0.0,0.0,0.0,0.0,0.0,0.0,0.0,0.0,0.0,0.0,0.0,0.0,0.0,0.0,0.0,0.0,0.0,0.0,0.0,0.0,0.0,0.0,0.0,0.0,0.0,0.0,0.0,0.0,0.0,0.0,0.0,0.0,0.0,0.0,0.0,0.0,0.0,0.0,0.0,0.0,0.0,7.496,7.5939,0.0,0.0,0.0,0.0,0.0,0.0,0.0,0.0,0.0,0.0,0.0,0.0,0.0,7.8989,7.8989,7.8989,7.895,7.8834,7.8834,7.9144,7.9685,7.984,8.0769,8.2283,8.1935,0.0,8.0762,7.9989,0.0,0.0,0.0,0.0,0.0,0.0,0.0,0.0,0.0,0.0,0.0,0.0,0.0,0.0,0.0,0.0,0.0,0.0,0.0,0.0,0.0,6.4488,6.5339,6.6147,6.6185,6.6185,6.6185,6.6185,6.6185,6.6185,6.6185,6.6185,6.6185,6.6185,6.6456,6.692,6.6572,6.6456,6.6572,6.6572,6.6572,6.6533,6.618,6.4715,6.2477,6.1157,0.0,0.0,0.0,0.0,0.0,0.0,0.0,0.0,0.0,0.0,0.0,0.0,0.0,0.0,0.0,0.0,0.0,0.0,0.0,0.0,0.0,0.0,0.0,0.0,0.0,0.0,0.0,0.0,0.0,0.0,0.0,0.0,0.0,0.0,0.0,0.0,0.0,0.0,0.0,7.6088,7.6862,7.7751,7.8216,7.8757,0.0,0.0,0.0,0.0,0.0,0.0,0.0,0.0,0.0,8.042,8.0885,8.1162,8.1162,8.162,8.1852,8.1852,8.1852,8.2045,8.2393,8.2431,8.3107,8.4275,8.4821,8.5104,8.5053,8.316,8.189,8.1117,0.0,0.0,0.0,0.0,7.932,7.9325,0.0,0.0,0.0,0.0,0.0,0.0,0.0,0.0,0.0,0.0,0.0,0.0,6.3869,6.4798,6.5533,6.6147,6.6185,6.6185,6.6185,6.6185,6.6185,6.6185,6.6185,6.6185,6.6185,6.6417,6.6959,6.7849,6.8042,6.8468,6.9125,6.9357,6.9435,6.9435,6.9435,6.7655,6.4566,6.3052,6.2162,6.1543,0.0,0.0,0.0,0.0,0.0,0.0,0.0,0.0,0.0,0.0,0.0,0.0,0.0,0.0,0.0,0.0,0.0,0.0,0.0,0.0,0.0,0.0,0.0,0.0,0.0,0.0,0.0,0.0,0.0,0.0,0.0,0.0,0.0,0.0,0.0,0.0,0.0,7.8216,7.8564,7.9221,7.9685,8.0111,0.0,0.0,0.0,0.0,0.0,0.0,8.1813,8.1845,8.1923,8.2155,8.278,8.3135,8.3135,8.3805,8.4121,8.4121,8.434,8.4578,8.481,8.5053,8.5659,8.6439,8.7146,8.7823,8.8237,8.6015,8.4739,8.412,8.392,8.3417,8.2875,8.289,8.2947,8.2958,0.0,0.0,0.0,0.0,0.0,0.0,0.0,0.0,0.0,0.0,0.0,6.3908,6.4836,6.5644,6.6147,6.6185,6.6185,6.6185,6.6185,6.6185,6.6185,6.6185,6.6185,6.6185,6.6185,6.6998,6.7843,6.8733,6.9512,6.9904,6.9943,7.0794,7.1175,7.1175,7.1175,6.9744,6.7268,6.634,6.503,6.3405,6.1621,0.0,0.0,0.0,0.0,0.0,0.0,0.0,0.0,0.0,0.0,0.0,0.0,0.0,0.0,0.0,0.0,0.0,0.0,0.0,0.0,0.0,0.0,0.0,0.0,0.0,0.0,0.0,0.0,0.0,0.0,0.0,0.0,0.0,0.0,0.0,0.0,0.0,0.0,8.0143,8.1581,0.0,0.0,0.0,0.0,8.1575,8.1497,8.1845,8.2709,8.2748,8.3096,8.394,8.4018,8.4018,8.4018,8.412,8.4189,8.4189,8.5035,8.5878,8.6693,8.7513,8.8327,8.9102,8.9141,8.918,8.918,8.8288,8.7862,8.7745,8.6925,8.6576,8.6537,8.6537,8.6537,8.6543,0.0,0.0,0.0,0.0,0.0,5.6859,5.6859,5.9025,6.077,6.1079,6.3096,6.4643,6.4952,6.6224,6.7036,6.7036,6.7539,6.7655,6.7075,6.7036,6.6804,6.6224,6.6185,6.6456,6.7036,6.839,6.9551,7.0402,7.1253,7.1949,7.2529,7.2839,7.2955,7.2955,7.2955,7.2452,7.1446,6.8932,6.7191,6.5992,6.429,6.3096,0.0,0.0,0.0,0.0,0.0,0.0,0.0,0.0,0.0,0.0,0.0,0.0,0.0,0.0,0.0,0.0,0.0,0.0,0.0,0.0,0.0,0.0,0.0,0.0,0.0,0.0,0.0,0.0,0.0,0.0,0.0,0.0,0.0,0.0,0.0,0.0,0.0,8.1033,8.1575,0.0,8.1536,8.1811,8.2113,8.2378,8.2458,8.283,8.3644,8.3689,8.3838,8.4148,8.4729,8.5271,8.582,8.6419,8.6973,8.7477,8.7817,8.8094,8.841,8.8794,8.9083,8.9432,9.0597,9.1118,9.1157,9.2017,9.0968,8.8837,8.8521,8.8404,8.841,8.8445,8.8462,8.8545,0.0,0.0,0.0,0.0,5.6631,5.7942,5.8483,6.0262,6.1737,6.2356,6.3908,6.5223,6.5765,6.6843,6.7617,6.7921,6.8462,6.854,6.796,6.7926,6.7694,6.7114,6.7346,6.7887,6.8777,7.017,7.1297,7.2181,7.3303,7.4193,7.4734,7.5044,7.5198,7.516,7.4889,7.4579,7.4148,7.1905,7.0087,6.8622,6.6959,6.5765,6.4952,0.0,0.0,0.0,0.0,0.0,0.0,0.0,0.0,0.0,0.0,0.0,0.0,0.0,0.0,0.0,0.0,0.0,0.0,0.0,0.0,0.0,0.0,0.0,0.0,0.0,0.0,0.0,0.0,0.0,0.0,0.0,0.0,0.0,0.0,8.1497,8.1497,8.1497,8.1768,8.1935,8.196,8.2274,8.2735,8.3301,8.3374,8.3785,8.4605,8.4638,8.4915,8.5496,8.6072,8.6776,8.7629,8.8228,8.8821,8.9326,8.9659,8.9942,9.0252,9.0597,9.0929,9.124,9.2443,9.2964,9.3081,9.4213,9.3276,9.1106,9.0796,9.0679,9.0685,9.0719,9.0929,9.1284,0.0,0.0,0.0,5.5904,5.7482,5.9188,6.0847,6.1848,6.3052,6.4798,6.503,6.5687,6.7307,6.7539,6.7887,6.8772,6.8849,6.8888,6.8849,6.8849,6.8849,6.8849,6.9628,7.0484,7.1369,7.2258,7.3148,7.4038,7.5668,7.6481,7.6519,7.7365,7.7751,7.7713,7.6829,7.5972,7.5193,7.5154,7.3684,7.1253,6.9589,6.8429,6.7578,0.0,0.0,0.0,0.0,0.0,0.0,0.0,0.0,0.0,0.0,0.0,0.0,0.0,0.0,0.0,0.0,0.0,0.0,0.0,0.0,0.0,0.0,0.0,0.0,0.0,0.0,0.0,0.0,0.0,0.0,0.0,0.0,0.0,8.1497,8.1497,8.1497,8.1536,8.2277,8.285,8.2911,8.3692,8.4225,8.4256,8.4261,8.4688,8.5535,8.5613,8.6388,8.8094,8.8133,8.8527,8.9341,8.9438,8.9499,8.9538,9.0457,9.1371,9.2226,9.3042,9.3902,9.4718,9.4718,9.4757,9.4757,9.4757,9.4757,9.464,9.3785,9.343,9.343,9.343,9.398,9.4757,0.0,0.0,5.6067,5.6884,5.8432,5.988,6.0925,6.2394,6.3753,6.4836,6.5494,6.6301,6.7384,6.8076,6.8777,6.9589,7.0247,7.0324,6.9705,6.9667,6.9667,6.9667,7.1098,7.2297,7.3187,7.4618,7.5779,7.6668,7.7751,7.8293,7.8293,7.8525,7.8641,7.8602,7.7719,7.721,7.6939,7.632,7.5276,7.3916,7.222,7.1435,7.1167,0.0,0.0,0.0,0.0,0.0,0.0,0.0,0.0,0.0,0.0,0.0,0.0,0.0,0.0,0.0,0.0,0.0,0.0,0.0,0.0,0.0,0.0,0.0,0.0,0.0,0.0,0.0,0.0,0.0,0.0,0.0,8.2432,8.2238,8.1575,8.1497,8.1729,8.2355,8.2708,8.3131,8.3769,8.4084,8.4532,8.5169,8.5833,8.6591,8.7479,8.8062,8.8611,8.911,8.911,8.9504,9.0397,9.1029,9.1661,9.2321,9.3192,9.3747,9.398,9.4213,9.4485,9.4718,9.5334,9.5567,9.5606,9.6266,9.615,9.5489,9.4679,9.4329,9.4329,9.4329,9.4868,9.5567,0.0,5.6221,5.7151,5.8277,5.9585,6.0872,6.2034,6.3389,6.4585,6.5412,6.6259,6.71,6.7965,6.8816,6.9783,7.0987,7.1562,7.1794,7.164,7.1949,7.2142,7.2142,7.3806,7.4966,7.5469,7.6784,7.7751,7.8254,7.9105,7.9492,7.9492,7.9492,7.9492,7.9453,7.8602,7.8254,7.8216,7.7713,7.721,7.6662,7.5662,7.4464,7.3207,7.2685,7.2008,7.1344,7.1407,7.1093,7.0611,7.03,0.0,0.0,0.0,0.0,0.0,0.0,0.0,0.0,0.0,0.0,0.0,0.0,0.0,0.0,0.0,0.0,0.0,0.0,0.0,0.0,0.0,0.0,0.0,0.0,8.3328,8.3167,8.2664,8.2277,8.2367,8.3243,8.3396,8.3793,8.4698,8.5153,8.5745,8.6664,8.7549,8.8264,8.8769,8.9235,8.9662,9.0012,9.04,9.1022,9.1882,9.2731,9.343,9.3941,9.4446,9.4873,9.5179,9.5179,9.5417,9.5767,9.6228,9.6422,9.6461,9.7005,9.6888,9.6344,0.0,0.0,0.0,0.0,9.6033,9.6422,0.0,5.7271,5.8357,5.9883,6.0884,6.2016,6.3683,6.4606,6.5398,6.621,6.7048,6.791,6.871,6.9517,7.0678,7.2297,7.2529,7.2993,7.396,7.4806,7.5309,7.5386,7.6978,7.7945,7.8099,7.8873,7.9376,7.9569,8.0304,8.0646,8.0646,8.0536,8.0498,8.0453,7.9531,7.9144,7.9144,7.9028,7.8989,7.8989,7.8989,7.7212,7.4573,7.4591,7.4143,7.3511,7.3589,7.3522,7.3328,7.262,0.0,0.0,0.0,0.0,0.0,0.0,0.0,0.0,0.0,0.0,0.0,0.0,0.0,0.0,0.0,0.0,0.0,0.0,0.0,0.0,0.0,0.0,0.0,0.0,8.425,8.4256,8.4263,8.3689,8.3476,8.4189,8.4401,8.488,8.5806,8.6676,8.7552,8.8375,8.9196,8.9662,8.9662,8.974,0.0,0.0,0.0,9.2653,9.3547,9.4407,9.4834,9.4834,9.4912,9.5378,9.6033,9.6033,9.6461,9.7199,9.7199,9.7199,9.7199,9.7199,9.7199,9.7121,9.6344,9.6033,9.615,9.6927,9.7199,9.7199,0.0,5.8712,6.0012,6.1044,6.1839,6.292,6.4664,6.5021,6.5419,6.6265,6.7086,6.7924,6.8723,6.95,7.0407,7.1452,7.2181,7.3264,7.4767,7.5662,7.6475,7.7171,7.8177,7.9376,8.0724,8.0917,8.1697,8.3089,8.3283,8.336,8.3322,8.2625,8.2283,8.2245,8.0653,7.9956,7.9918,7.9299,7.8989,7.8989,7.8989,7.8634,7.8119,7.8175,7.7727,7.7095,7.7239,7.6827,7.6207,7.611,7.6142,7.6088,7.5189,7.4925,0.0,0.0,0.0,0.0,0.0,0.0,0.0,0.0,0.0,0.0,0.0,0.0,0.0,0.0,0.0,0.0,0.0,0.0,0.0,8.5178,8.5062,8.5082,8.5139,8.561,8.5732,8.5202,8.5878,8.6722,8.7603,8.8494,8.9069,8.9235,9.0051,9.0561,9.0561,9.1216,9.1993,9.2887,9.3042,9.3586,9.4446,9.5256,9.5684,9.5684,9.6383,0.0,9.6966,9.6966,9.7043,9.7199,9.7199,9.7199,9.7199,9.7199,9.7199,9.716,9.7005,9.6966,9.6966,9.7121,9.7199,9.7199,5.9594,6.0382,6.1198,6.2065,6.3198,6.4299,6.5153,6.5633,6.6017,6.639,6.7573,6.8463,6.8786,6.9957,7.1053,7.1877,7.3502,7.5044,7.632,7.7983,7.9144,7.9569,8.0846,8.1929,8.278,8.2819,8.3244,8.4095,8.4095,8.4095,8.4095,8.3637,8.3444,8.3399,8.2548,8.2161,8.2084,8.1271,8.0885,8.0846,8.042,8.0305,8.0306,7.9534,7.9061,7.8822,7.8894,7.8675,7.8358,7.8371,7.8371,7.829,7.782,7.7682,7.7604,0.0,0.0,0.0,0.0,0.0,0.0,0.0,0.0,0.0,0.0,0.0,0.0,0.0,0.0,8.5449,8.5875,0.0,8.6448,8.6029,8.6333,8.6642,8.6719,8.7471,8.7739,8.6892,8.7603,8.8345,8.8805,8.9647,9.0133,9.0133,9.1377,9.2115,9.2115,9.2925,9.3586,9.4057,9.4441,9.4868,9.5295,9.6111,9.6538,9.6577,9.7005,9.7199,9.7199,9.7199,9.7199,9.7199,9.7199,9.7199,9.7199,9.7199,9.7199,9.7199,9.7199,9.7199,9.7199,9.7199,9.7199,9.7199,6.1405,6.1943,6.2394,6.3274,6.4506,6.547,6.5665,6.627,6.6663,6.6552,6.7901,6.8863,6.8858,7.0099,7.1381,7.2513,7.4779,7.6746,7.8099,8.026,8.1652,8.2,8.336,8.4173,8.4327,8.4327,8.4405,8.4598,8.4598,8.4598,8.4598,8.4405,8.4327,8.4327,8.4173,8.4102,8.4037,8.3347,8.2966,8.2785,8.2082,8.1773,8.1584,8.0295,7.989,8.0018,8.0096,8.0145,8.0212,8.0223,8.0225,8.0225,8.0227,8.0216,8.0188,8.0048,7.9939,0.0,0.0,0.0,0.0,0.0,0.0,0.0,0.0,8.4523,8.4809,8.5423,8.5565,8.5759,8.6448,8.6719,8.6842,8.6862,8.7649,8.8242,8.8267,8.9054,8.9427,8.8783,8.9288,8.9692,8.9735,9.0677,9.1299,9.1299,9.2775,9.3664,9.3664,9.4329,9.4757,9.4912,9.5567,9.5994,9.615,9.6849,9.7199,9.7199,9.7199,9.7199,9.7199,9.7199,9.7199,9.7199,9.7199,9.7199,9.7199,9.7199,9.7199,9.7199,9.7199,9.7193,9.7182,9.7199,9.7199,9.7199,0.0,6.2929,6.4255,6.5057,6.5357,6.5738,6.6519,6.6661,6.6681,6.6695,6.7486,6.83,6.8994,6.9191,7.019,7.2494,7.4259,7.6585,7.9718,8.0917,8.2193,8.3747,8.3979,8.4443,8.514,8.5178,8.5526,8.6332,8.6332,8.6332,8.63,8.5526,8.5178,8.514,8.4405,8.4088,8.4106,8.3989,8.3593,8.2987,8.2871,8.2399,8.1771,8.167,8.1704,8.1805,8.1898,8.1948,8.2019,8.2026,8.2028,8.2028,8.1992,8.2027,8.1971,8.1929,8.18,8.1831,8.2565,8.328,8.3844,8.3993,8.4717,8.5383,0.0,8.5944,8.649,8.6481,8.6448,8.6487,8.6564,8.7222,8.779,8.7823,8.8578,8.9158,8.9232,8.9998,9.053,9.0506,9.0589,9.0628,9.0639,9.2154,9.312,9.312,9.4019,9.4562,9.4562,9.464,9.5029,9.5723,9.5839,9.6266,9.7043,9.716,9.7199,9.7199,9.7199,9.7199,9.7199,9.7199,9.7199,9.7199,9.7199,9.7199,9.7199,9.7199,9.7199,9.7199,9.7199,9.7165,9.7124,9.7182,9.7199,9.7199,0.0,6.3789,6.4726,6.6091,6.6323,6.6438,6.679,6.6823,6.6812,6.6755,6.7456,6.8249,6.901,6.9904,7.1278,7.3326,7.502,7.6992,7.9352,8.1749,8.3382,8.4075,8.5119,8.5834,8.6183,8.6183,8.6338,8.6725,8.6725,8.6725,8.6725,8.6338,8.6183,8.6144,8.5834,8.5676,8.5702,8.5197,8.4515,8.3777,8.3272,8.259,8.1906,8.1948,8.2023,8.2164,8.2195,8.2218,0.0,8.2293,8.2297,8.2376,8.2889,8.3044,8.3154,8.3588,8.3649,8.3645,8.3879,8.4194,8.4577,8.5063,8.5413,8.5745,8.6167,8.6508,8.6725,8.6629,8.699,8.7351,8.7404,8.8146,8.8707,8.8744,8.9523,9.0107,9.0153,9.1395,9.2282,9.2304,9.2775,9.2853,9.2348,9.3436,9.4174,9.4174,9.4946,9.5412,9.5412,9.5883,9.6305,9.6655,9.6655,9.681,9.7199,9.7199,9.7199,9.7199,9.7199,9.7199,9.7199,9.7199,9.7199,9.7199,9.7199,9.7199,9.7199,9.7199,9.7176,9.7142,9.7142,9.7106,9.7057,9.7124,9.7142,9.7142,0.0,6.4297,6.4844,6.6601,6.6914,6.6914,6.6914,6.6913,6.6872,6.6823,6.7312,6.7975,6.8702,7.0459,7.2158,7.3683,7.5308,7.7152,7.9294,8.2211,8.4078,8.452,8.6023,8.6877,8.6877,8.6877,8.6877,8.6877,8.6827,8.6816,8.6816,8.6816,8.6816,8.6821,8.6832,8.6876,8.6894,8.6263,8.5391,8.4412,8.3801,8.2911,8.2035,8.205,8.1976,8.189,8.2127,8.2211,8.2217,8.2275,8.2284,8.2486,8.3587,8.3941,8.4174,8.5206,8.5483,8.5386,8.5262,8.5229,8.5343,8.5978,8.6049,8.6101,8.666,8.691,8.7048,8.6997,8.7874,8.8636,8.8713,8.9617,9.0294,9.009,9.1028,9.1684,9.1468,9.2787,9.3747,9.3747,9.4524,9.479,9.413,9.4674,9.5029,9.5029,9.58,9.6255,9.6238,9.6821,9.7165,9.7153,9.7147,9.7147,9.7147,9.7147,9.7147,9.7147,9.7165,9.7176,9.7176,9.7193,9.7199,9.7199,9.7199,9.7199,9.7199,9.7199,9.7165,9.71,9.71,9.705,9.6979,9.7031,9.7063,9.7075,0.0,0.0,6.4844,6.6601,6.6914,6.6914,6.6914,6.6914,6.6914,6.6911,6.6868,6.7123,6.7963,7.0208,7.2058,7.2963,7.4514,7.686,8.0223,8.2126,8.3878,8.5496,8.6491,8.6971,8.6971,8.6971,8.6971,8.6971,8.6924,8.6904,8.6904,8.6904,8.6904,8.6904,8.6952,8.7037,8.7089,8.7054,8.6092,8.4604,8.4634,8.3644,8.2107,8.2166,8.1714,8.1138,8.1927,8.22,8.2212,8.2195,8.2214,8.2513,8.4204,8.4797,8.5191,8.6825,8.7265,8.7206,8.7157,8.7061,8.7009,8.6964,8.6904,8.6843,8.682,8.7414,8.7952,8.7958,8.9269,9.045,9.0519,9.1927,9.2843,9.2055,9.3341,9.4212,9.342,9.4096,9.4679,9.4679,9.5373,9.5839,9.5839,9.5839,9.5878,9.5878,9.6655,9.7132,9.7067,9.7106,9.7075,9.7019,9.7012,9.7012,9.7012,9.7012,9.7012,9.7012,9.7075,9.7106,9.7106,9.7171,9.7199,9.7199,9.7199,9.7199,9.7199,9.7199,9.7165,9.71,9.71,9.7019,9.6898,9.6898,9.6946,9.7012,0.0,0.0,0.0,6.6601,6.6914,6.6914,6.6914,6.6914,6.6914,6.6914,6.7847,0.0,0.0,0.0,0.0,0.0,7.4631,7.6528,7.8773,8.1119,8.319,8.4852,8.5797,8.6536,8.7105,8.7144,8.7144,8.7144,8.7095,8.7092,8.7092,8.7092,8.7092,8.7092,8.7102,8.7166,8.7237,8.7216,8.6272,8.4744,8.4751,8.3396,8.1457,8.2054,8.1747,8.1044,0.0,8.1018,8.0613,8.1194,8.1402,8.181,8.4126,8.4878,8.5233,8.6904,8.7345,8.7289,8.7264,8.7185,8.705,8.6957,8.6886,8.6976,8.7492,8.7771,8.8242,8.9417,9.1056,9.2314,9.2369,9.3819,9.4746,9.3908,9.4263,9.458,9.4285,9.4984,9.5489,9.5489,9.6266,9.6771,9.6771,9.6771,9.6755,9.6709,9.698,9.7106,9.7044,9.7038,9.7031,9.7006,9.7548,9.7859,9.7859,9.8395,9.8666,9.8666,9.815,9.7891,9.7891,9.796,9.7996,9.8035,9.8658,9.8597,9.8053,9.8053,9.7664,9.71,9.7057,9.6979,9.6884,9.6841,9.687,9.6932,0.0,0.0,0.0,0.0,0.0,0.0,0.0,0.0,0.0,0.0,0.0,0.0,0.0,0.0,0.0,0.0,0.0,7.6416,7.8054,8.0365,8.2279,8.3633,8.4878,8.5763,8.6324,8.6636,8.6792,8.6792,8.7096,8.725,8.725,8.725,8.725,8.725,8.7258,8.7114,8.6854,8.6905,8.5944,8.4358,8.4362,8.3194,8.1519,8.2107,8.1756,0.0,8.101,8.0454,7.9815,8.0699,8.1371,8.2246,8.4244,8.5308,8.6014,8.7061,8.7345,8.7291,8.7278,8.7174,8.7046,8.6929,8.7076,8.7343,8.7881,8.8397,8.9228,9.0682,9.2663,9.4255,9.4641,9.6122,9.6926,9.5799,9.5855,9.5839,9.5217,9.5839,9.6344,9.6344,9.6849,9.7199,9.7199,9.7182,9.7147,9.7106,9.7082,9.7038,9.6973,9.7237,9.7425,9.7397,9.8204,9.8669,9.8669,9.9172,9.9451,9.944,9.8943,9.8724,9.8744,9.8757,9.8828,9.8891,9.9516,9.9468,9.8941,9.8941,9.8596,9.8031,9.7994,9.7936,9.7862,9.7813,9.7827,9.7824,0.0,0.0,0.0,0.0,0.0,0.0,0.0,0.0,0.0,0.0,0.0,0.0,0.0,0.0,0.0,0.0,0.0,0.0,7.8134,7.9865,8.1231,8.2072,8.3785,8.4775,8.4816,8.5636,8.6027,8.6027,8.6794,8.7216,8.7255,8.7255,8.7255,8.7256,8.731,8.6847,8.6029,8.6125,8.5153,8.359,8.3593,8.3047,8.2226,8.2265,8.1797,8.1054,8.1053,8.0583,8.0073,8.0747,8.2159,8.3778,8.4598,8.6047,8.7416,8.741,8.7342,8.7286,8.7195,8.7113,8.7001,8.6953,8.747,8.8029,8.8184,8.9371,9.0803,9.1882,9.4133,9.6233,9.7196,9.8733,9.935,9.7678,9.8053,9.797,9.6344,9.6771,9.7276,9.7315,9.7276,9.7276,9.731,9.7252,9.721,9.721,9.7115,9.7044,9.6969,9.7782,9.8218,9.8176,9.8942,9.9367,9.9367,9.9406,9.9444,9.9524,9.9486,9.9482,9.9544,9.9551,9.963,9.9771,9.9816,9.9859,9.9879,9.9879,9.9806,9.9719,9.9712,9.9675,9.961,9.961,9.961,9.9487,0.0,0.0,0.0,0.0,0.0,0.0,0.0,0.0,0.0,0.0,0.0,0.0,0.0,0.0,0.0,0.0,0.0,0.0,7.7409,7.9084,8.0686,8.2174,8.3311,8.4213,8.4841,8.5076,8.5193,8.5193,8.5426,8.5855,8.648,8.648,8.648,8.648,8.6482,8.6014,8.5193,8.5234,8.4609,8.3593,8.3594,8.2695,8.1406,8.2031,8.2148,8.1953,8.1953,8.2656,8.3397,8.2292,8.3543,8.5542,8.5776,8.6555,8.7408,8.7388,8.7302,8.7192,8.7124,8.7046,8.7059,8.7658,8.7945,8.8556,9.0411,9.1199,9.2159,9.4418,9.6433,9.7896,9.819,9.9683,10.0485,9.9355,9.9336,9.9297,9.8869,9.8442,9.8403,9.9063,9.8558,9.838,9.8993,9.9009,9.8912,9.8813,9.8257,9.7866,9.778,9.8592,9.9003,9.898,9.9839,10.0303,10.0303,10.0883,10.1201,10.1301,10.0604,10.031,10.0286,10.0391,10.0415,10.0599,10.1317,10.1179,10.0695,10.0695,10.0295,9.9773,9.9731,9.97,9.9681,9.963,9.9643,9.972,0.0,0.0,0.0,0.0,0.0,0.0,0.0,0.0,0.0,0.0,0.0,0.0,0.0,0.0,0.0,0.0,0.0,0.0,0.0,7.8786,8.0153,8.1132,8.2343,8.3242,8.375,8.414,8.4336,8.4336,8.4726,8.5156,8.5625,8.5625,8.5625,8.5625,8.5625,8.5156,8.4336,8.4336,8.3828,0.0,0.0,8.2656,8.2187,8.2695,8.3125,8.3437,8.3437,8.4336,8.539,8.4763,8.5543,8.6793,8.7181,8.7602,8.7895,8.7421,8.7239,8.7234,8.7521,8.7521,8.7625,8.8381,8.917,9.0094,9.1496,9.2728,9.4144,9.6061,9.7917,9.9278,9.9691,10.092,10.1408,9.9988,10.0096,10.0096,9.9301,9.9124,9.9252,9.9724,9.9345,9.9199,9.9667,9.9578,9.9458,9.9415,9.8953,9.8685,9.864,9.9413,9.9878,9.9878,10.069,10.1201,10.1201,10.1703,10.1889,10.1889,10.1394,10.1201,10.1201,10.1208,10.1306,10.1384,10.1886,10.1919,10.1514,10.1616,10.1317,10.0884,10.0893,10.0797,10.0797,10.0793,10.0805,10.0881,0.0,0.0,0.0,0.0,0.0,0.0,0.0,0.0,0.0,0.0,0.0,0.0,0.0,0.0,0.0,0.0,0.0,0.0,0.0,0.0,7.9765,7.9883,8.1445,8.2344,8.2461,8.3086,8.3476,8.3594,8.4258,8.4609,8.4726,8.4726,8.4726,8.4726,8.4726,8.4258,8.3437,8.3437,8.3008,8.2304,8.2422,8.2929,8.3594,0.0,8.4297,8.5078,8.5195,8.5742,8.6484,8.7383,8.7616,8.769,8.8465,8.8679,8.8482,8.7473,8.7241,8.7382,8.8036,8.8229,8.8437,8.9229,9.0618,9.1902,9.2264,9.4231,9.6283,9.7359,9.8972,10.0383,10.1197,10.1996,10.2097,10.0412,10.0799,10.0712,9.9166,9.9501,9.9996,10.0112,9.9976,9.9894,9.9998,9.9841,9.9757,9.975,9.9683,9.9599,9.9483,10.0303,10.0814,10.0814,10.1502,10.1889,10.1889,10.1889,10.1889,10.1889,10.1889,10.1889,10.1889,10.1889,10.1897,10.2017,10.2096,10.2093,10.2197,10.2297,10.2282,10.2282,10.2282,10.2399,10.2515,10.2515,10.2599,10.2694,0.0,0.0,0.0,0.0,0.0,0.0,0.0,0.0,0.0,0.0,7.2461,7.3398,0.0,0.0,0.0,0.0,0.0,0.0,0.0,0.0,0.0,8.0742,8.1758,8.2656,8.3359,8.2812,8.289,8.3594,8.3047,8.3125,8.3828,8.3828,8.3828,8.3828,8.3828,8.3359,8.2539,8.2539,8.2422,8.2344,8.3086,8.3476,8.3672,8.4414,8.5234,0.0,8.6797,8.7148,8.7383,8.8203,8.8476,8.851,8.8652,8.8655,8.8438,8.7475,8.7608,8.8126,8.8259,8.8714,8.9366,9.0247,9.1217,9.2515,9.4701,9.6165,9.7513,9.9155,10.0387,10.1203,10.1395,10.1996,10.2503,10.2209,10.2085,10.2095,10.1806,10.1184,10.1084,10.1816,10.1179,10.1007,10.1608,10.1603,10.1485,10.1494,10.151,10.1115,10.038,10.1193,10.1696,10.1696,10.1812,10.1889,10.1889,10.1889,10.1889,10.1889,10.1889,10.1889,10.1889,10.1889,10.1897,10.2017,10.2096,10.2093,10.2197,10.2297,10.2282,10.2282,10.2282,10.2709,10.3415,10.3415,10.3916,10.45,0.0,0.0,0.0,0.0,0.0,0.0,0.0,6.9687,7.1094,7.1875,7.3555,7.4805,7.5234,7.5664,7.6445,0.0,0.0,0.0,0.0,0.0,0.0,8.164,8.25,8.3398,8.4258,8.3867,8.3867,8.4297,0.0,8.3867,8.4297,8.4297,8.4297,8.4258,8.3789,8.3359,8.2969,8.25,8.2578,8.3008,8.3437,8.414,8.5,8.5429,8.6133,0.0,8.7344,8.75,8.7617,8.8437,8.8709,8.8778,8.9187,8.9302,8.9159,8.8665,8.8744,8.9103,8.9449,8.9814,9.0386,9.1676,9.2658,9.3908,9.6067,9.7669,9.906,10.0411,10.1497,10.2119,10.2081,10.2387,10.2514,10.201,10.2202,10.2313,10.1684,10.1712,10.1895,10.2288,10.1808,10.1699,10.2092,10.1986,10.1897,10.1897,10.1889,10.1696,10.1309,10.1696,10.1889,10.1889,10.1889,10.1889,10.1889,10.1889,10.1889,10.1889,10.1889,10.1889,10.1889,10.1889,10.1912,10.1997,10.2121,10.2105,10.219,10.2712,10.2987,10.2981,10.3492,10.3881,10.4308,10.4308,10.4582,10.4988,0.0,0.0,0.0,0.0,0.0,0.0,0.0,7.0469,7.2148,7.25,7.4492,7.6055,7.6406,7.6445,7.707,0.0,0.0,0.0,0.0,0.0,0.0,0.0,8.3398,8.4297,8.5156,0.0,0.0,8.5195,8.5,0.0,0.0,0.0,0.0,0.0,8.4179,8.3867,8.3828,8.3164,8.3242,0.0,0.0,8.4961,8.6211,0.0,0.0,0.0,0.0,8.75,8.7617,8.8242,8.8434,8.8576,8.9374,8.9762,8.981,8.9535,8.9709,9.0089,9.0584,9.0852,9.1373,9.2879,9.395,9.5123,9.7054,9.8783,10.0297,10.14,10.2191,10.2819,10.2692,10.2698,10.24,10.1604,10.2097,10.2294,10.1418,10.189,10.2389,10.2288,10.221,10.2092,10.2092,10.1988,10.1889,10.1889,10.1889,10.1889,10.1889,10.1889,10.1889,10.1889,10.1889,10.1889,10.1889,10.1889,10.1889,10.1889,10.1889,10.1889,10.1889,10.1889,10.2005,10.2206,10.2318,10.2497,10.2719,10.3496,10.3908,10.392,10.458,10.5007,10.5202,10.5181,10.5299,10.5594,0.0,0.0,0.0,0.0,0.0,0.0,0.0,7.082,7.2578,7.414,7.5273,7.6484,7.8086,7.8242,7.8633,0.0,0.0,0.0,0.0,0.0,0.0,0.0,0.0,0.0,0.0,0.0,0.0,8.6094,8.5273,0.0,0.0,0.0,0.0,0.0,0.0,8.4765,8.4765,8.4687,0.0,0.0,0.0,0.0,0.0,0.0,0.0,0.0,0.0,8.75,8.75,8.7578,8.7575,8.768,8.8525,8.9253,8.9634,8.8849,8.9652,9.08,9.0864,9.1402,9.2216,9.3148,9.4041,9.5345,9.7886,9.9274,10.05,10.221,10.271,10.279,10.2785,10.2688,10.2695,10.2614,10.2585,10.2512,10.2411,10.2404,10.2389,10.2288,10.221,10.2092,10.2092,10.1988,10.1889,10.1889,10.1889,10.1889,10.1889,10.1889,10.1889,10.1889,10.1889,10.1889,10.1889,10.1889,10.1889,10.1889,10.1889,10.1889,10.1889,10.1889,10.2315,10.3096,10.3188,10.3688,10.4489,10.4609,10.4719,10.4813,10.4891,10.5396,10.6101,10.6082,10.661,10.7402,0.0,0.0,0.0,0.0,0.0,0.0,6.9414,7.1797,7.3828,7.4492,7.582,7.7344,7.9023,7.9219,7.957,8.039,0.0,0.0,0.0,0.0,0.0,0.0,0.0,0.0,0.0,0.0,8.664,8.6992,8.664,0.0,0.0,0.0,0.0,0.0,0.0,8.5664,8.5664,8.5117,0.0,0.0,0.0,0.0,0.0,0.0,0.0,0.0,0.0,0.0,8.75,8.746,8.7416,8.7445,8.7815,8.8441,8.9211,8.9865,9.0858,9.1731,9.1741,9.232,9.3133,9.3959,9.5206,9.6744,9.8868,9.9989,10.1011,10.2405,10.2791,10.2792,10.2792,10.2691,10.2698,10.2702,10.2612,10.2586,10.2509,10.2518,10.2394,10.2294,10.221,10.2092,10.2092,10.1988,10.1889,10.1889,10.1889,10.1889,10.1889,10.1889,10.1889,10.1889,10.1889,10.1889,10.1889,10.1889,10.1889,10.1889,10.2392,10.2701,10.2701,10.3204,10.3591,10.3901,10.3986,10.4301,10.4682,10.5301,10.5606,10.5707,10.6212,10.66,10.6917,10.6982,10.7199,10.7607,0.0,0.0,0.0,0.0,0.0,6.9453,6.9453,7.2187,7.4297,7.457,7.5898,7.7539,7.9492,7.9687,8.0156,8.1289,8.1367,0.0,0.0,0.0,0.0,0.0,0.0,0.0,0.0,0.0,8.75,8.75,8.75,8.75,0.0,0.0,8.75,8.7461,0.0,0.0,0.0,0.0,0.0,0.0,0.0,0.0,0.0,0.0,0.0,0.0,0.0,0.0,0.0,0.0,0.0,8.7748,8.7448,8.8092,8.9203,9.0407,9.1301,9.2009,9.2242,9.2899,9.3709,9.4504,9.5944,9.7603,9.9364,10.039,10.1409,10.2406,10.2692,10.2785,10.28,10.2697,10.2701,10.2718,10.2585,10.2591,10.2509,10.2484,10.2399,10.2294,10.221,10.2092,10.2092,10.1988,10.1889,10.1889,10.1889,10.1889,10.1889,10.1889,10.1889,10.1889,10.1889,10.1889,10.1889,10.1889,10.2005,10.2315,10.2895,10.3282,10.3591,10.4086,10.4511,10.479,10.4807,10.5092,10.5497,10.6095,10.6401,10.66,10.7183,10.7416,10.7383,10.7505,10.7599,10.7607,0.0,0.0,0.0,0.0,0.0,0.0,6.9414,7.164,7.3633,7.4492,7.5351,7.6875,7.9414,7.9687,8.039,8.2148,8.2304,0.0,0.0,0.0,0.0,0.0,0.0,0.0,0.0,0.0,8.75,8.75,8.75,8.75,8.75,8.75,8.75,8.75,0.0,0.0,0.0,0.0,0.0,0.0,0.0,0.0,0.0,0.0,0.0,0.0,0.0,0.0,0.0,0.0,0.0,0.0,0.0,8.847,8.9871,8.9923,9.0479,9.1304,9.2087,9.2943,9.3787,9.4509,9.5878,9.7488,9.9279,10.0415,10.1296,10.2308,10.2596,10.2688,10.282,10.2709,10.271,10.271,10.262,10.2594,10.2504,10.241,10.2389,10.2288,10.221,10.2092,10.2092,10.1988,10.1889,10.1889,10.1889,10.1889,10.1889,10.1889,10.1889,10.1889,10.1889,10.1889,10.1889,10.1889,10.2315,10.3204,10.3204,10.3591,10.4403,10.4403,10.4906,10.571,10.571,10.6317,10.7195,10.7202,10.7286,10.7416,10.7416,10.7416,10.7389,10.7516,10.7597,10.7612,0.0,0.0,0.0,0.0,0.0,0.0,0.0,7.1989,7.3398,7.3672,7.5,7.664,7.8672,7.9375,8.0625,8.2969,8.2656,0.0,0.0,0.0,0.0,0.0,0.0,0.0,0.0,8.75,8.75,8.75,8.75,8.75,8.75,8.75,8.75,8.75,8.75,8.75,0.0,0.0,0.0,0.0,0.0,0.0,0.0,0.0,0.0,0.0,0.0,0.0,0.0,0.0,0.0,0.0,0.0,0.0,0.0,9.0564,9.1359,9.2231,9.299,9.38,9.4635,9.5359,9.713,9.8854,9.9481,10.0703,10.1905,10.2416,10.2596,10.2688,10.2781,10.2709,10.271,10.271,10.262,10.2594,10.2504,10.241,10.2417,10.2195,10.2105,10.1993,10.2012,10.1881,10.1889,10.1889,10.1889,10.1889,10.1889,10.1889,10.1889,10.1889,10.1889,10.1889,10.1889,10.2508,10.2895,10.3204,10.4403,10.5014,10.5285,10.5912,10.6299,10.6608,10.6608,10.6782,10.7195,10.7195,10.7286,10.7416,10.7416,10.7401,10.7487,10.7609,10.7583,10.7816,0.0,0.0,0.0,0.0,0.0,0.0,0.0,7.1864,7.3043,7.371,7.4726,7.6328,7.8672,7.9414,8.0742,8.3359,8.3086,0.0,0.0,0.0,0.0,0.0,0.0,0.0,8.75,8.75,8.75,8.75,8.75,8.75,8.75,8.75,8.75,8.75,8.75,8.75,0.0,0.0,0.0,0.0,0.0,0.0,0.0,0.0,0.0,0.0,0.0,0.0,0.0,0.0,0.0,0.0,0.0,0.0,0.0,0.0,9.1646,9.249,9.3325,9.4193,9.4993,9.5661,9.7607,9.9398,9.9482,10.0785,10.2113,10.2396,10.2601,10.2707,10.2795,10.2697,10.2701,10.2715,10.2585,10.2489,10.2513,10.24,10.2303,10.2093,10.2114,10.1981,10.1897,10.1889,10.1889,10.1889,10.1889,10.1889,10.1889,10.1889,10.1889,10.1889,10.1889,10.209,10.2392,10.2895,10.3514,10.421,10.5208,10.5912,10.6183,10.681,10.7003,10.7003,10.7003,10.7091,0.0,10.7195,10.7286,10.7416,10.7416,10.7413,10.7516,10.7887,10.8099,10.8302,0.0,0.0,0.0,0.0,0.0,0.0,0.0,7.1419,7.2606,7.4293,7.4569,7.5898,7.9258,7.9648,8.0781,8.3476,0.0,0.0,0.0,0.0,0.0,0.0,0.0,0.0,8.75,8.75,8.75,8.75,8.75,8.75,8.75,8.75,8.75,8.75,8.75,8.75,0.0,0.0,0.0,0.0,0.0,0.0,0.0,0.0,0.0,0.0,0.0,0.0,0.0,0.0,0.0,0.0,0.0,0.0,0.0,0.0,0.0,0.0,0.0,9.4061,9.4835,9.5493,9.7412,9.912,9.9197,10.0511,0.0,10.2089,10.2383,10.2588,10.2704,10.2704,10.2683,10.2612,10.2482,10.2513,10.2417,10.2303,10.2093,10.1993,10.201,10.2019,10.1897,10.1889,10.1889,10.1889,10.1889,10.1889,10.1889,10.1889,10.1889,10.2005,10.2005,10.2392,10.3204,10.3282,10.421,10.571,10.5788,10.6183,10.7003,10.7003,10.7003,10.7003,10.7003,10.7099,10.7195,10.7202,10.7293,10.7416,10.7416,10.7491,10.771,10.8587,10.8994,10.9198,0.0,0.0,0.0,0.0,0.0,0.0,0.0,0.0,0.0,0.0,7.4174,7.5662,7.8397,7.9296,8.1015,0.0,0.0,0.0,0.0,0.0,0.0,0.0,0.0,0.0,8.75,8.75,8.75,8.75,8.75,8.75,8.75,8.75,8.75,8.75,8.75,8.746,0.0,0.0,0.0,0.0,0.0,0.0,0.0,0.0,0.0,0.0,8.7284,8.7684,0.0,0.0,0.0,0.0,0.0,0.0,0.0,0.0,9.1637,9.1954,9.2734,0.0,9.4583,9.5289,9.6823,9.8133,0.0,9.912,10.0183,10.1111,10.1403,10.1781,10.2581,10.2705,10.2581,10.2601,10.2493,10.2411,10.2311,10.219,10.2015,10.2017,10.1997,10.1912,10.1897,10.1889,10.1889,10.1889,10.1889,10.1889,10.1889,10.1889,10.2199,10.2895,10.2895,10.3011,10.3204,10.4519,10.5285,10.571,10.6415,10.681,10.7003,10.7003,10.7003,10.7003,10.7106,10.7114,10.7202,10.7305,10.7301,10.7416,10.7416,10.7802,10.8488,10.8782,10.9306,11.0016,0.0,0.0,0.0,0.0,0.0,0.0,0.0,0.0,0.0,0.0,0.0,0.0,0.0,0.0,0.0,0.0,0.0,0.0,0.0,0.0,0.0,0.0,0.0,8.75,8.75,8.75,8.75,8.75,8.75,8.75,8.75,8.746,8.746,8.746,8.7457,8.7413,0.0,0.0,0.0,0.0,0.0,0.0,0.0,0.0,0.0,0.0,8.7205,8.7561,0.0,8.8434,8.9292,9.0308,0.0,0.0,0.0,0.0,9.1016,9.1213,9.2396,9.3423,9.4394,9.5083,9.6506,9.7736,9.7744,9.8576,9.9495,10.0108,10.0789,10.1405,10.1899,10.23,10.2486,10.2518,10.2417,10.2303,10.2203,10.2089,10.2003,10.2004,10.1881,10.1889,10.1889,10.1889,10.1889,10.1889,10.1889,10.1889,10.1889,10.2315,10.2701,10.3204,10.3901,10.4287,10.4287,10.5208,10.5904,10.6299,10.681,10.7003,10.7003,10.7003,10.7003,10.7003,10.7091,10.709,10.7202,10.7286,10.732,10.7416,10.7804,10.8307,10.8916,10.9799,11.0395,11.0912,0.0,0.0,0.0,0.0,0.0,0.0,0.0,0.0,0.0,0.0,0.0,0.0,0.0,0.0,0.0,0.0,0.0,0.0,0.0,0.0,0.0,0.0,8.75,8.75,8.75,8.75,8.75,8.7461,8.7461,8.746,8.7499,8.7417,8.7374,8.7373,8.7395,8.7463,8.758,0.0,0.0,0.0,0.0,0.0,0.0,0.0,0.0,0.0,0.0,0.0,0.0,8.8846,8.9631,9.0326,9.0242,0.0,0.0,0.0,0.0,0.0,9.1784,9.3095,9.421,9.4908,9.629,9.7484,9.7493,9.8143,9.888,9.9179,10.0003,10.0806,10.1107,10.1691,10.2194,10.2288,10.2209,10.208,10.1993,10.2003,10.2012,10.1897,10.1889,10.1889,10.1889,10.1889,10.1889,10.1889,10.1889,10.1889,10.1889,10.2701,10.3282,10.3398,10.4906,10.5788,10.5904,10.5904,10.6299,10.7003,10.7003,10.7003,10.7003,10.7003,10.7003,10.7003,10.7099,10.7098,10.7202,10.7293,10.7404,10.7688,10.8387,10.889,10.941,11.0883,11.1597,11.1798,0.0,0.0,0.0,0.0,0.0,0.0,0.0,0.0,0.0,0.0,0.0,0.0,0.0,0.0,0.0,0.0,0.0,0.0,0.0,0.0,0.0,8.74,8.7458,8.75,8.75,8.75,8.746,8.7419,8.7415,8.7409,8.74,8.7347,8.7333,8.7319,8.7313,8.7739,8.8402,8.8461,0.0,0.0,8.8813,0.0,0.0,0.0,0.0,0.0,0.0,0.0,0.0,8.8876,8.9828,9.0907,9.0184,0.0,0.0,0.0,0.0,0.0,9.0227,9.1985,9.3965,9.4824,9.5777,9.6499,9.6499,9.6728,9.7145,9.8028,9.8464,9.9112,10.0707,10.1111,10.1412,10.2093,10.2098,10.2,10.2017,10.1997,10.1905,10.1897,10.1889,10.1889,10.1889,10.1889,10.1889,10.1889,10.1889,10.1889,10.1889,10.2701,10.3514,10.421,10.5208,10.6105,10.681,10.681,10.6887,10.7003,10.7003,10.7003,10.7003,10.7003,10.7003,10.7011,10.7083,10.7188,10.721,10.7307,10.7792,10.8504,10.8581,10.9598,11.0982,11.1411,11.1882,11.2604,0.0,0.0,0.0,0.0,0.0,0.0,0.0,0.0,0.0,0.0,0.0,0.0,0.0,0.0,0.0,0.0,0.0,0.0,0.0,0.0,8.7061,8.6593,8.6639,8.6938,8.7418,8.6986,8.6943,8.7407,8.7858,8.8037,8.8068,8.7993,8.7916,8.7913,8.793,8.8181,8.8587,8.9118,8.9577,0.0,0.0,0.0,0.0,0.0,0.0,0.0,0.0,0.0,0.0,0.0,8.9855,9.0979,8.9671,0.0,0.0,0.0,0.0,0.0,9.0355,9.2133,9.3912,9.4797,9.5672,9.6288,9.6288,9.6397,9.6574,9.7092,9.8029,9.9031,9.9918,10.08,10.1485,10.1918,10.1888,10.1912,10.1912,10.1912,10.1889,10.1889,10.1889,10.1889,10.1889,10.1889,10.1889,10.1889,10.1889,10.2082,10.2585,10.3398,10.421,10.51,10.5912,10.6608,10.7003,10.7003,10.7003,10.7003,10.7003,10.7003,10.7003,10.7003,10.7003,10.7011,10.709,10.7195,10.721,10.7903,10.8309,10.8814,10.9708,11.0601,11.1397,11.1911,11.2399,11.2785,0.0,0.0,0.0,0.0,0.0,0.0,0.0,0.0,0.0,0.0,0.0,0.0,0.0,0.0,0.0,0.0,0.0,0.0,0.0,8.6636,8.6874,8.6215,8.6038,8.6291,8.7042,8.6412,8.6599,8.7642,8.8225,8.8623,8.8841,8.8557,8.8545,8.8694,8.8541,8.8732,8.9148,8.988,9.0264,0.0,0.0,0.0,0.0,0.0,0.0,0.0,0.0,0.0,0.0,0.0,0.0,0.0,0.0,0.0,0.0,8.7363,8.7709,8.8679,8.9979,9.1672,9.3249,9.395,9.5211,9.6288,9.6288,9.6497,9.6693,9.675,9.8022,9.9216,9.949,10.0687,10.1697,10.1722,10.1818,10.1912,10.1889,10.1889,10.1889,10.1889,10.1889,10.2005,10.2199,10.2005,10.2082,10.2508,10.2315,10.2585,10.3398,10.4287,10.5014,10.571,10.6492,10.7003,10.7003,10.7003,10.7003,10.7003,10.7003,10.7003,10.7003,10.7003,10.7003,10.7011,10.709,10.7312,10.7597,10.8414,10.8892,10.9397,11.0796,11.1391,11.1688,11.2405,11.2716,11.282,0.0,0.0,0.0,0.0,0.0,0.0,0.0,0.0,0.0,0.0,0.0,0.0,0.0,0.0,0.0,0.0,0.0,0.0,0.0,8.6566,8.7066,8.7028,8.6282,8.5924,8.6029,8.601,8.6816,8.8437,8.8332,8.8721,8.9492,8.8705,8.8766,8.9549,8.8811,8.9379,9.0828,9.0943,9.1407,9.1887,9.0323,0.0,0.0,0.0,0.0,0.0,0.0,0.0,0.0,0.0,0.0,0.0,0.0,0.0,8.7325,8.644,8.6824,8.7517,8.7632,8.9479,9.1402,9.1479,9.3903,9.6288,9.6288,9.6865,9.7479,9.757,9.8329,9.9174,10.008,10.0985,10.1581,10.1705,10.1691,10.1801,10.1881,10.1889,10.1889,10.1889,10.1889,10.2199,10.3011,10.2392,10.2508,10.4094,10.3514,10.3514,10.4287,10.5092,10.5594,10.571,10.6492,10.7003,10.7003,10.7003,10.7003,10.7003,10.7003,10.7003,10.7003,10.7003,10.7003,10.7011,10.709,10.7707,10.8419,10.8608,10.9708,11.1106,11.1301,11.1805,11.2487,11.261,11.2683,11.2815,0.0,0.0,0.0,0.0,0.0,0.0,0.0,0.0,0.0,0.0,0.0,0.0,0.0,0.0,0.0,0.0,0.0,0.0,0.0,8.5607,8.6131,8.6131,8.5845,8.5688,8.5663,8.6284,8.7171,8.832,8.935,9.029,9.1073,9.0255,8.9741,8.9571,8.9307,8.9255,8.9376,9.0409,9.1013,9.115,9.0008,8.9523,0.0,0.0,0.0,0.0,0.0,0.0,0.0,0.0,8.8718,8.8718,8.8718,8.8094,8.7209,8.6363,8.6709,8.7517,8.8064,8.9671,9.1441,9.2479,9.4134,9.5489,9.5489,9.6519,9.7528,9.7565,9.8691,9.9893,10.0816,10.1296,10.1505,10.1579,10.1603,10.1693,10.1688,10.1688,10.1688,10.1688,10.1815,10.1887,10.2196,10.2012,10.2392,10.3591,10.3398,10.3784,10.5092,10.5478,10.5904,10.6492,10.6802,10.7003,10.7003,10.7003,10.7003,10.7003,10.7003,10.7003,10.7003,10.7003,10.7003,10.7003,10.7695,10.8205,10.8613,10.9797,11.0718,11.1417,11.1883,11.2291,11.2588,11.2592,11.26,11.2683,0.0,0.0,0.0,0.0,0.0,0.0,0.0,0.0,0.0,0.0,0.0,0.0,0.0,0.0,0.0,0.0,0.0,0.0,8.4126,8.4961,8.5578,8.5888,8.5946,8.5946,8.5888,8.6814,8.773,8.8569,9.0264,9.1416,9.1924,9.0807,9.0148,8.9869,8.9313,8.8934,8.8701,8.977,9.0341,9.0495,8.9657,8.9284,0.0,0.0,0.0,0.0,0.0,0.0,0.0,0.0,8.835,8.8017,8.8825,8.8132,8.694,8.6594,8.6748,8.7132,8.7709,8.9133,9.0748,9.2133,9.3557,9.472,9.5297,9.6711,9.798,9.825,9.9481,10.0596,10.1212,10.1385,10.1519,10.1509,10.1496,10.1588,10.1615,10.1585,10.1585,10.1585,10.1599,10.1796,10.2105,10.1893,10.2405,10.3783,10.3706,10.4294,10.5981,10.6105,10.6415,10.7003,10.7003,10.7003,10.7003,10.7003,10.7003,10.7003,10.7003,10.7003,10.7003,10.7003,10.7197,10.739,10.809,10.8702,10.9383,11.0581,11.1318,11.1696,11.2317,11.2602,11.2596,11.2601,11.2592,11.2583,0.0,0.0,0.0,0.0,0.0,0.0,0.0,0.0,0.0,0.0,0.0,0.0,0.0,0.0,0.0,0.0,0.0,0.0,8.4095,8.49,8.5783,8.6635,8.6773,8.6773,8.6713,8.7565,8.8448,8.9323,9.0966,9.1786,9.1747,9.0037,8.9725,9.0586,8.8783,8.8482,8.9251,8.9197,8.9622,9.0209,8.9399,8.9037,8.8895,0.0,0.0,0.0,0.0,0.0,0.0,0.0,8.7583,8.6555,8.9086,8.8124,8.6286,8.7132,8.6786,8.6094,8.6132,8.7401,8.891,8.9739,9.1825,9.4172,9.5942,9.7596,9.9058,9.9913,10.0712,10.1279,10.1279,10.1279,10.1318,10.1499,10.1518,10.1507,10.1606,10.1585,10.1585,10.1585,10.1585,10.1894,10.282,10.2087,10.2709,10.5392,10.4812,10.5086,10.6918,10.7003,10.7003,10.7003,10.7003,10.7003,10.7003,10.7003,10.7003,10.7003,10.7003,10.7003,10.7003,10.7003,10.7506,10.8319,10.84,10.9407,11.0887,11.1003,11.1589,11.2398,11.2398,11.2484,11.2583,11.2583,11.2588,11.2604,0.0,0.0,0.0,0.0,0.0,0.0,0.0,0.0,0.0,0.0,0.0,0.0,0.0,0.0,0.0,0.0,0.0,0.0,8.4063,8.4347,8.4862,8.5675,8.6307,8.6655,8.6636,8.744,8.8576,9.0075,9.1231,9.1476,9.0856,9.0353,8.9604,8.8717,8.8107,8.7662,8.7377,8.7874,8.8513,8.9184,8.8321,8.8321,8.873,0.0,0.0,0.0,0.0,0.0,0.0,0.0,0.0,0.0,8.7709,8.7209,8.617,8.6401,8.6286,8.6363,8.7594,8.8295,8.9334,9.1902,9.3595,9.522,9.7519,9.8442,9.9211,10.0596,10.1087,10.1279,10.1279,10.1279,10.1289,10.1404,10.1404,10.1414,10.1414,10.1414,10.1414,10.1414,10.1518,10.1593,10.1911,10.1695,10.2404,10.4408,10.4392,10.5014,10.6778,10.6885,10.7003,10.7003,10.7003,10.7003,10.7003,10.7003,10.7003,10.7003,10.7003,10.7003,10.7003,10.7614,10.8086,10.8396,10.9612,11.0397,11.1003,11.1585,11.2103,11.2319,11.2319,11.2411,11.2394,11.2394,11.2408,11.2391,0.0,0.0,0.0,0.0,0.0,0.0,0.0,0.0,0.0,0.0,8.1807,8.189,0.0,0.0,0.0,0.0,0.0,0.0,8.4018,8.4095,8.4443,8.5256,8.6139,8.659,8.6569,8.7304,8.8255,8.9303,9.0204,9.058,9.038,8.9683,8.8794,8.775,8.7371,8.6882,8.6406,8.6825,8.7486,8.8208,8.7669,8.7784,8.8139,0.0,0.0,0.0,0.0,0.0,0.0,0.0,0.0,0.0,8.7517,8.7094,8.6247,8.694,8.6901,8.6901,8.8333,8.918,9.0248,9.2633,9.4364,9.6172,9.8759,9.9558,10.0096,10.1087,10.1279,10.1279,10.1279,10.1279,10.1279,10.1279,10.1279,10.1279,10.1279,10.1279,10.1279,10.1279,10.1414,10.1414,10.1414,10.1817,10.2604,10.3991,10.4506,10.531,10.6697,10.6907,10.7003,10.7003,10.7003,10.7003,10.7003,10.7003,10.7003,10.7003,10.739,10.7498,10.7498,10.8086,10.8697,10.9393,11.07,11.1314,11.1411,11.2002,11.2197,11.2306,11.2306,11.229,11.232,11.232,11.232,11.2405,0.0,0.0,0.0,0.0,0.0,0.0,0.0,0.0,0.0,0.0,8.2277,8.2471,0.0,0.0,0.0,0.0,0.0,0.0,0.0,8.405,8.4398,8.5127,8.6087,8.6556,8.6493,8.7147,8.7526,8.7603,8.8467,8.9247,8.9933,8.8421,8.7681,8.7557,8.667,8.6292,8.6284,8.6165,8.6594,8.7401,8.7325,8.7325,8.7401,8.7325,0.0,0.0,0.0,0.0,0.0,0.0,0.0,0.0,8.794,8.7363,8.6401,8.7987,8.794,8.7594,8.8556,8.9979,9.1479,9.2556,9.4749,9.7288,9.9683,10.0789,10.1279,10.1279,10.1279,10.1279,10.1279,10.1279,10.1279,10.1279,10.1279,10.1279,10.1279,10.1279,10.1279,10.1279,10.1279,10.1279,10.1394,10.2097,10.2982,10.4013,10.4887,10.5788,10.6697,10.6907,10.7003,10.7003,10.7003,10.7003,10.7003,10.7003,10.6995,10.7119,10.7885,10.8388,10.8504,10.8504,10.9393,11.1018,11.1783,11.2093,11.2093,11.2093,11.2105,11.2218,11.2218,11.2189,11.2298,11.2414,11.2406,11.2515,0.0,0.0,0.0,0.0,0.0,0.0,0.0,0.0,0.0,0.0,0.0,0.0,0.0,0.0,0.0,0.0,0.0,0.0,0.0,8.3618,8.4003,8.4196,8.5654,8.6428,8.6406,8.6485,8.6824,8.751,8.8444,8.8668,8.8151,8.8405,8.8181,8.751,8.7275,8.7127,8.708,8.641,8.6594,8.7325,8.6671,8.6786,8.7325,8.6632,8.6313,0.0,0.0,0.0,0.0,0.0,0.0,0.0,8.6555,8.6401,8.617,8.6555,8.7017,8.7709,8.9239,9.0402,9.1902,9.4788,9.7403,9.9606,10.0789,10.1212,10.1279,10.1279,10.1279,10.1279,10.1279,10.1279,10.1279,10.1279,10.1279,10.1279,10.1279,10.1279,10.1279,10.1279,10.1279,10.1597,10.2289,10.252,10.33,10.4908,10.5311,10.5788,10.6697,10.6907,10.7003,10.7003,10.7003,10.7003,10.7003,10.7003,10.7313,10.8001,10.8194,10.9007,11.0283,11.0283,11.0786,11.1783,11.2015,11.2093,11.2093,11.2093,11.211,11.2088,11.2088,11.2097,11.2191,11.2896,11.3116,11.3084,0.0,0.0,0.0,0.0,0.0,0.0,0.0,0.0,0.0,0.0,0.0,0.0,0.0,0.0,0.0,0.0,0.0,0.0,0.0,8.3087,8.3656,8.4428,8.5636,8.6285,8.6285,8.6207,8.6351,8.6852,8.7324,8.7733,8.8119,8.8117,8.8131,8.8045,8.7619,8.7401,8.7325,8.6478,8.6363,8.6748,8.6286,8.6363,8.6748,8.6286,8.6151,8.6192,8.6192,0.0,0.0,0.0,0.0,0.0,0.0,0.0,8.617,8.6594,8.7325,8.8286,8.9547,9.1133,9.321,9.6634,9.8788,10.0414,10.1597,10.1587,10.1394,10.1779,10.1597,10.1279,10.1279,10.1279,10.1279,10.1279,10.1279,10.1279,10.1279,10.1279,10.1279,10.1279,10.1712,10.2097,10.2597,10.3415,10.4311,10.5216,10.582,10.6305,10.6812,10.6907,10.7003,10.7003,10.7003,10.7197,10.7614,10.7614,10.8001,10.8891,10.9316,11.0206,11.1396,11.1396,11.1706,11.2093,11.2093,11.2093,11.2093,11.2093,11.2093,11.2093,11.2093,11.2286,11.2711,11.3093,11.3503,11.392,0.0,0.0,0.0,0.0,0.0,0.0,0.0,0.0,0.0,0.0,0.0,0.0,0.0,0.0,0.0,0.0,0.0,0.0,0.0,8.2586,8.3461,8.4989,8.5776,8.6168,8.6168,8.6126,8.6094,8.6094,8.6094,8.6978,8.8679,8.8094,8.8209,8.8863,8.8132,8.7748,8.7555,8.6517,8.6094,8.6094,8.6094,8.6094,8.6094,8.6094,8.6143,8.6168,8.6168,8.6168,8.6168,8.6168,0.0,0.0,0.0,0.0,8.6247,8.6978,8.7786,8.8679,8.9624,9.2095,9.5057,9.8057,9.9577,10.0702,10.2087,10.1905,10.1607,10.2318,10.1799,10.1279,10.1279,10.1279,10.1279,10.1279,10.1279,10.1279,10.1279,10.1279,10.1394,10.151,10.2212,10.2712,10.2981,10.4388,10.538,10.5515,10.6299,10.6783,10.68,10.6915,10.7003,10.7003,10.7003,10.739,10.831,10.831,10.8813,10.9703,11.0593,11.1396,11.2093,11.2093,11.2093,11.2093,11.2093,11.2093,11.2093,11.2093,11.2093,11.2093,11.2295,11.2711,11.3304,11.3485,11.4095,11.4791,0.0,0.0,0.0,0.0,0.0,0.0,0.0,0.0,0.0,0.0,8.2277,8.2161,8.053,8.0376,0.0,0.0,0.0,0.0,8.034,0.0,0.0,8.4895,8.5687,8.611,8.611,8.6094,8.6094,8.6094,8.6094,8.6978,8.8718,8.9286,8.9624,8.9739,8.9624,8.9171,8.841,8.6786,8.6094,8.6094,8.6094,8.6094,8.6094,8.6094,8.6094,8.611,8.611,8.611,8.611,8.611,8.6102,0.0,0.0,0.0,8.6132,8.6247,8.6901,8.7902,8.947,9.3355,9.7288,9.8481,10.0086,10.1384,10.1615,10.1602,10.16,10.1586,10.1501,10.1279,10.1279,10.1279,10.1279,10.1279,10.1279,10.1279,10.1279,10.1279,10.1597,10.2289,10.252,10.3212,10.4597,10.5081,10.5601,10.6496,10.6721,10.6894,10.7017,10.6995,10.7003,10.7003,10.7003,10.739,10.831,10.831,10.9084,11.0593,11.1512,11.2015,11.2093,11.2093,11.2093,11.2093,11.2093,11.2093,11.2093,11.2093,11.2093,11.2209,11.2914,11.3218,11.3407,11.478,11.5282,11.5391,0.0,0.0,0.0,0.0,0.0,0.0,0.0,0.0,0.0,0.0,0.0,8.1581,8.0337,8.0157,0.0,0.0,0.0,0.0,8.0583,8.2055,0.0,8.4132,8.4978,8.5431,8.5431,8.5431,8.5209,8.4709,8.5209,8.6555,8.8718,9.0017,9.0624,9.0624,9.0624,8.9902,8.8641,8.7363,8.6555,8.6094,8.6094,8.6094,8.6094,8.6094,8.6094,8.6055,8.5593,8.5431,8.5431,8.5431,8.5431,8.5517,8.5978,0.0,0.0,0.0,8.6709,8.7863,9.0056,9.2941,9.5826,9.7634,9.9441,10.1008,10.2019,10.1899,10.1713,10.2114,10.1789,10.1395,10.1289,10.1279,10.1279,10.1279,10.1279,10.1279,10.1279,10.1279,10.1587,10.252,10.302,10.3809,10.511,10.5708,10.6312,10.6712,10.6886,10.6915,10.6995,10.7003,10.7003,10.7003,10.7506,10.8117,10.9007,10.9509,11.0283,11.1512,11.1899,11.2093,11.2093,11.2093,11.2093,11.2093,11.2093,11.2093,11.2093,11.2604,11.2797,11.2905,11.3712,11.4198,11.4693,11.5311,11.5779,11.6197,0.0,0.0,0.0,0.0,0.0,0.0,0.0,0.0,0.0,0.0,0.0,8.1124,8.0273,0.0,0.0,0.0,0.0,0.0,8.1062,0.0,0.0,0.0,8.4439,8.4893,8.4893,8.4893,8.4478,8.3601,8.4478,8.6094,8.841,9.0325,9.121,9.121,9.1441,9.0594,8.894,8.7863,8.6901,8.6094,8.6094,8.6094,8.6094,8.6094,8.6094,8.6017,8.5431,8.5201,8.5201,8.5201,8.5201,8.5316,8.5901,8.6094,0.0,0.0,0.0,8.7902,9.0248,9.2095,9.4018,9.6557,9.8574,10.0283,10.1786,10.1781,10.1787,10.2305,10.1922,10.149,10.1299,10.1279,10.1279,10.1279,10.1279,10.1279,10.1279,10.151,10.202,10.2789,10.3704,10.46,10.5486,10.6294,10.6703,10.6812,10.6907,10.7003,10.7003,10.7003,10.7003,10.7003,10.7807,10.8697,10.9509,11.0593,11.1521,11.2093,11.2093,11.2093,11.2093,11.2093,11.2093,11.2093,11.2093,11.2209,11.2488,11.3081,11.3506,11.3798,11.4509,11.5109,11.5611,11.5681,11.6109,11.6605,0.0,0.0,0.0,0.0,0.0,0.0,0.0,0.0,0.0,0.0,0.0,8.1053,8.0203,8.0066,7.9335,7.7645,7.898,0.0,0.0,0.0,0.0,0.0,0.0,0.0,8.4893,8.4893,8.4478,8.3601,8.4478,8.5786,8.7517,9.0017,9.121,9.1248,9.2056,9.1479,8.9739,8.8094,8.6901,8.6094,8.6094,8.6094,8.6094,8.6094,8.6094,8.6094,8.6055,8.6055,8.6055,8.6055,8.6055,8.6055,8.6094,8.6094,8.6094,0.0,0.0,0.0,8.9509,9.1248,9.3172,9.5749,9.779,9.9386,10.0187,10.1105,10.1688,10.171,10.1582,10.149,10.1299,10.1279,10.1279,10.1279,10.1279,10.1279,10.1279,10.202,10.2904,10.3712,10.4696,10.5486,10.6411,10.6705,10.6812,10.6812,10.6907,10.7003,10.7003,10.7003,10.7003,10.7003,10.7807,10.8697,10.9509,11.1203,11.2093,11.2093,11.2093,11.2093,11.2093,11.2093,11.2093,11.2093,11.2093,11.2488,11.3223,11.3203,11.3707,11.4509,11.5292,11.5501,11.5486,11.6323,11.6594,11.6495,0.0,0.0,0.0,0.0,0.0,0.0,0.0,0.0,0.0,0.0,0.0,0.0,0.0,7.9983,7.9471,7.8279,7.9198,0.0,0.0,0.0,0.0,0.0,0.0,0.0,8.4093,8.4055,8.3401,8.2016,8.3401,8.4901,8.6632,8.9162,9.0979,9.2056,9.2903,9.2018,8.9816,8.8709,8.7709,8.6901,8.6324,8.644,8.694,8.694,8.694,8.6863,8.6286,8.5786,8.5316,8.5316,8.5316,8.5431,8.594,8.6094,8.6094,8.6094,8.6324,8.6824,8.7979,8.9556,9.1432,9.398,9.6012,9.7727,9.9106,10.0102,10.0801,10.0704,10.1112,10.149,10.1299,10.1279,10.1279,10.1279,10.1279,10.1279,10.1279,10.2097,10.2904,10.3789,10.4696,10.5592,10.6506,10.6703,10.68,10.6907,10.6979,10.7003,10.7003,10.7003,10.7003,10.7003,10.831,10.9703,11.1211,11.1783,11.2093,11.2093,11.2093,11.2093,11.2093,11.2093,11.2411,11.2914,11.2813,11.3019,11.3289,11.4412,11.5012,11.5292,11.5992,11.6316,11.6312,11.6506,11.649,11.6495,0.0,0.0,0.0,0.0,0.0,0.0,0.0,0.0,8.2852,8.2217,0.0,0.0,0.0,0.0,8.09,8.0322,8.0508,8.1246,8.2631,8.2747,0.0,0.0,0.0,0.0,8.4055,8.4055,8.3208,8.1516,8.3208,8.4593,8.5747,8.8286,9.0133,9.1248,9.2056,9.1479,8.9816,8.8748,8.7748,8.6901,8.6324,8.6632,8.7401,8.7401,8.7594,8.7748,8.7171,8.6632,8.6132,8.5824,8.5747,8.5786,8.6017,8.6094,8.6094,8.6094,8.6094,8.6286,8.7171,8.8209,8.9671,9.221,9.3983,9.5632,9.7597,9.8759,9.9556,10.0101,10.0604,10.1106,10.1299,10.1279,10.1279,10.1279,10.1279,10.1279,10.1279,10.2289,10.3299,10.3916,10.5014,10.6005,10.6714,10.6812,10.689,10.6995,10.7003,10.7003,10.7003,10.7003,10.7313,10.7807,10.92,11.0593,11.2093,11.2093,11.2093,11.2093,11.2093,11.2093,11.2093,11.2406,11.2784,11.3286,11.3805,11.4018,11.4123,11.5206,11.5716,11.5992,11.6494,11.6605,11.6594,11.6517,11.6495,11.6495,0.0,0.0,0.0,0.0,0.0,0.0,8.3999,8.383,8.383,8.3792,0.0,0.0,0.0,0.0,0.0,8.3601,8.2832,8.2716,8.3563,8.364,8.4016,0.0,0.0,8.4931,8.4893,8.4893,8.4055,8.2324,8.4055,8.4893,8.497,8.7478,8.8679,8.8718,8.9479,8.9816,8.9701,8.8094,8.6901,8.6132,8.6132,8.6671,8.744,8.7478,8.8017,8.8795,8.8795,8.8795,8.8641,8.7786,8.744,8.7286,8.6363,8.6094,8.6094,8.6094,8.6094,8.6286,0.0,0.0,0.0,9.0556,9.1904,9.3243,9.5739,9.701,9.8127,9.9736,10.0086,10.0289,10.1087,10.1279,10.1279,10.1279,10.1279,10.1279,10.1279,10.2789,10.3906,10.4013,10.5619,10.6714,10.6804,10.6907,10.7003,10.7003,10.7003,10.7003,10.7003,10.6995,10.7807,10.9385,11.0313,11.1203,11.2084,11.2084,11.2084,11.2084,11.2084,11.2084,11.22,11.2914,11.3186,11.338,11.4897,11.5601,11.5678,11.5519,11.5888,11.6687,11.6617,11.6495,11.6495,11.6495,11.6495,11.6495,0.0,0.0,0.0,0.0,0.0,8.5735,8.4805,8.4681,8.4427,0.0,0.0,0.0,8.3633,8.3617,8.3601,8.3601,8.337,8.3593,8.4478,8.4555,8.4901,8.5747,8.5786,8.5508,8.4893,8.4893,8.4362,8.3255,8.4362,8.4893,8.4931,8.6863,8.7748,8.7786,8.7979,8.8094,8.8055,8.7594,8.7248,8.7055,8.7055,8.7555,8.8487,8.9671,9.0287,9.0594,9.121,9.1056,9.0364,8.9509,8.8825,8.8064,8.6555,8.6094,8.6094,8.6094,8.6094,8.617,8.6401,0.0,0.0,0.0,0.0,0.0,9.414,9.5602,9.6825,9.7287,9.8807,10.0183,10.0414,10.0904,10.1279,10.1279,10.1279,10.1279,10.1279,10.2789,10.3906,10.4013,10.5619,10.6714,10.6804,10.6907,10.7003,10.7003,10.7003,10.7003,10.7003,10.7517,10.8298,10.9308,11.0119,11.1007,11.1895,11.1895,11.1895,11.1895,11.1895,11.2204,11.2821,11.2986,11.37,11.5012,11.5288,11.5797,11.6406,11.6382,11.6385,11.6617,11.6506,11.6495,11.6495,11.6495,11.6495,11.6495,0.0,0.0,8.8243,8.812,8.7719,8.7225,8.6645,8.656,8.6351,0.0,0.0,0.0,8.5717,8.5717,8.5563,8.5217,8.5178,8.5247,8.5401,8.5401,8.5624,8.6094,8.6094,8.5901,8.5393,8.5401,8.4978,8.4132,8.4978,8.5247,8.4931,8.6247,8.6863,8.6863,8.6863,8.6863,8.6863,8.6863,8.7055,8.744,8.7786,8.8671,8.9902,9.1248,9.1941,9.2326,9.2826,9.2672,9.2095,9.1287,8.9979,8.8449,8.7094,8.6401,8.6094,8.6094,8.6094,8.6094,8.6094,8.7094,8.8363,8.921,0.0,0.0,9.3364,9.448,9.5518,9.6596,9.825,9.9683,9.999,10.0789,10.1279,10.1279,10.1279,10.1279,10.1279,10.279,10.4013,10.4108,10.5713,10.6798,10.6812,10.6903,10.689,10.6886,10.6886,10.6886,10.6886,10.7906,10.8817,10.9186,11.0382,11.1308,11.1809,11.1809,11.1809,11.1809,11.2118,11.2504,11.3005,11.3689,11.4594,11.5519,11.579,11.6094,11.6594,11.6594,11.6589,11.6495,11.6495,11.6495,11.6495,11.6495,11.6495,11.6495,0.0,8.9277,8.9115,8.895,8.8934,8.8917,8.8842,8.891,8.8987,0.0,8.8987,8.8987,8.8987,8.891,8.8517,8.7748,8.7594,8.7209,8.644,8.6401,8.6401,8.6401,8.6286,8.6247,8.6247,8.617,8.5747,8.5008,8.5747,8.5747,8.5055,8.5786,8.6094,8.6094,8.6094,8.6094,8.6094,8.6094,8.6671,8.7632,8.8479,8.9825,9.1479,9.2518,9.3403,9.4134,9.421,9.4249,9.4095,9.2979,9.0979,8.8795,8.7863,8.7017,8.6401,8.6401,8.6324,8.6247,8.6247,8.6863,8.7709,8.8526,8.944,0.0,9.3056,9.371,9.448,9.6749,9.798,9.8904,9.9798,10.0596,10.1212,10.1279,10.1279,10.1279,10.1279,10.279,10.3887,10.4181,10.5613,10.6709,10.6804,10.6804,10.6807,10.6687,10.6716,10.6707,10.6698,10.8279,10.9205,10.9186,11.0893,11.1819,11.1819,11.1819,11.1809,11.1886,11.258,11.3082,11.3313,11.4687,11.5405,11.5597,11.6193,11.6495,11.6495,11.6495,11.6495,11.6495,11.6495,11.6611,11.6599,11.6484,11.6611,11.6599,9.1971,9.1352,9.0606,8.9821,8.9688,8.968,8.9671,9.0248,9.071,9.071,9.071,9.071,9.071,9.0094,8.9586,8.9432,8.8825,8.8372,8.8218,8.8179,8.8179,8.8179,8.7517,8.7132,8.7132,8.6478,8.6017,8.5863,8.6017,8.6017,8.5863,8.6017,8.6094,8.6094,8.6094,8.6094,8.6094,8.6094,8.7017,8.8526,8.9325,9.071,9.2479,9.4711,9.6057,9.6865,9.7557,9.7788,9.7365,9.4441,9.2249,9.0441,8.8949,8.8333,8.8179,8.8179,8.7709,8.7132,8.7132,8.7786,8.8487,8.8679,9.0364,0.0,9.2633,9.3787,9.4874,9.5374,9.6711,9.8019,9.8904,9.976,10.0481,10.1212,10.1279,10.1279,10.1279,10.2183,10.3204,10.3887,10.4994,10.5889,10.658,10.6705,10.6696,10.6716,10.6716,10.6679,10.6488,10.8212,10.9098,10.9017,11.0585,11.1585,11.1585,11.1585,11.1893,11.2509,11.2702,11.351,11.4906,11.5193,11.572,11.6298,11.638,11.6495,11.6495,11.6495,11.6495,11.6495,11.6495,11.6907,11.7484,11.6803,11.6907,11.7407,9.2796,9.2258,9.1762,9.1296,9.121,9.1325,9.1748,9.2556,9.3095,9.3095,9.348,9.3749,9.3749,9.2979,9.2287,9.1825,9.1056,9.0402,8.9979,8.9556,8.9286,8.9286,8.8479,8.8064,8.8064,8.7171,8.6748,8.6748,8.6324,8.6094,8.6094,8.6094,8.6094,8.6094,8.6094,8.6094,8.6094,8.6094,8.7094,8.8756,8.9594,9.1171,9.3287,9.498,9.6403,9.7557,9.798,9.8134,9.7827,9.5711,9.3864,9.221,9.0979,9.0287,8.9863,8.944,8.8979,8.8556,8.8171,8.8671,8.9402,8.9825,9.121,0.0,0.0,9.4412,9.5104,9.5557,9.6634,9.7634,9.8057,9.9221,10.0221,10.0596,10.1019,10.1279,10.1279,10.2097,10.2809,10.3281,10.4493,10.5485,10.5986,10.641,10.6584,10.6603,10.6603,10.6497,10.6486,10.8103,10.8996,10.8906,11.0598,11.1511,11.1511,11.1895,11.2291,11.2714,11.3599,11.4484,11.5291,11.5676,11.6099,11.6495,11.6495,11.6495,11.6495,11.6495,11.6495,11.6495,11.6495,11.6984,11.7715,11.6792,11.71,11.7715,9.3381,9.2939,9.271,9.271,9.271,9.3056,9.4057,9.4951,9.5528,9.572,9.6326,9.6788,9.6788,9.598,9.522,9.448,9.371,9.2864,9.1979,9.1287,9.0816,9.0624,8.971,8.9171,8.9171,8.8171,8.7555,8.7401,8.6709,8.6247,8.6094,8.6094,8.6094,8.6094,8.6286,8.6247,8.6132,8.6478,8.7401,8.8795,8.9748,9.1672,9.4095,9.5297,9.6682,9.8019,9.8173,9.8134,9.7865,9.6865,9.548,9.4018,9.3018,9.2249,9.1556,9.0855,9.0393,9.0047,8.9556,8.9787,9.0355,9.1248,9.221,9.3335,0.0,0.0,0.0,9.5942,9.6711,9.7288,9.7288,9.8673,9.9913,10.0106,10.0789,10.1279,10.1279,10.2011,10.2491,10.2684,10.3992,10.4897,10.5005,10.5804,10.6188,10.6213,10.628,10.6395,10.6395,10.7982,10.8906,10.8906,11.0598,11.1588,11.1703,11.2406,11.2906,11.3214,11.4599,11.5418,11.561,11.6187,11.6495,11.6495,11.6495,11.6495,11.6495,11.6495,11.6611,11.6676,11.6611,11.71,11.7907,11.71,11.7407,11.8215,9.514,9.4137,9.3557,9.3557,9.3557,9.4134,9.5749,9.6673,9.748,9.8259,9.8442,9.8519,9.8519,9.775,9.7173,9.7096,9.6326,9.5518,9.4643,9.4489,9.4066,9.3287,9.1748,9.0902,9.0902,8.9363,8.8179,8.7401,8.7286,8.6863,8.6094,8.6094,8.6094,8.6132,8.6901,8.6824,8.6209,8.7748,8.8526,8.8833,9.0402,9.2595,9.5125,9.748,9.899,9.9913,10.0596,10.0404,9.9567,9.7904,9.6749,9.5711,9.4095,9.348,9.3403,9.3287,9.221,9.121,9.1864,9.1556,9.1248,9.2133,9.3518,9.4758,9.4951,0.0,9.5942,9.5297,0.0,9.6442,9.6442,0.0,0.0,9.999,10.0789,10.1279,10.1279,10.1414,10.1683,10.2501,10.2819,10.3203,10.4002,10.481,10.531,10.5213,10.602,10.6395,10.6395,10.7982,10.8906,10.8906,11.0598,11.178,11.2599,11.2714,11.3483,11.4984,11.5215,11.5687,11.6418,11.6495,11.6495,11.6495,11.6495,11.6495,11.6495,11.6495,11.6984,11.76,11.6792,11.7484,11.8792,11.7984,11.8715,11.9908,9.6086,9.5091,9.445,9.445,9.445,9.5018,9.6749,9.8134,9.9481,10.0789,10.0981,10.1212,10.1712,10.0981,10.0481,10.0481,9.925,9.8336,9.799,9.7019,9.6095,9.5249,9.4057,9.2941,9.1979,9.0787,8.9479,8.8132,8.7632,8.694,8.6094,8.6094,8.6094,8.6132,8.7017,8.7209,8.694,8.8179,8.9257,9.0287,9.1979,9.3903,9.5865,9.6942,9.8481,10.0221,10.1019,10.0789,9.999,9.9259,9.8442,9.7519,9.6288,9.5903,9.5711,9.4758,9.395,9.3364,9.321,9.2941,9.2864,9.3719,9.4104,9.4527,9.5518,9.5634,9.5595,9.5711,0.0,0.0,0.0,0.0,0.0,0.0,10.0404,10.1279,10.1279,10.1279,10.1394,10.1779,10.2289,10.2904,10.3789,10.4597,10.5107,10.5107,10.5405,10.5905,10.6405,10.7982,10.8906,10.8906,11.0598,11.1906,11.2714,11.3214,11.4099,11.5291,11.5803,11.6187,11.6495,11.6495,11.6495,11.6495,11.6495,11.6495,11.6484,11.6984,11.7484,11.7792,11.7984,11.8715,11.9715,11.8908,11.9292,12.0216,9.7244,9.5958,9.5066,9.5297,9.5181,9.5643,9.7557,9.9519,10.1212,10.2404,10.2981,10.3482,10.4222,10.3905,10.3597,10.3597,10.2289,10.1299,10.0798,9.9365,9.8096,9.7019,9.5942,9.4788,9.3557,9.2249,9.0825,8.9402,8.8517,8.7517,8.6478,8.6478,8.6324,8.617,8.7248,8.7748,8.7825,8.9171,9.0441,9.171,9.3633,9.5711,9.7673,9.7442,9.8904,10.1222,10.152,10.1289,10.0712,10.0491,9.9865,9.8981,9.8134,9.7865,9.7634,9.6412,9.5874,9.5605,9.5211,9.4749,9.4634,9.5489,9.4874,9.4441,9.598,9.5634,9.5258,9.6134,9.6288,0.0,0.0,0.0,9.8865,9.9096,0.0,10.1279,10.1279,10.1279,10.1279,10.1279,10.1904,10.252,10.3097,10.3905,10.4482,10.48,10.4992,10.5482,10.6405,10.7982,10.8906,10.8906,11.0791,11.2203,11.3022,11.3907,11.4791,11.5599,11.6187,11.6495,11.6495,11.6715,11.6907,11.6907,11.71,11.7176,11.7303,11.7907,11.8292,11.8523,11.9215,11.9908,12.06,11.9715,11.9908,12.06,9.8875,9.672,9.5258,9.6095,9.5557,9.5835,9.8365,10.0904,10.252,10.2597,10.3982,10.4982,10.5107,10.579,10.628,10.628,10.5482,10.4299,10.2597,10.1712,10.0404,9.8788,9.7134,9.6249,9.6172,9.3749,9.2018,9.1133,9.0239,8.897,8.7363,8.7363,8.6901,8.617,8.7902,8.8679,8.8833,9.1325,9.2402,9.2672,9.5211,9.8211,10.1096,10.0298,10.1606,10.3712,10.2904,10.252,10.2404,10.151,10.0712,9.9913,9.9019,9.875,9.875,9.8673,9.8096,9.7596,9.8404,9.7442,9.6403,9.7211,9.6172,9.5181,9.6095,9.5634,9.5258,9.6134,9.6288,9.6557,9.7326,9.8173,9.9067,9.9913,10.0789,0.0,0.0,10.1279,10.1279,10.1279,10.1279,10.1394,10.1394,10.2212,10.302,10.3905,10.4723,10.5482,10.6405,10.7982,10.8906,10.8906,11.1291,11.3099,11.3907,11.4791,11.5687,11.6495,11.6495,11.6495,11.6484,11.7407,11.7792,11.7792,11.8715,11.8985,11.8985,11.8985,11.9485,12.0216,12.0292,12.0793,12.1497,12.06,12.0793,12.1612,9.9721,9.849,9.725,9.6442,9.6519,9.7519,10.0096,10.1712,10.3212,10.4905,10.6097,10.7213,10.8416,10.929,10.9511,10.8983,10.8098,10.6905,10.5202,10.4289,10.3097,10.1404,10.0212,9.8827,9.7134,9.5749,9.3749,9.121,9.0902,8.9902,8.8256,8.8256,8.8094,8.7863,8.8979,9.0133,9.1325,9.271,9.4249,9.6019,9.8596,10.1019,10.2904,10.1404,10.2097,10.3915,10.3597,10.3482,10.3405,10.3097,10.2789,10.2414,10.0904,10.0519,10.0212,9.9135,9.8596,9.8404,9.8711,9.8404,9.8019,9.8288,9.7096,9.6095,9.6903,9.6442,9.6095,9.6903,9.7557,9.8057,9.8288,9.9067,9.976,10.0106,10.0789,10.1279,0.0,10.1279,10.1279,10.1279,10.1779,10.1894,10.1394,10.2097,10.2712,10.2981,10.3789,10.4713,10.5482,10.7713,10.9213,10.9713,11.1714,11.3407,11.4791,11.5187,11.5676,11.6495,11.6495,11.6792,11.7407,11.7715,11.81,11.8715,11.8985,11.91,11.91,11.9715,12.01,12.0408,12.0908,12.1293,12.1612,12.1304,12.1293,12.1612,10.0596,9.9827,9.8827,9.7442,9.7865,9.9058,10.101,10.252,10.4289,10.6597,10.8406,10.9983,11.1406,11.2291,11.2599,11.2109,11.0714,10.9213,10.779,10.6713,10.529,10.3597,10.2712,10.1212,9.8904,9.775,9.5826,9.3018,9.271,9.1672,9.0026,8.971,8.9402,8.9171,8.9979,9.1325,9.2979,9.4134,9.6095,9.8634,10.0904,10.2789,10.4212,10.3097,10.352,10.4713,10.4405,10.4289,10.4289,10.4289,10.4097,10.3712,10.2597,10.2212,10.202,10.0904,10.0596,10.0596,10.0596,10.0404,10.0212,10.0212,9.8673,9.7403,9.825,9.7788,9.7519,9.8634,9.9058,9.9442,9.9981,10.0106,10.0183,10.0481,10.1019,10.1279,0.0,10.1279,10.1279,10.1279,10.1779,10.1904,10.1394,10.1779,10.2289,10.2597,10.3097,10.3905,10.4982,10.7213,10.8983,11.0186,11.2099,11.3907,11.5291,11.561,11.6099,11.6984,11.6984,11.7407,11.8292,11.86,11.8985,11.9485,11.9908,11.9985,11.9985,12.0485,12.0793,12.0793,12.142,12.1612,12.1612,12.1612,12.1612,12.1612,10.1587,10.0789,9.999,9.9211,9.9683,10.0491,10.1394,10.3597,10.579,10.7598,11.0714,11.3099,11.3984,11.4907,11.5495,11.5407,11.3214,11.1406,11.0406,10.8906,10.7213,10.5405,10.4597,10.3289,10.151,9.9865,9.8134,9.6442,9.5528,9.422,9.2595,9.171,9.0816,9.0047,9.0902,9.221,9.3941,9.5634,9.7865,10.0414,10.202,10.3712,10.5107,10.5097,10.5713,10.6405,10.5482,10.5223,10.5223,10.5223,10.4713,10.4097,10.3982,10.4097,10.4097,10.3982,10.3982,10.3982,10.3982,10.3405,10.2789,10.2789,10.0904,9.9327,10.0183,9.9721,9.9558,10.1087,10.0904,10.0798,10.2289,10.1289,10.0491,10.1212,10.1279,10.1279,10.1279,10.1279,10.1279,10.1279,10.1279,10.1279,10.1279,10.1279,10.1587,10.252,10.2597,10.3289,10.4992,10.6713,10.8482,11.0214,11.2714,11.4407,11.5418,11.6187,11.6984,11.7792,11.7781,11.8292,11.9215,11.9985,12.0292,12.0408,12.1177,12.1612,12.1612,12.1612,12.1612,12.1612,12.1612,12.1612,12.1612,12.1612,12.1612,12.1612,10.3405,10.3097,10.2914,10.2597,10.1712,10.1904,10.4713,10.5587,10.7098,11.0088,11.2406,11.4214,11.5676,11.7215,11.7907,11.7215,11.5984,11.4599,11.3099,11.1983,11.0714,10.8993,10.8098,10.6482,10.4212,10.2481,10.0481,9.8173,9.6673,9.5403,9.4335,9.2864,9.2056,9.1825,9.2056,9.3441,9.5711,9.6749,9.9058,10.2097,10.3789,10.4713,10.5223,10.579,10.6597,10.729,10.7098,10.6982,10.6982,10.6982,10.729,10.7405,10.6213,10.6213,10.6597,10.5905,10.579,10.579,10.579,10.5587,10.5395,10.5395,10.4405,10.3482,10.3799,10.3597,10.3405,10.3289,10.3482,10.3607,10.2789,10.2212,10.1789,10.1394,10.1279,10.1279,10.1279,10.1279,10.1279,10.1279,10.1279,10.1279,10.1279,10.1279,10.1394,10.1587,10.2212,10.3097,10.4222,10.6405,10.879,11.1098,11.2983,11.4714,11.6187,11.6984,11.76,11.7792,11.8484,11.9215,11.9985,12.0216,12.0677,12.1304,12.1485,12.1612,12.1612,12.1612,12.1612,12.1612,12.1612,12.1612,12.1612,12.1612,12.1612,12.1612,10.5213,10.4982,10.5097,10.5482,10.502,10.5213,10.6713,10.7598,10.929,11.2714,11.4599,11.6292,11.7984,11.8985,11.9408,11.8908,11.7792,11.6715,11.5715,11.4791,11.3599,11.1906,11.1406,10.979,10.679,10.5482,10.3405,10.0481,9.8788,9.7326,9.6057,9.398,9.3018,9.3018,9.3018,9.4018,9.5903,9.8596,10.1096,10.3289,10.4982,10.5905,0.0,10.679,10.7521,10.829,10.8713,10.8482,10.8213,10.8213,10.8482,10.8713,10.779,10.779,10.8098,10.7598,10.7521,10.7521,10.7521,10.7521,10.7521,10.7521,10.6905,10.6213,10.6213,10.6213,10.6097,10.5713,10.5597,10.529,10.3905,10.3097,10.2289,10.1394,10.1279,10.1279,10.1279,10.1279,10.1279,10.1279,10.1279,10.1279,10.1279,10.1279,10.1279,10.1279,10.1789,10.2404,10.3289,10.5405,10.7713,11.0291,11.2406,11.4291,11.5995,11.7215,11.8023,11.8407,11.9215,12.01,12.0908,12.0908,12.11,12.1612,12.1612,12.1612,12.1612,12.1612,12.1612,12.1612,12.1612,12.1612,12.1612,12.1612,12.1612,12.1612,10.7098,10.6895,10.7087,10.7905,10.879,10.929,10.8906,10.9906,11.1906,11.5215,11.6984,11.86,12.01,12.0408,12.0485,12.0485,11.8985,11.81,11.81,11.7292,11.6099,11.4599,11.4407,11.2791,10.9483,10.8406,10.6213,10.2904,10.0991,9.9259,9.7596,9.4941,9.371,9.371,9.371,9.4373,9.5797,10.0596,10.3097,10.4097,10.579,10.701,10.7713,10.779,10.8406,10.9213,10.9906,10.9713,10.9098,10.9098,10.9213,10.9406,10.929,10.9406,10.9598,10.9598,10.9598,10.9598,10.9598,10.9598,10.9598,10.9598,10.8983,10.8482,10.8406,10.8406,10.829,10.8098,10.729,10.6405,10.5482,10.3789,10.2289,10.1394,10.1279,10.1279,10.1279,10.1279,10.1279,10.1279,10.1279,0.0,10.1279,10.1279,10.1279,10.1279,10.1279,10.1712,10.2597,10.4212,10.629,10.879,11.1406,11.3483,11.5291,11.71,11.8407,11.91,11.9985,12.0908,12.1612,12.1612,12.1612,12.1612,12.1612,12.1612,12.1612,12.1612,12.1612,12.1612,12.1612,12.1612,12.1612,12.1612,12.1612,12.1612,10.9713,10.9483,10.9598,10.9713,11.0983,11.2714,11.4687,11.3984,11.4291,11.6984,11.8215,11.9215,12.0216,12.0908,12.142,12.142,12.0408,11.9908,11.9908,11.91,11.8215,11.7215,11.6407,11.4791,11.2099,10.979,10.7405,10.4723,10.1606,9.9567,9.8481,9.5211,9.371,9.371,9.371,9.5365,9.8336,10.1289,10.3097,10.4097,10.6521,10.7598,10.779,10.8406,10.9213,10.9983,11.0098,11.0109,10.9993,10.9993,11.0906,11.1906,11.1291,11.1983,11.3099,11.3099,11.3099,11.3099,11.3099,11.3099,11.3099,11.3099,11.2983,11.2714,11.2022,11.1791,11.1406,10.9983,10.9098,10.7982,10.6521,10.4212,10.2289,10.1394,10.1279,10.1279,10.1279,10.1279,10.1279,10.1279,10.1279,10.1279,10.1279,10.1279,10.1279,10.1279,10.1279,10.1712,10.2597,10.4212,10.629,10.879,11.1406,11.3483,11.5291,11.7715,11.8908,11.91,12.06,12.1497,12.1612,12.1612,12.1612,12.1612,12.1612,12.1612,12.1612,12.1612,12.1612,12.1612,12.1612,12.1612,12.1612,12.1612,12.1612,12.1612,11.2214,11.2214,11.2291,11.2802,11.4214,11.6099,11.8177,11.86,11.91,12.0292,12.0793,12.1216,12.16,12.2408,12.2716,12.2293,12.2293,12.21,12.1716,12.1293,12.0485,11.9215,11.8715,11.7292,11.4714,11.2599,11.0098,10.7098,10.3712,10.1222,9.9413,9.6442,9.4826,9.4412,9.4864,9.6711,9.9606,10.1712,10.3597,10.529,10.7021,10.8213,10.8983,10.9406,11.0098,11.0906,11.0906,11.0906,11.0906,11.0906,11.1714,11.2588,11.2203,11.2983,11.3984,11.3984,11.3984,11.3984,11.3984,11.3984,11.3984,11.3984,11.3984,11.3907,11.3483,11.3022,11.2483,11.1714,11.0483,10.8906,10.679,10.502,10.3597,10.2789,10.2597,10.2597,10.2597,10.2289,10.202,10.202,10.1597,10.1279,10.1279,10.1279,10.1279,10.1279,10.1279,10.151,10.1904,10.3097,10.4982,10.7521,11.0098,11.2406,11.4599,11.76,11.91,11.91,12.0793,12.1612,12.1612,12.1612,12.1612,12.1612,12.1612,12.1612,12.1612,12.1612,12.1612,12.1612,12.1612,12.1612,12.1612,12.1612,12.1612,12.1612,11.4714,11.4984,11.5291,11.5984,11.7484,11.9215,12.0908,12.2601,12.3601,12.3216,12.3216,12.3101,12.2908,12.3601,12.3793,12.2985,12.3601,12.3793,12.3216,12.3024,12.2293,12.0908,12.0485,11.9292,11.7111,11.5215,11.2599,10.9213,10.579,10.2914,10.0298,9.7557,9.5942,9.5335,9.6365,9.8134,10.0491,10.2289,10.4405,10.651,10.7713,10.9098,11.0483,11.0714,11.1291,11.2011,11.2011,11.2011,11.2011,11.2011,11.2522,11.3022,11.3214,11.3791,11.4484,11.4484,11.4484,11.4484,11.4484,11.4484,11.4484,11.4484,11.4484,11.4484,11.4291,11.3714,11.3099,11.2791,11.1406,10.9483,10.7098,10.6097,10.5405,10.4597,10.4405,10.4405,10.4212,10.3597,10.2981,10.2597,10.202,10.151,10.1279,10.1279,10.1394,10.1597,10.1597,10.1597,10.1597,10.2404,10.3905,10.6097,10.8598,11.1214,11.3984,11.7215,11.8985,11.9408,12.0908,12.1612,12.1612,12.1612,12.1612,12.1612,12.1612,12.1612,12.1612,12.1612,12.1677,12.1908,12.1908,12.1908,12.1908,12.1908,12.1804,12.1612,11.7407,11.81,11.86,11.8715,12.01,12.1793,12.3485,12.5216,12.5794,12.4216,12.3985,12.3716,12.2985,12.3601,12.3793,12.2985,12.3601,12.4101,12.3985,12.3293,12.2781,12.2716,12.11,11.9792,11.8908,11.6407,11.3483,11.0109,10.6723,10.3712,10.1087,9.7827,9.6249,9.6249,9.7865,9.9558,10.1279,10.3789,10.5482,10.6587,10.8983,11.0483,11.1522,11.2214,11.2983,11.3791,11.3791,11.3791,11.3791,11.3791,11.3791,11.3984,11.4791,11.561,11.6303,11.6303,11.6303,11.6303,11.6303,11.6303,11.6303,11.6303,11.6303,11.611,11.5291,11.5099,11.4599,11.3022,11.1406,10.9686,10.7905,10.7521,10.7213,10.629,10.6213,10.5905,10.5097,10.4905,10.4289,10.2789,10.252,10.2212,10.1394,10.1279,10.1587,10.2404,10.252,10.252,10.252,10.3289,10.4212,10.5223,10.7713,11.0598,11.3984,11.6599,11.8715,12.0216,12.11,12.1612,12.1612,12.1612,12.1612,12.1612,12.1612,12.1612,12.1612,12.1612,12.21,12.2793,12.2793,12.2793,12.2793,12.2793,12.2293,12.1612,12.01,12.0793,12.1485,12.1985,12.3485,12.4986,12.6217,12.7409,12.7986,12.7294,12.6717,12.5909,12.4486,12.5178,12.5293,12.4486,12.5178,12.5409,12.4909,12.4601,12.4216,12.3601,12.2985,12.1985,12.06,11.86,11.5907,11.2483,10.9098,10.6097,10.3482,10.0587,9.9058,9.8673,10.0904,10.2481,10.3712,10.579,10.7713,10.9511,11.0598,11.1791,11.3022,11.3407,11.3714,11.3984,11.3984,11.3984,11.4099,11.4599,11.4791,11.4791,11.5187,11.5918,11.6495,11.6495,11.6495,11.6495,11.6495,11.6495,11.6495,11.6495,11.6495,11.6418,11.611,11.5599,11.5099,11.4407,11.2906,11.1483,11.0791,10.9906,10.9098,10.8713,10.8213,10.779,10.7405,10.6482,10.5597,10.502,10.352,10.252,10.2097,10.1587,10.1712,10.252,10.2097,10.201,10.2597,10.2404,10.3405,10.579,10.779,11.0791,11.4714,11.7292,11.9215,12.0292,12.1177,12.1612,12.1612,12.1612,12.1612,12.1612,12.1612,12.1612,12.1612,12.1612,12.1793,12.21,12.21,12.21,12.21,12.21,12.1908,12.1612,12.3113,12.3793,12.4512,12.5101,12.6409,12.7602,12.8217,12.8986,12.9487,12.9217,12.8909,12.7909,12.5986,12.6294,12.6294,12.5486,12.6178,12.6409,12.5794,12.5486,12.5101,12.4486,12.4216,12.3408,12.1985,12.06,11.8215,11.4714,11.1791,10.8983,10.6213,10.3905,10.252,10.2106,10.4289,10.579,10.6713,10.8406,11.0214,11.1906,11.2088,11.3099,11.4407,11.4407,11.4484,11.4714,11.4714,11.4714,11.4791,11.5407,11.5687,11.5687,11.5687,11.5995,11.6495,11.6495,11.6688,11.6907,11.6907,11.6907,11.6907,11.6907,11.6688,11.6495,11.6495,11.611,11.561,11.5291,11.4099,11.3099,11.3099,11.2099,11.1291,11.1291,11.0598,10.9906,10.9713,10.8213,10.6905,10.6097,10.4212,10.2789,10.2289,10.1712,10.1712,10.252,10.1779,10.1779,10.2904,10.2404,10.3405,10.628,10.8021,11.0983,11.5303,11.76,11.9408,12.0677,12.1304,12.1612,12.1612,12.1612,12.1612,12.1612,12.1612,12.1612,12.1612,12.1612,12.1804,12.1985,12.1985,12.1985,12.1985,12.1985,12.1793,12.1612,12.6601,12.7294,12.7782,12.7897,12.8602,12.9217,12.9217,12.991,13.0217,12.9294,12.991,12.9487,12.6998,12.669,12.6294,12.5486,12.6178,12.669,12.669,12.5909,12.5409,12.5409,12.4601,12.3716,12.2908,12.1985,11.9919,11.6495,11.4791,11.2214,10.879,10.7087,10.628,10.6395,10.8098,10.929,11.0214,11.1906,11.2714,11.2791,11.3599,11.4484,11.5291,11.5291,11.5803,11.6495,11.6495,11.6495,11.6495,11.6495,11.6495,11.6495,11.6495,11.6495,11.6495,11.6495,11.71,11.7792,11.7792,11.7792,11.7792,11.7792,11.71,11.6495,11.6495,11.6495,11.6303,11.5495,11.4599,11.3984,11.3984,11.3984,11.3984,11.3984,11.3214,11.2406,11.1588,11.0021,10.7905,10.5405,10.4405,10.3212,10.151,10.1279,10.1712,10.252,10.1779,10.2097,10.3789,10.3905,10.4597,10.628,10.8021,11.0983,11.5303,11.6984,11.91,12.1612,12.1612,12.1612,12.1612,12.1612,12.1612,12.1612,12.1612,12.1612,12.1612,12.1612,12.21,12.2908,12.2908,12.2908,12.2908,12.2908,12.2293,12.1612,12.8409,12.9102,12.9717,12.9717,13.041,13.091,13.091,13.1102,13.1179,13.091,13.0679,13.0179,12.941,12.8794,12.8102,12.7217,12.7409,12.7294,12.6678,12.6409,12.6294,12.6294,12.5986,12.5216,12.3716,12.2908,12.11,11.8292,11.6484,11.3984,11.0714,11.0088,10.9598,10.9098,11.1406,11.2483,11.2906,11.4599,11.5599,11.6215,11.6484,11.71,11.7907,11.7907,11.7984,11.8215,11.76,11.7407,11.7292,11.6676,11.6907,11.7407,11.7407,11.7407,11.7407,11.7407,11.7984,11.8715,11.8715,11.8715,11.8715,11.8715,11.8484,11.8292,11.8292,11.7792,11.71,11.6303,11.5495,11.511,11.5599,11.4791,11.4214,11.4791,11.3714,11.2588,11.2406,11.0291,10.8406,10.6982,10.5097,10.3405,10.2289,10.1587,10.1394,10.1712,10.152,10.2097,10.3789,10.3905,10.5213,10.8021,11.0291,11.3291,11.6984,11.8715,12.0216,12.1612,12.1612,12.1612,12.1612,12.1612,12.1612,12.1612,12.1612,12.1612,12.1612,12.1612,12.1804,12.1985,12.1985,12.1985,12.1985,12.1985,12.1793,12.1612,13.0217,13.0602,13.1102,13.141,13.1923,13.2295,13.2603,13.2679,13.2679,13.2679,13.1987,13.141,13.141,13.0679,12.9487,12.8012,12.7897,12.7602,12.6806,12.669,12.669,12.669,12.669,12.5909,12.4101,12.3601,12.21,11.96,11.7792,11.5907,11.3907,11.3522,11.3291,11.3099,11.4714,11.5599,11.5984,11.6984,11.7792,11.8292,11.8292,11.86,11.91,11.91,11.91,11.8985,11.8484,11.8292,11.8215,11.7677,11.7792,11.8292,11.8292,11.8484,11.8715,11.8407,11.8908,11.96,11.96,11.96,11.96,11.96,11.9292,11.91,11.91,11.8407,11.76,11.71,11.6292,11.5918,11.6418,11.5599,11.5099,11.5687,11.4291,11.3099,11.2703,11.0521,10.8406,10.6905,10.529,10.3905,10.2712,10.2404,10.2289,10.2289,10.2289,10.302,10.4713,10.4482,10.5982,10.979,11.2022,11.4791,11.8292,11.96,12.0716,12.1612,12.1612,12.1612,12.1612,12.1612,12.1612,12.1612,12.1612,12.1612,12.1612,12.1612,12.1612,12.1612,12.1612,12.1612,12.1612,12.1612,12.1612,12.1612,13.1987,13.191,13.2102,13.291,13.3115,13.3423,13.4218,13.4295,13.4295,13.4295,13.3487,13.3,13.3,13.2179,13.0718,12.8282,12.8089,12.7717,12.6909,12.6921,12.6794,12.6806,12.6806,12.5986,12.4216,12.4216,12.2985,12.0485,11.8792,11.8023,11.7984,11.71,11.71,11.7907,11.7907,11.8407,11.9215,11.9215,11.9292,11.9292,11.9292,11.9292,11.9292,11.9292,11.9292,11.9292,11.9215,11.9215,11.9215,11.91,11.91,11.9215,11.9215,11.9715,12.0216,11.9408,11.9792,12.0408,12.0408,12.0408,12.0408,12.0408,11.9792,11.9292,11.9215,11.86,11.8023,11.7907,11.7215,11.6688,11.6611,11.6611,11.6611,11.6418,11.5099,11.3714,11.2703,11.0483,10.7982,10.5492,10.5097,10.4482,10.2789,10.3405,10.3905,10.3905,10.3982,10.4713,10.6395,10.579,10.7405,11.1511,11.3407,11.5792,11.9215,11.9985,12.0793,12.1612,12.1612,12.1612,12.1612,12.1612,12.1612,12.1612,12.1612,12.1612,12.1612,12.1612,12.1612,12.1612,12.1612,12.1612,12.1612,12.1612,12.1612,12.1612,13.3718,13.3718,13.3718,13.3987,13.3987,13.4103,13.4295,13.4295,13.4295,13.4295,13.3487,13.3,13.3,13.2179,13.1179,12.9987,12.991,12.9487,12.8717,12.8602,12.8294,12.7602,12.7602,12.6794,12.5101,12.5101,12.4216,12.2293,12.06,11.9715,11.9715,11.8908,11.86,11.8792,11.9408,11.9792,12.01,12.0677,12.0985,12.0985,12.0985,12.0985,12.0985,12.0985,12.0985,12.0908,12.0292,11.9985,11.9908,11.9292,11.9485,11.9985,11.9985,12.06,12.11,12.0292,12.06,12.1304,12.1304,12.1304,12.1304,12.1304,12.11,12.0793,12.0216,11.9908,11.9485,11.8908,11.86,11.8292,11.76,11.7484,11.71,11.5792,11.4714,11.3483,11.2022,11.0098,10.8213,10.629,10.5482,10.4723,10.3712,10.3789,10.3905,10.3905,10.4492,10.5597,10.729,10.8406,11.0291,11.3291,11.5715,11.7907,11.9985,12.0908,12.142,12.1612,12.1612,12.1612,12.1612,12.1612,12.1612,12.1612,12.1612,12.1612,12.1612,12.1612,12.1612,12.1612,12.1612,12.1612,12.1612,12.1612,12.1612,12.1612,13.4411,13.4295,13.4411,13.4795,13.4795,13.4988,13.5411,13.5411,13.5411,13.5411,13.468,13.3987,13.3603,13.2795,13.1987,13.1102,13.0718,13.0102,12.9294,12.9217,12.8986,12.8486,12.8089,12.7294,12.5986,12.5601,12.4601,12.2908,12.16,12.0908,12.0908,12.0408,12.0216,12.0292,12.0677,12.0908,12.0908,12.142,12.1612,12.1612,12.1612,12.1612,12.1612,12.1612,12.1612,12.1485,12.11,12.0908,12.0793,12.0408,12.0485,12.0908,12.0908,12.1177,12.1485,12.0985,12.1177,12.1612,12.1612,12.1612,12.1612,12.1612,12.1612,12.1497,12.0985,12.06,12.0216,11.9715,11.9408,11.8792,11.7984,11.7792,11.7292,11.561,11.4214,11.2791,11.1098,10.9406,10.7713,10.602,10.6097,10.5982,10.5097,10.5713,10.6213,10.6213,10.6982,10.7982,10.9406,11.1406,11.3291,11.5099,11.6907,11.8792,12.0908,12.142,12.1612,12.1612,12.1612,12.1612,12.1612,12.1612,12.1612,12.1612,12.1612,12.1612,12.1612,12.1612,12.1612,12.1612,12.1612,12.1612,12.1612,12.1612,12.1612,12.1612,13.4795,13.4718,13.4911,13.5603,13.5719,13.5911,13.668,13.6796,13.6796,13.6796,13.5988,13.5218,13.4603,13.368,13.2795,13.1987,13.1295,13.0487,12.9602,12.9602,12.9487,12.941,12.8717,12.7794,12.6909,12.5909,12.4601,12.3101,12.2216,12.1677,12.1612,12.1612,12.1612,12.1612,12.1612,12.1612,12.1612,12.1612,12.1612,12.1612,12.1612,12.1612,12.1612,12.1612,12.1612,12.1612,12.1612,12.1612,12.1612,12.1612,12.1612,12.1612,12.1612,12.1612,12.1612,12.1612,12.1612,12.1612,12.1612,12.1612,12.1612,12.1612,12.1612,12.1612,12.1612,12.0985,12.0485,12.0485,11.9985,11.9215,11.8215,11.7907,11.7215,11.5407,11.3599,11.1906,11.0214,10.8713,10.7213,10.5713,10.6905,10.7598,10.701,10.8406,10.929,10.929,11.0098,11.0983,11.2022,11.4214,11.5995,11.6984,11.7792,11.9292,12.1612,12.1612,12.1612,12.1612,12.1612,12.1612,12.1612,12.1612,12.1612,12.1612,12.1612,12.1612,12.1612,12.1612,12.1612,12.1612,12.1677,12.1677,12.1612,12.1677,12.1677,12.1612,13.6411,13.6411,13.6488,13.6603,13.6603,13.6603,13.6796,13.6796,13.6796,13.6796,13.5988,13.5488,13.5295,13.4603,13.3718,13.2923,13.2692,13.2179,13.141,13.1295,13.0987,13.0294,13.0217,12.9294,12.7705,12.6217,12.4909,12.3909,12.3101,12.2293,12.1612,12.1612,12.1612,12.1612,12.1612,12.1612,12.1612,12.1612,12.1612,12.1612,12.1612,12.1612,12.1612,12.1612,12.1612,12.1612,12.1612,12.1612,12.1612,12.1612,12.1612,12.1612,12.1612,12.1612,12.1612,12.1612,12.1612,12.1612,12.1612,12.1612,12.1612,12.1612,12.1612,12.1612,12.1612,12.1497,12.142,12.142,12.1304,12.0677,11.9215,11.8292,11.6984,11.4599,11.2791,11.1098,10.929,10.829,10.7598,10.729,10.8098,10.8906,10.9598,11.0521,11.1098,11.1098,11.1906,11.2983,11.4599,11.5676,11.7419,11.96,11.9792,12.0485,12.1612,12.1612,12.1612,12.1612,12.1612,12.1612,12.1612,12.1612,12.1612,12.1612,12.1612,12.1612,12.1612,12.1612,12.1612,12.1689,12.2408,12.2216,12.1689,12.2408,12.2216,12.1612,13.6796,13.6796,13.6796,13.6796,13.6796,13.6796,13.6796,13.6796,13.6796,13.6796,13.6411,13.5988,13.5603,13.5218,13.4603,13.3795,13.368,13.3487,13.3103,13.2179,13.1487,13.1179,13.0718,12.9717,12.7897,12.6294,12.4986,12.4101,12.3293,12.2485,12.1612,12.1612,12.1612,12.1612,12.1612,12.1612,12.1612,12.1612,12.1612,12.1612,12.1612,12.1612,12.1612,12.1612,12.1612,12.1612,12.1612,12.1612,12.1612,12.1612,12.1908,12.2293,12.2293,12.2601,12.2908,12.2408,12.1985,12.1612,12.1612,12.1612,12.1612,12.1612,12.1612,12.1612,12.1612,12.1612,12.1612,12.1612,12.1612,12.11,11.9408,11.8792,11.7484,11.4484,11.2983,11.1598,10.979,10.8906,10.8482,10.8983,10.979,11.0791,11.2099,11.2983,11.3714,11.4214,11.4984,11.5792,11.6599,11.7907,11.91,12.0292,12.0793,12.1177,12.1612,12.1612,12.1612,12.1612,12.1612,12.1612,12.1612,12.1612,12.1612,12.1612,12.1612,12.1612,12.1612,12.1612,12.1612,12.1689,12.2601,12.2408,12.1689,12.2601,12.2293,12.1612,13.6796,13.6796,13.6796,13.6796,13.6796,13.6796,13.6796,13.6796,13.6796,13.6796,13.6796,13.6488,13.5911,13.5795,13.5488,13.4718,13.4603,13.4487,13.4295,13.2987,13.2179,13.1987,13.0987,12.9794,12.8205,12.6717,12.5486,12.4409,12.3601,12.2716,12.1908,12.1689,12.1612,12.1612,12.1612,12.1612,12.1612,12.1612,12.1612,12.1612,12.1612,12.1612,12.1612,12.1612,12.1612,12.1612,12.1612,12.1612,12.16,12.1793,12.2293,12.2897,12.3101,12.3601,12.3985,12.3408,12.2601,12.1908,12.1689,12.1612,12.1612,12.1612,12.1612,12.1612,12.1612,12.1612,12.1612,12.1612,12.1612,12.11,11.9408,11.8908,11.7792,11.4791,11.3407,11.2291,11.0983,10.9983,10.979,11.0714,11.1714,11.2983,11.4407,11.5599,11.6407,11.7111,11.7715,11.8215,11.8407,11.96,12.0408,12.06,12.1304,12.1612,12.1612,12.1612,12.1612,12.1612,12.1612,12.1612,12.1612,12.1612,12.1612,12.1612,12.1612,12.1612,12.1612,12.1612,12.1612,12.1689,12.2601,12.2408,12.1689,12.2601,12.2293,12.1612,13.6796,13.6796,13.6796,13.6796,13.6796,13.6796,13.6796,13.6796,13.6796,13.6796,13.6796,13.6796,13.668,13.668,13.6411,13.5488,13.5411,13.5103,13.4295,13.4218,13.3718,13.2923,13.141,13.0102,12.9102,12.8217,12.6909,12.5293,12.4409,12.3601,12.2793,12.1985,12.1612,12.1612,12.1612,12.1612,12.1612,12.1612,12.1612,12.1612,12.1612,12.1612,12.1612,12.1612,12.1612,12.1612,12.1612,12.1612,12.1677,12.2485,12.2781,12.3024,12.3793,12.4101,12.4101,12.3985,12.3408,12.2601,12.1793,12.1612,12.1612,12.1612,12.1612,12.1612,12.1612,12.1612,12.1612,12.1612,12.1612,12.11,11.9408,11.8407,11.7292,11.5484,11.3791,11.2714,11.2511,11.178,11.1588,11.2406,11.3984,11.5418,11.6176,11.7792,11.8792,11.8908,11.8985,11.9292,12.01,12.0216,12.0677,12.1497,12.1612,12.1612,12.1612,12.1612,12.1612,12.1612,12.1612,12.1612,12.1612,12.1612,12.1612,12.1612,12.1612,12.1612,12.1612,12.1612,12.1612,12.1689,12.2601,12.2408,12.1689,12.2601,12.2293,12.1612,13.6796,13.6796,13.6796,13.6796,13.6796,13.6796,13.6796,13.6796,13.6796,13.6796,13.6796,13.6796,13.6796,13.6796,13.668,13.6296,13.6296,13.618,13.5911,13.5295,13.4411,13.3115,13.141,13.0294,12.9987,12.8602,12.7294,12.6178,12.4793,12.3716,12.2908,12.1985,12.1612,12.1612,12.1612,12.1612,12.1612,12.1612,12.1612,12.1612,12.1612,12.1612,12.1612,12.1612,12.1612,12.1612,12.1612,12.1612,12.1677,12.2601,12.3204,12.3793,12.4601,12.5293,12.5601,12.5101,12.4293,12.3601,12.3216,12.2408,12.1612,12.1612,12.1612,12.1612,12.1612,12.1612,12.1612,12.1612,12.1612,12.1177,12.01,11.96,11.86,11.6418,11.5484,11.4714,11.3714,11.3714,11.4214,11.4984,11.6099,11.7407,11.8715,11.9485,12.01,12.06,12.0677,12.0793,12.11,12.11,12.1304,12.1612,12.1612,12.1612,12.1612,12.1612,12.1612,12.1612,12.1612,12.1612,12.1612,12.1612,12.1612,12.16,12.2216,12.2408,12.2408,12.2908,12.2908,12.2485,12.3293,12.2793,12.1689,12.2601,12.2293,12.1612,13.6796,13.6796,13.6796,13.6796,13.6796,13.6796,13.6796,13.6796,13.6796,13.6796,13.6796,13.6796,13.6796,13.6796,13.6796,13.6796,13.6488,13.6411,13.6411,13.5295,13.418,13.3115,13.1602,13.0794,13.0487,12.9102,12.7909,12.7101,12.5101,12.3793,12.3293,12.21,12.1612,12.1612,12.1612,12.1612,12.1612,12.1612,12.1612,12.1612,12.1612,12.1612,12.1612,12.1612,12.1612,12.1612,12.1612,12.1612,12.1804,12.2908,12.3601,12.4293,12.5409,12.6178,12.6486,12.5678,12.4986,12.4409,12.4216,12.3293,12.2293,12.21,12.1793,12.1612,12.1612,12.1612,12.1612,12.1612,12.1612,12.1293,12.0485,12.0292,11.96,11.76,11.7292,11.6907,11.5792,11.6099,11.6676,11.7303,11.81,11.8985,12.0216,12.0485,12.0997,12.1612,12.1612,12.1612,12.1612,12.1612,12.1612,12.1612,12.1612,12.1612,12.1612,12.1612,12.1612,12.1612,12.1612,12.1612,12.1612,12.1612,12.1612,12.16,12.2216,12.2601,12.2897,12.3485,12.3408,12.2985,12.3485,12.2908,12.1689,12.2293,12.21,12.1612,13.6796,13.6796,13.6796,13.6796,13.6796,13.6796,13.6796,13.6796,13.6796,13.6796,13.6796,13.6796,13.6796,13.6796,13.6796,13.6796,13.5988,13.5488,13.5488,13.391,13.3,13.3,13.2192,13.1295,13.0487,12.9602,12.8794,12.7897,12.5409,12.4101,12.4101,12.2408,12.1612,12.1612,12.1612,12.1612,12.1612,12.1612,12.1612,12.1612,12.1612,12.1612,12.1612,12.1612,12.1612,12.1612,12.1612,12.1612,12.192,12.3485,12.4101,12.4409,12.6178,12.669,12.6486,12.5678,12.5409,12.5216,12.4409,12.4101,12.3909,12.3101,12.2293,12.1612,12.1612,12.1612,12.1612,12.1612,12.1612,12.1293,12.0485,12.0292,11.9985,11.9215,11.91,11.91,11.91,11.91,11.91,11.91,11.9792,12.0292,12.0292,12.11,12.1612,12.1612,12.1612,12.1612,12.1612,12.1612,12.1612,12.1612,12.1612,12.1612,12.1612,12.1612,12.1612,12.1612,12.1612,12.1612,12.1612,12.1612,12.1612,12.1612,12.1612,12.21,12.2908,12.2908,12.2908,12.2908,12.2908,12.2408,12.1612,12.1612,12.1612,12.1612,13.6796,13.6796,13.6796,13.6796,13.6796,13.6796,13.6796,13.6796,13.6796,13.6796,13.6796,13.6796,13.6796,13.6296,13.5911,13.5911,13.5103,13.4411,13.3795,13.3308,13.2692,13.2102,13.1795,13.1602,13.1295,12.991,12.9102,12.8794,12.6294,12.4986,12.4986,12.3909,12.3408,12.3408,12.3408,12.3408,12.3408,12.3408,12.3408,12.3408,12.3408,12.3408,12.3293,12.2716,12.2485,12.2408,12.1793,12.1612,12.192,12.3485,12.4101,12.4409,12.6178,12.669,12.6601,12.6421,12.6294,12.6306,12.5986,12.5486,12.4793,12.3985,12.3485,12.3216,12.2601,12.2485,12.2293,12.1677,12.1612,12.1485,12.1304,12.1177,12.0908,12.01,11.9908,11.9715,11.9215,11.96,11.9908,11.9908,12.0677,12.1177,12.1177,12.1408,12.1612,12.1612,12.1612,12.1612,12.1612,12.1612,12.1612,12.1612,12.1612,12.1612,12.1612,12.1612,12.1612,12.1612,12.1612,12.1908,12.2485,12.1908,12.1908,12.2485,12.2485,12.2716,12.2897,12.3485,12.3408,12.2908,12.2908,12.2408,12.1612,12.1612,12.1612,12.1612,13.6796,13.6796,13.6796,13.6796,13.6796,13.6796,13.6796,13.6796,13.668,13.6296,13.6296,13.618,13.5795,13.5295,13.4988,13.4988,13.4295,13.341,13.2487,13.25,13.2307,13.1679,13.1679,13.1602,13.1179,12.991,12.8986,12.8717,12.6486,12.5409,12.5409,12.4486,12.4101,12.4101,12.4101,12.4101,12.4101,12.4101,12.4101,12.4101,12.4101,12.4101,12.3985,12.3601,12.3408,12.3293,12.2408,12.2293,12.2716,12.3793,12.4601,12.5293,12.6421,12.669,12.669,12.669,12.669,12.669,12.669,12.6294,12.5794,12.5293,12.4601,12.3985,12.3485,12.3101,12.2793,12.2216,12.1793,12.1612,12.1612,12.1612,12.142,12.0908,12.0793,12.06,12.0177,12.0485,12.0793,12.0793,12.1304,12.1612,12.1612,12.1612,12.1612,12.1612,12.1612,12.1612,12.1612,12.1612,12.1612,12.1612,12.1612,12.1612,12.1612,12.1612,12.1612,12.1612,12.1612,12.21,12.2908,12.1985,12.21,12.2908,12.2485,12.2601,12.2897,12.3408,12.3293,12.2908,12.2908,12.2408,12.1612,12.1612,12.1612,12.1612,13.6796,13.6796,13.6796,13.6796,13.668,13.668,13.668,13.6603,13.6296,13.5488,13.5411,13.5103,13.4411,13.4218,13.4218,13.4218,13.341,13.2487,13.1795,13.1679,13.1679,13.1679,13.1679,13.1295,13.0487,12.9602,12.8794,12.8012,12.6294,12.5486,12.5486,12.4716,12.4293,12.4293,12.4293,12.4293,12.4293,12.4293,12.4293,12.4293,12.4293,12.4293,12.4293,12.4216,12.4216,12.4101,12.3293,12.3485,12.4101,12.4216,12.5293,12.669,12.669,12.669,12.669,12.669,12.669,12.669,12.669,12.669,12.669,12.669,12.5486,12.4293,12.4216,12.3601,12.3101,12.3024,12.2408,12.1804,12.1677,12.1677,12.1689,12.1612,12.1689,12.1689,12.1612,12.1689,12.1689,12.1612,12.1612,12.1612,12.1612,12.1612,12.1612,12.1612,12.1612,12.1612,12.1612,12.1612,12.16,12.1677,12.1677,12.1804,12.1804,12.1804,12.1677,12.1612,12.1612,12.21,12.2908,12.1985,12.21,12.2908,12.1985,12.21,12.2793,12.2793,12.2793,12.2793,12.2793,12.2293,12.1612,12.1612,12.1612,12.1612,13.6796,13.6796,13.6796,13.6796,13.618,13.5795,13.5795,13.5218,13.4795,13.4603,13.4603,13.4487,13.4295,13.368,13.3295,13.3295,13.2487,13.191,13.1679,13.1679,13.1679,13.1679,13.1679,13.1295,13.0487,12.9602,12.9102,12.8909,12.7217,12.6409,12.6409,12.6178,12.6101,12.6101,12.6101,12.6101,12.6101,12.6101,12.6101,12.6101,12.6101,12.6101,12.6101,12.5409,12.5101,12.4986,12.4101,12.3985,12.4216,12.4909,12.5794,12.669,12.669,12.669,12.669,12.669,12.669,12.669,12.669,12.669,12.669,12.669,12.6409,12.5986,12.5293,12.4986,12.4716,12.3985,12.3716,12.3408,12.2716,12.2601,12.2408,12.1677,12.2216,12.2408,12.1689,12.2216,12.2408,12.1689,12.1612,12.1612,12.1612,12.1612,12.1612,12.1612,12.1612,12.1612,12.1612,12.1612,12.1908,12.2601,12.2601,12.2908,12.3601,12.3601,12.2908,12.1612,12.1612,12.21,12.2908,12.1985,12.21,12.2908,12.1985,12.1689,12.1908,12.1908,12.1908,12.1908,12.1908,12.1804,12.1612,12.1612,12.1612,12.1612,13.6796,13.6796,13.668,13.6296,13.5795,13.5411,13.4988,13.4603,13.4218,13.368,13.368,13.3487,13.3103,13.2679,13.2423,13.2423,13.1987,13.1679,13.1679,13.1679,13.1679,13.1679,13.1679,13.1487,13.1102,13.0217,12.941,12.8602,12.7294,12.669,12.669,12.669,12.669,12.669,12.669,12.669,12.669,12.669,12.669,12.669,12.669,12.669,12.669,12.6178,12.5986,12.5909,12.4986,12.4716,12.4909,12.5678,12.6294,12.669,12.669,12.669,12.669,12.669,12.669,12.669,12.669,12.669,12.669,12.669,12.669,12.6614,12.6101,12.5678,12.5293,12.4793,12.4409,12.3985,12.3601,12.3485,12.3293,12.2908,12.3216,12.3293,12.2908,12.3216,12.3293,12.2793,12.2793,12.2793,12.2793,12.2793,12.2793,12.2793,12.2793,12.2793,12.2793,12.2793,12.2985,12.3485,12.3485,12.3716,12.4101,12.4101,12.3716,12.2793,12.2408,12.2716,12.3408,12.2177,12.21,12.2908,12.1985,12.1612,12.1612,12.1612,12.1612,12.1612,12.1612,12.1612,12.1612,12.1612,12.1612,12.1612,13.6796,13.668,13.6296,13.5603,13.5295,13.4795,13.4218,13.3987,13.3603,13.2923,13.2808,13.25,13.1795,13.1679,13.1679,13.1679,13.1679,13.1679,13.1679,13.1679,13.1679,13.1679,13.1679,13.1679,13.1679,13.091,12.9717,12.8089,12.7294,12.6794,12.669,12.669,12.669,12.669,12.669,12.669,12.669,12.669,12.669,12.669,12.669,12.669,12.669,12.669,12.669,12.6601,12.5909,12.5601,12.5678,12.6498,12.669,12.669,12.669,12.669,12.669,12.669,12.669,12.669,12.669,12.669,12.669,12.669,12.669,12.669,12.669,12.6101,12.5601,12.5601,12.4986,12.4486,12.4293,12.4293,12.4293,12.4101,12.4216,12.4293,12.4101,12.4216,12.4293,12.4101,12.4101,12.4101,12.4101,12.4101,12.4101,12.4101,12.4101,12.4101,12.4101,12.4101,12.4216,12.4293,12.4293,12.4409,12.4486,12.4486,12.4486,12.4486,12.3716,12.3485,12.3793,12.2293,12.1985,12.2601,12.1908,12.1612,12.1612,12.1612,12.1612,12.1612,12.1612,12.1612,12.1612,12.1612,12.1612,12.1612,13.6796,13.618,13.5603,13.5488,13.4295,13.3308,13.3192,13.2487,13.1987,13.191,13.191,13.1795,13.1679,13.1679,13.1679,13.1679,13.1679,13.1679,13.1679,13.1679,13.1679,13.1679,13.1679,13.1679,13.1679,13.091,12.9987,12.8986,12.8217,12.7409,12.669,12.669,12.669,12.669,12.669,12.669,12.669,12.669,12.669,12.669,12.669,12.669,12.669,12.669,12.669,12.669,12.6614,12.6486,12.6486,12.669,12.669,12.669,12.669,12.669,12.669,12.669,12.669,12.669,12.669,12.669,12.669,12.669,12.669,12.669,12.669,12.6601,12.6486,12.6486,12.6409,12.6101,12.5409,12.5216,12.4986,12.4216,12.4716,12.4986,12.4216,12.4716,12.4909,12.4216,12.4101,12.4101,12.4101,12.4101,12.4101,12.4101,12.4101,12.4101,12.4101,12.4101,12.4409,12.5216,12.5216,12.5601,12.6294,12.6294,12.6294,12.6294,12.5486,12.4409,12.3024,12.1985,12.1689,12.1804,12.1689,12.1612,12.1612,12.1612,12.1612,12.1612,12.1612,12.1612,12.1612,12.1612,12.1612,12.1612,13.618,13.5795,13.5218,13.4295,13.35,13.2808,13.2295,13.191,13.1679,13.1679,13.1679,13.1679,13.1679,13.1679,13.1679,13.1679,13.1679,13.1679,13.1679,13.1679,13.1679,13.1679,13.1679,13.1679,13.1679,13.141,13.0487,12.9217,12.8282,12.7486,12.669,12.669,12.669,12.669,12.669,12.669,12.669,12.669,12.669,12.669,12.669,12.669,12.669,12.669,12.669,12.669,12.669,12.669,12.669,12.669,12.669,12.669,12.669,12.669,12.669,12.669,12.669,12.669,12.669,12.669,12.669,12.669,12.669,12.669,12.669,12.6986,12.7217,12.6806,12.669,12.6614,12.6178,12.6486,12.6717,12.6294,12.6524,12.6717,12.6294,12.6217,12.5986,12.5601,12.5909,12.6205,12.6205,12.6205,12.6205,12.6205,12.5794,12.5601,12.5601,12.5601,12.5678,12.6101,12.6101,12.6294,12.669,12.669,12.669,12.669,12.5794,12.4986,12.4293,12.3408,12.2985,12.2985,12.2985,12.2985,12.2985,12.2485,12.2293,12.2293,12.1804,12.1612,12.1612,12.1612,12.1612,12.1612]}]]